[[{"header":{"parameterUnit":"m.s-1","parameterCategory":1,"la1":30.6,"la2":29.2853,"lo1":-89.7004,"lo2":-87.6739,"dy":0.0162,"dx":0.0183,"nx":112,"ny":82,"refTime":"2023-11-22T18:00:00:Z","depth":0,"parameterNumber":2,"parameterNumberName":"U-component_of_WINDS"},"data":[0.0,0.0,0.0,0.0,0.0,0.0,0.0,0.0,0.0,0.0,0.0,0.0,0.0,0.0,0.0,0.0,0.0,0.0,0.0,0.0,0.0,0.0,0.0,0.0,0.0,0.0,0.0,0.0,0.0,0.0,0.0,0.0,0.0,0.0,0.0,0.0,0.0,0.0,0.0,0.0,0.0,0.0,0.0,0.0,0.0,0.0,0.0,0.0,0.0,0.0,0.0,0.0,0.0,0.0,0.0,0.0,0.0,0.0,0.0,0.0,0.0,0.0,0.0,0.0,0.0,0.0,0.0,0.0,0.0,0.0,0.0,0.0,0.0,0.0,0.0,0.0,0.0,0.0,0.0,0.0,0.0,0.0,0.0,0.0,0.0,0.0,0.0,0.0,0.0,0.0,0.0,5.628,5.7035,5.7334,5.6997,5.7935,5.8498,5.8498,0.0,0.0,0.0,0.0,0.0,0.0,0.0,0.0,0.0,0.0,0.0,0.0,0.0,0.0,0.0,0.0,0.0,0.0,0.0,0.0,0.0,0.0,0.0,0.0,0.0,0.0,0.0,0.0,0.0,0.0,0.0,0.0,0.0,0.0,0.0,0.0,0.0,0.0,0.0,0.0,0.0,0.0,0.0,0.0,0.0,0.0,0.0,0.0,0.0,0.0,0.0,0.0,0.0,0.0,0.0,0.0,0.0,0.0,0.0,0.0,0.0,0.0,0.0,0.0,0.0,0.0,0.0,0.0,0.0,0.0,0.0,0.0,0.0,0.0,0.0,0.0,0.0,0.0,0.0,0.0,0.0,0.0,0.0,0.0,0.0,0.0,0.0,0.0,0.0,0.0,0.0,0.0,0.0,0.0,0.0,0.0,0.0,0.0,0.0,0.0,0.0,0.0,0.0,0.0,5.7069,5.7655,5.7817,5.7893,5.7819,5.7997,5.8074,5.8074,0.0,0.0,0.0,0.0,0.0,0.0,0.0,0.0,0.0,0.0,0.0,0.0,0.0,0.0,0.0,0.0,0.0,0.0,0.0,0.0,0.0,0.0,0.0,0.0,0.0,0.0,0.0,0.0,0.0,0.0,0.0,0.0,0.0,0.0,0.0,0.0,0.0,0.0,0.0,0.0,0.0,0.0,0.0,0.0,0.0,0.0,0.0,0.0,0.0,0.0,0.0,0.0,0.0,0.0,0.0,0.0,0.0,0.0,0.0,0.0,0.0,0.0,0.0,0.0,0.0,0.0,0.0,0.0,0.0,0.0,0.0,0.0,0.0,0.0,0.0,0.0,0.0,0.0,0.0,0.0,0.0,0.0,0.0,0.0,0.0,0.0,0.0,0.0,0.0,0.0,0.0,0.0,0.0,0.0,0.0,0.0,0.0,0.0,0.0,0.0,0.0,0.0,0.0,5.7326,5.7744,5.7989,5.8002,5.8002,5.8002,5.8002,5.8002,5.8002,5.7666,0.0,0.0,0.0,0.0,0.0,0.0,0.0,0.0,0.0,0.0,0.0,0.0,0.0,0.0,0.0,0.0,0.0,0.0,0.0,0.0,0.0,0.0,0.0,0.0,0.0,0.0,0.0,0.0,0.0,0.0,0.0,0.0,0.0,0.0,0.0,0.0,0.0,0.0,0.0,0.0,0.0,0.0,0.0,0.0,0.0,0.0,0.0,0.0,0.0,0.0,0.0,0.0,0.0,0.0,0.0,0.0,0.0,0.0,0.0,0.0,0.0,0.0,0.0,0.0,0.0,0.0,0.0,0.0,0.0,0.0,0.0,0.0,0.0,0.0,0.0,0.0,0.0,0.0,0.0,0.0,0.0,0.0,0.0,0.0,0.0,0.0,0.0,0.0,0.0,0.0,0.0,0.0,0.0,0.0,0.0,0.0,0.0,0.0,0.0,0.0,0.0,0.0,5.7629,5.8002,5.8002,5.8002,5.8002,5.8002,5.8002,5.8002,5.8002,5.8002,0.0,0.0,0.0,0.0,0.0,0.0,0.0,0.0,0.0,0.0,0.0,0.0,0.0,0.0,0.0,0.0,0.0,0.0,0.0,0.0,0.0,0.0,0.0,0.0,0.0,0.0,0.0,0.0,0.0,0.0,0.0,0.0,0.0,0.0,0.0,0.0,0.0,0.0,0.0,0.0,0.0,0.0,0.0,0.0,0.0,0.0,0.0,0.0,0.0,0.0,0.0,0.0,0.0,0.0,0.0,0.0,0.0,0.0,0.0,0.0,0.0,0.0,0.0,0.0,0.0,0.0,0.0,0.0,0.0,0.0,0.0,0.0,0.0,0.0,0.0,0.0,0.0,0.0,0.0,0.0,0.0,0.0,0.0,0.0,0.0,0.0,0.0,0.0,0.0,0.0,0.0,0.0,0.0,0.0,0.0,0.0,0.0,0.0,0.0,0.0,0.0,0.0,5.7966,5.8002,5.8002,5.8002,5.8002,5.8002,5.8002,5.8002,5.8002,5.8002,0.0,0.0,0.0,0.0,0.0,0.0,0.0,0.0,0.0,0.0,0.0,0.0,0.0,0.0,0.0,0.0,0.0,0.0,0.0,0.0,0.0,0.0,0.0,0.0,0.0,0.0,0.0,0.0,0.0,0.0,0.0,0.0,0.0,0.0,0.0,0.0,0.0,0.0,0.0,0.0,0.0,0.0,0.0,0.0,0.0,0.0,0.0,0.0,0.0,0.0,0.0,0.0,0.0,0.0,0.0,0.0,0.0,0.0,0.0,0.0,0.0,0.0,0.0,0.0,0.0,0.0,0.0,0.0,0.0,0.0,0.0,0.0,0.0,0.0,0.0,0.0,0.0,0.0,0.0,0.0,0.0,0.0,0.0,0.0,0.0,0.0,0.0,0.0,0.0,0.0,0.0,0.0,0.0,0.0,0.0,0.0,0.0,0.0,0.0,0.0,0.0,0.0,5.8762,5.8939,0.0,5.9501,5.9501,5.9501,5.9501,5.9501,5.9501,0.0,0.0,0.0,0.0,0.0,0.0,0.0,0.0,0.0,0.0,0.0,0.0,0.0,0.0,0.0,0.0,0.0,0.0,0.0,0.0,0.0,0.0,0.0,0.0,0.0,0.0,0.0,0.0,0.0,0.0,0.0,0.0,0.0,0.0,0.0,0.0,0.0,0.0,0.0,0.0,0.0,0.0,0.0,0.0,0.0,0.0,0.0,0.0,0.0,0.0,0.0,0.0,0.0,0.0,0.0,0.0,0.0,0.0,0.0,0.0,0.0,0.0,0.0,0.0,0.0,0.0,0.0,0.0,0.0,0.0,0.0,0.0,0.0,0.0,0.0,0.0,0.0,0.0,0.0,0.0,0.0,0.0,0.0,0.0,0.0,0.0,0.0,0.0,0.0,0.0,0.0,0.0,0.0,0.0,0.0,0.0,0.0,0.0,0.0,0.0,0.0,0.0,5.949,5.96,5.9783,0.0,6.0413,6.0413,6.0413,6.0413,6.0413,6.0413,0.0,0.0,0.0,0.0,0.0,0.0,0.0,0.0,0.0,0.0,0.0,0.0,0.0,0.0,0.0,0.0,0.0,0.0,0.0,0.0,0.0,0.0,0.0,0.0,0.0,0.0,0.0,0.0,0.0,0.0,0.0,0.0,0.0,0.0,0.0,0.0,0.0,0.0,0.0,0.0,0.0,0.0,0.0,0.0,0.0,0.0,0.0,0.0,0.0,0.0,0.0,0.0,0.0,0.0,0.0,0.0,0.0,0.0,0.0,0.0,0.0,0.0,0.0,0.0,0.0,0.0,0.0,0.0,0.0,0.0,0.0,0.0,0.0,0.0,0.0,0.0,0.0,0.0,0.0,0.0,0.0,0.0,0.0,0.0,0.0,0.0,0.0,0.0,0.0,0.0,0.0,0.0,0.0,0.0,0.0,0.0,0.0,0.0,0.0,0.0,0.0,0.0,6.0303,6.0413,6.0413,6.0413,6.0413,6.0413,6.0413,6.0413,6.0413,0.0,0.0,0.0,0.0,0.0,0.0,0.0,0.0,0.0,0.0,0.0,0.0,0.0,0.0,0.0,0.0,0.0,0.0,0.0,0.0,0.0,0.0,0.0,0.0,0.0,0.0,0.0,0.0,0.0,0.0,0.0,0.0,0.0,0.0,0.0,0.0,0.0,0.0,0.0,0.0,0.0,0.0,0.0,0.0,0.0,0.0,0.0,0.0,0.0,0.0,0.0,0.0,0.0,0.0,0.0,0.0,0.0,0.0,0.0,0.0,0.0,0.0,0.0,0.0,0.0,0.0,0.0,0.0,0.0,0.0,0.0,0.0,0.0,0.0,0.0,0.0,0.0,0.0,0.0,0.0,0.0,0.0,0.0,0.0,0.0,0.0,0.0,0.0,0.0,0.0,0.0,0.0,0.0,0.0,0.0,0.0,0.0,0.0,0.0,0.0,0.0,0.0,0.0,6.1153,6.1269,6.1447,6.2022,6.2095,6.2095,6.2095,6.2095,6.2095,6.2095,0.0,0.0,0.0,0.0,0.0,0.0,0.0,0.0,0.0,0.0,0.0,0.0,0.0,0.0,0.0,0.0,0.0,0.0,0.0,0.0,0.0,0.0,0.0,0.0,0.0,0.0,0.0,0.0,0.0,0.0,0.0,0.0,0.0,0.0,0.0,0.0,0.0,0.0,0.0,0.0,0.0,0.0,0.0,0.0,0.0,0.0,0.0,0.0,0.0,0.0,0.0,0.0,0.0,0.0,0.0,0.0,0.0,0.0,0.0,0.0,0.0,0.0,0.0,0.0,0.0,0.0,0.0,0.0,0.0,0.0,0.0,0.0,0.0,0.0,0.0,0.0,0.0,0.0,0.0,0.0,0.0,0.0,0.0,0.0,0.0,0.0,0.0,0.0,0.0,0.0,0.0,0.0,0.0,0.0,0.0,0.0,0.0,0.0,0.0,0.0,0.0,0.0,6.1998,6.2071,6.2248,6.2756,6.2793,6.2793,6.2793,6.2793,6.2768,6.2724,0.0,0.0,0.0,0.0,0.0,0.0,0.0,0.0,0.0,0.0,0.0,0.0,0.0,0.0,0.0,0.0,0.0,0.0,0.0,0.0,0.0,0.0,0.0,0.0,0.0,0.0,0.0,0.0,0.0,0.0,0.0,0.0,0.0,0.0,0.0,0.0,0.0,0.0,0.0,0.0,0.0,0.0,0.0,0.0,0.0,0.0,0.0,0.0,0.0,0.0,0.0,0.0,0.0,0.0,0.0,0.0,0.0,0.0,0.0,0.0,0.0,0.0,0.0,0.0,0.0,0.0,0.0,0.0,0.0,0.0,0.0,0.0,0.0,0.0,0.0,0.0,0.0,0.0,0.0,0.0,0.0,0.0,0.0,0.0,0.0,0.0,0.0,0.0,0.0,0.0,0.0,0.0,0.0,0.0,0.0,0.0,0.0,0.0,0.0,0.0,0.0,0.0,6.2719,6.2793,6.2793,6.2793,6.2793,6.2793,6.2793,6.278,6.2724,6.261,0.0,0.0,0.0,0.0,0.0,0.0,0.0,0.0,0.0,0.0,0.0,0.0,0.0,0.0,0.0,0.0,0.0,0.0,0.0,0.0,0.0,0.0,0.0,0.0,0.0,0.0,0.0,0.0,0.0,0.0,0.0,0.0,0.0,0.0,0.0,0.0,0.0,0.0,0.0,0.0,0.0,0.0,0.0,0.0,0.0,0.0,0.0,0.0,0.0,0.0,0.0,0.0,0.0,0.0,0.0,0.0,0.0,0.0,0.0,0.0,5.3204,0.0,0.0,0.0,0.0,0.0,0.0,0.0,0.0,0.0,0.0,0.0,0.0,0.0,0.0,0.0,0.0,0.0,0.0,0.0,0.0,0.0,0.0,0.0,0.0,0.0,0.0,0.0,0.0,0.0,0.0,0.0,0.0,0.0,0.0,0.0,0.0,0.0,0.0,0.0,0.0,0.0,6.2793,6.2793,6.2793,6.2793,6.2793,6.2793,6.2793,6.2705,6.2635,6.2603,0.0,0.0,0.0,0.0,0.0,0.0,0.0,0.0,0.0,0.0,0.0,0.0,0.0,0.0,0.0,0.0,0.0,0.0,0.0,0.0,0.0,0.0,0.0,0.0,0.0,0.0,0.0,0.0,0.0,0.0,0.0,0.0,0.0,0.0,0.0,0.0,0.0,0.0,0.0,0.0,0.0,0.0,0.0,0.0,0.0,0.0,0.0,0.0,0.0,0.0,0.0,0.0,0.0,0.0,0.0,0.0,0.0,0.0,0.0,0.0,0.0,5.4502,0.0,0.0,0.0,0.0,0.0,0.0,0.0,0.0,0.0,0.0,0.0,0.0,0.0,0.0,0.0,0.0,0.0,0.0,0.0,0.0,0.0,0.0,0.0,0.0,0.0,0.0,0.0,0.0,0.0,0.0,0.0,0.0,0.0,0.0,0.0,0.0,0.0,0.0,0.0,0.0,6.2705,6.2705,6.2705,6.2705,6.2755,6.2768,6.2705,6.2641,6.2552,6.2416,6.239,0.0,0.0,0.0,0.0,0.0,0.0,0.0,0.0,0.0,0.0,0.0,0.0,0.0,0.0,0.0,0.0,0.0,0.0,0.0,0.0,0.0,0.0,0.0,0.0,0.0,0.0,0.0,0.0,0.0,0.0,0.0,0.0,0.0,0.0,0.0,0.0,0.0,0.0,0.0,0.0,0.0,0.0,0.0,0.0,0.0,0.0,0.0,0.0,0.0,0.0,0.0,0.0,0.0,0.0,0.0,5.5299,5.5444,5.5848,5.6398,5.5921,5.5552,5.5299,0.0,0.0,0.0,0.0,0.0,0.0,0.0,0.0,0.0,0.0,0.0,0.0,0.0,0.0,0.0,0.0,0.0,0.0,0.0,0.0,0.0,0.0,0.0,0.0,0.0,5.9958,5.9804,0.0,0.0,0.0,0.0,0.0,0.0,0.0,0.0,0.0,0.0,0.0,0.0,6.2571,6.2571,6.2571,6.2571,6.266,6.2679,6.2578,6.2546,6.2436,6.2199,6.2295,6.2272,0.0,0.0,0.0,0.0,0.0,0.0,0.0,0.0,0.0,0.0,0.0,0.0,0.0,0.0,0.0,0.0,0.0,0.0,0.0,0.0,0.0,0.0,0.0,0.0,0.0,0.0,0.0,0.0,0.0,0.0,0.0,0.0,4.9811,4.9919,0.0,0.0,0.0,0.0,0.0,0.0,0.0,0.0,0.0,0.0,0.0,0.0,0.0,0.0,5.49,5.5528,5.5854,5.5854,5.6579,5.6905,5.6935,5.7623,5.7985,5.813,5.8703,0.0,5.6905,5.6905,0.0,0.0,0.0,0.0,0.0,0.0,0.0,0.0,0.0,0.0,0.0,0.0,0.0,0.0,0.0,0.0,0.0,0.0,0.0,0.0,0.0,0.0,5.9496,5.9618,6.0155,6.0649,0.0,6.0236,6.0196,6.0921,0.0,0.0,0.0,0.0,0.0,0.0,0.0,0.0,6.2429,6.2446,6.2446,6.2446,6.2429,6.2466,6.2446,6.2305,6.2225,6.2192,6.2107,6.21,6.2185,6.2205,0.0,0.0,0.0,0.0,0.0,0.0,0.0,0.0,0.0,0.0,0.0,0.0,0.0,0.0,0.0,0.0,0.0,0.0,0.0,0.0,0.0,0.0,0.0,0.0,0.0,0.0,0.0,0.0,0.0,4.9878,5.0287,5.0716,5.1182,5.1761,0.0,0.0,0.0,0.0,0.0,0.0,0.0,0.0,0.0,5.5528,5.5957,5.6428,5.6862,5.7188,5.7587,5.8021,5.8383,5.8565,5.8558,5.8927,5.9065,5.9101,5.9463,5.921,5.8565,5.8565,5.8565,5.8565,0.0,0.0,0.0,0.0,0.0,0.0,0.0,0.0,0.0,0.0,0.0,0.0,0.0,0.0,0.0,0.0,0.0,0.0,0.0,0.0,0.0,6.0833,6.1231,6.1485,6.1485,6.1289,6.1257,0.0,6.1769,6.1924,6.2382,0.0,0.0,0.0,0.0,0.0,6.2315,6.2272,6.2272,6.2272,6.2374,6.2387,6.2278,6.2219,6.2181,6.21,6.2026,6.2019,6.2094,6.2175,6.2245,0.0,0.0,0.0,0.0,0.0,0.0,0.0,0.0,0.0,0.0,0.0,0.0,0.0,0.0,0.0,0.0,0.0,0.0,0.0,0.0,0.0,0.0,0.0,0.0,0.0,0.0,0.0,0.0,5.0753,5.1254,5.1834,5.2631,5.3349,0.0,0.0,0.0,0.0,0.0,0.0,5.577,5.6319,5.6724,5.6905,5.7514,5.8094,5.8703,5.8703,5.8999,5.9608,5.9608,5.9608,5.9608,5.9826,5.9898,5.9934,6.0109,6.0217,6.0188,5.9753,5.9608,5.9608,5.9608,0.0,0.0,0.0,5.9608,5.9608,5.9608,5.9608,0.0,5.9608,0.0,5.9898,5.9898,0.0,0.0,0.0,0.0,6.0369,6.0942,0.0,6.1267,6.1847,6.1985,6.1985,6.1985,6.1985,6.2026,0.0,6.2161,6.2208,6.2341,0.0,0.0,0.0,0.0,6.2208,6.2168,6.2161,6.2161,6.2161,6.2248,6.2268,6.2175,6.2161,6.2114,6.1998,6.1985,6.1985,6.1985,6.21,6.2145,6.2185,0.0,0.0,0.0,0.0,0.0,0.0,0.0,0.0,0.0,0.0,0.0,0.0,0.0,0.0,0.0,0.0,0.0,0.0,0.0,0.0,0.0,0.0,0.0,0.0,0.0,0.0,0.0,0.0,0.0,5.3566,5.4285,0.0,0.0,0.0,0.0,5.5891,5.5927,5.6615,5.8124,5.8275,5.8631,5.9391,5.9463,5.95,5.9536,5.9536,5.9572,5.9608,5.9608,5.9608,5.9645,6.0398,6.0724,6.076,6.1557,6.1883,6.1774,6.0224,5.9608,5.9608,5.9608,5.9608,5.9608,5.9608,5.9608,5.9608,5.9608,5.9608,5.9608,5.9608,6.0109,6.0724,6.0724,6.1267,0.0,0.0,6.1883,6.1883,6.1919,6.1955,6.1949,6.1985,6.1985,6.1985,6.1985,6.1985,6.1992,0.0,6.1998,0.0,6.2208,0.0,0.0,6.2199,6.2192,6.2168,6.2019,6.1998,6.1998,6.1998,6.2005,6.2005,6.1998,6.1998,6.1998,6.1985,6.1985,6.1985,6.1985,6.1998,6.2073,6.2185,6.2192,0.0,0.0,0.0,0.0,0.0,0.0,0.0,0.0,0.0,0.0,0.0,0.0,0.0,0.0,0.0,0.0,0.0,0.0,0.0,0.0,0.0,0.0,0.0,0.0,0.0,0.0,0.0,0.0,5.4466,5.5124,0.0,0.0,5.6066,5.6717,5.7478,5.755,5.8021,5.9101,5.9174,5.9111,5.8969,5.9373,5.9639,5.9722,6.0181,6.0616,6.1123,6.1123,6.1123,6.1159,6.1448,6.1557,6.1593,6.1883,6.1985,6.1955,6.1376,6.1123,6.1123,6.1123,6.1123,6.1123,6.1123,6.1123,6.1123,6.1123,6.1123,6.1123,6.1123,6.134,6.1557,6.1557,6.1768,6.1985,6.1985,6.1985,6.1985,6.1985,6.1985,6.1985,6.1985,6.1985,6.1985,6.1985,6.1985,6.1985,6.1985,6.1985,6.2005,6.206,6.2073,6.2073,6.2073,6.2073,6.2053,6.1998,6.1985,6.1985,6.1985,6.1985,6.1985,6.1985,6.1985,6.1985,6.1985,6.1985,6.1985,6.1985,6.1985,6.2012,6.2073,6.2073,6.2094,0.0,0.0,0.0,0.0,0.0,0.0,0.0,0.0,0.0,0.0,0.0,0.0,0.0,0.0,0.0,0.0,0.0,0.0,0.0,0.0,0.0,0.0,0.0,0.0,0.0,0.0,5.5269,5.5269,5.5963,5.6575,5.6777,5.7117,5.7734,5.8713,5.8406,5.8593,5.9626,5.944,5.9252,5.9087,5.9723,6.0002,5.9875,6.0533,6.1124,6.1664,6.1664,6.1769,6.1985,6.1985,6.1985,6.1985,6.1985,6.1985,6.1985,6.1985,6.1985,6.1985,6.1985,6.1985,6.1985,6.1985,6.1985,6.1985,6.1985,6.1985,6.1985,6.1985,6.1985,6.1985,6.1985,6.1985,6.1985,6.1985,6.1985,6.1985,6.1985,6.1985,6.1985,6.1985,6.1985,6.1985,6.1985,6.1985,6.1985,6.1985,6.1985,6.1985,6.1985,6.1985,6.21,6.2361,6.2397,6.2505,6.2759,6.2795,6.2795,6.2795,6.2795,6.2795,6.2795,6.2795,6.268,6.2433,6.2397,6.2288,6.2028,6.1985,6.1985,6.1985,6.1985,6.1985,6.1985,0.0,0.0,0.0,0.0,0.0,0.0,0.0,0.0,0.0,0.0,0.0,0.0,0.0,0.0,0.0,0.0,0.0,0.0,0.0,0.0,0.0,0.0,0.0,5.4972,5.5601,5.6072,5.6072,5.6879,5.7683,5.8362,5.7917,5.8152,5.9496,5.8378,5.8285,5.9721,5.9188,5.9197,5.9958,6.0605,6.0636,5.9966,6.062,6.0994,6.1008,6.0994,6.1329,6.1964,6.1964,6.1964,6.1964,6.1978,6.1985,6.1985,6.1985,6.1985,6.1985,6.1985,6.1985,6.1985,6.1985,6.1985,6.1985,6.1985,6.1985,6.1985,6.1985,6.1985,6.1985,6.1985,6.1985,6.1985,6.1985,6.1985,6.1985,6.1985,6.1985,6.1985,6.1985,6.1985,6.2028,6.2028,6.2028,6.2021,6.2057,6.2057,6.2064,6.2028,6.2064,6.2354,6.3135,6.3251,0.0,6.4294,6.4403,6.4403,6.4403,6.4403,6.4403,6.4403,6.4403,6.4077,6.3287,6.3251,6.2881,6.2064,6.2028,6.2028,6.1985,6.1985,6.1985,6.1985,0.0,0.0,0.0,0.0,0.0,0.0,0.0,0.0,0.0,0.0,0.0,0.0,0.0,0.0,0.0,0.0,0.0,0.0,0.0,0.0,0.0,0.0,5.6557,5.5816,5.6869,5.7732,5.7732,5.8064,5.8513,5.923,5.8244,5.8212,5.9652,5.8956,5.8882,5.9882,5.9753,5.9531,5.9196,5.991,5.9942,5.9222,5.9926,6.0514,6.1001,6.0498,6.0613,6.1257,6.1257,6.1257,6.1315,6.1776,6.1985,6.1985,6.1985,6.1985,6.1985,6.1985,6.1985,6.1985,6.1985,6.1985,6.1985,6.1985,6.1985,6.1985,6.1985,6.1985,6.1985,6.1985,6.1985,6.1985,6.1985,6.1985,6.1985,6.1985,6.1985,6.1985,6.1985,6.1985,6.2173,6.273,6.2881,6.3019,6.3635,6.3744,6.3563,6.299,6.3345,6.3816,6.4041,0.0,0.0,6.4367,6.4403,6.4403,6.4403,6.4403,6.4403,6.4403,6.4403,6.4294,0.0,6.4077,6.3715,6.2918,6.2881,6.2585,6.2028,6.1985,6.1985,0.0,0.0,0.0,0.0,0.0,0.0,0.0,0.0,0.0,0.0,0.0,0.0,0.0,0.0,0.0,0.0,0.0,0.0,0.0,0.0,0.0,0.0,5.6716,5.7023,5.6718,5.7705,5.8478,5.8478,5.8335,5.8604,5.9589,5.8484,5.8349,5.976,5.8964,5.8746,5.9502,5.9264,5.8909,5.8502,5.918,5.9336,5.8955,5.9657,6.0398,6.1067,6.0696,6.0868,6.1494,6.1814,6.1791,0.0,6.2566,6.2637,6.2113,6.2421,6.2377,0.0,0.0,0.0,0.0,0.0,6.1985,6.1985,6.1985,6.1985,6.1985,6.1985,6.1985,6.1985,6.1985,6.1985,6.1985,6.1985,6.2245,6.2505,6.2505,6.2759,6.3012,6.3012,6.3012,6.3121,6.3606,6.3466,6.3379,6.3847,0.0,0.0,6.3811,6.4116,6.4511,6.4837,6.491,6.5011,0.0,6.541,6.541,6.541,6.541,6.541,6.541,6.541,0.0,0.0,0.0,6.4548,6.3758,0.0,0.0,0.0,0.0,6.1985,0.0,0.0,0.0,0.0,6.1863,6.1826,0.0,0.0,0.0,0.0,0.0,0.0,0.0,0.0,0.0,0.0,0.0,0.0,0.0,0.0,0.0,0.0,5.6699,5.6934,5.7518,5.8187,5.8621,5.8616,5.815,5.8372,5.9701,5.8665,5.8466,5.9774,5.8642,5.8164,5.8763,0.0,0.0,0.0,0.0,5.9041,5.9124,5.9767,6.0459,6.1193,6.1113,6.1414,6.2125,6.2764,6.2708,6.2149,6.3547,6.3418,6.2232,6.29,6.2748,6.2035,6.139,6.15,6.203,6.203,6.2079,0.0,0.0,0.0,0.0,6.2254,6.2148,6.2044,6.2114,6.2086,6.2044,6.2114,6.2655,6.3211,6.3211,6.3753,6.4238,6.4166,6.4152,6.421,6.4354,6.3811,6.3352,6.3537,6.4068,6.4555,6.4626,6.4643,6.491,6.5627,6.5736,0.0,6.6714,6.6779,6.6779,6.6779,0.0,0.0,6.6779,6.6779,6.6496,6.5772,6.5663,6.5265,6.4548,6.3758,6.3359,6.3359,6.2542,6.2136,6.2136,6.2028,6.1985,6.1985,6.1985,6.1985,0.0,0.0,0.0,0.0,0.0,0.0,0.0,0.0,0.0,0.0,0.0,0.0,0.0,0.0,0.0,5.7285,5.7498,5.7589,5.7664,5.8357,5.8816,5.878,5.8702,5.9004,5.9882,5.8694,5.8244,5.9062,5.8343,5.7963,5.8074,5.8539,0.0,5.8786,5.9476,5.9858,5.9877,6.0028,6.0485,6.1193,0.0,0.0,6.1414,6.1554,6.1545,6.1458,6.2283,6.2446,6.219,6.2331,6.2016,6.1441,6.1808,6.2056,6.216,6.216,6.2553,6.3057,6.3057,6.3057,6.3148,6.3754,6.3112,6.2272,6.2862,6.2646,0.0,6.287,6.3165,6.328,0.0,6.3387,6.3357,6.2772,6.2643,6.2973,6.4209,6.3897,6.3757,6.4987,6.4888,6.4762,6.5379,6.595,6.6388,6.6533,6.6569,6.6634,6.6786,6.6779,6.6779,6.6779,6.6779,6.6779,6.6779,6.6779,6.675,6.6569,6.5953,6.5518,6.5374,6.4584,6.4185,6.4185,6.3389,6.2954,6.2954,6.2317,6.1985,6.1985,6.1985,6.1985,0.0,0.0,0.0,0.0,0.0,0.0,0.0,0.0,0.0,0.0,0.0,5.6942,0.0,0.0,5.7152,5.7195,5.7578,5.7841,5.7797,5.8165,5.8522,5.8818,5.8591,5.8694,5.9389,5.8502,5.8054,5.837,5.8439,5.8457,5.8457,5.9167,5.9564,5.9564,5.9902,6.0283,6.0689,6.0689,6.1253,6.2347,6.199,6.2179,6.2903,6.3283,6.3246,6.296,6.405,6.4059,6.3379,6.3379,6.3199,6.2931,6.3274,6.2693,6.1735,6.2092,6.2413,6.2748,6.2748,6.2748,6.2812,6.3167,6.2812,6.2257,6.2643,6.2505,6.2292,6.2652,6.3039,6.3366,6.3366,6.3649,6.3956,6.3941,6.3961,6.4266,6.5388,6.5076,6.4774,6.5558,6.5397,6.5267,6.5649,6.6327,6.6817,6.6817,6.6817,6.6817,6.6817,6.6817,6.6817,6.6817,6.6485,6.638,6.6782,6.6802,6.6779,6.6779,6.6424,6.6207,6.6207,6.5446,6.5019,6.5019,6.4222,6.3787,6.3787,6.2983,6.2585,6.2578,6.2173,6.1985,0.0,0.0,0.0,0.0,0.0,0.0,0.0,0.0,5.7049,5.6454,5.6934,5.7273,5.6725,5.7226,5.7586,5.7091,5.7518,5.7891,5.7891,5.7891,5.8092,5.8633,5.8235,5.811,5.8642,5.8354,5.8118,5.8118,5.8786,5.9216,5.9216,5.9945,6.0317,6.0317,6.0622,6.1052,6.1728,6.1873,6.254,6.3714,6.3714,6.4028,6.4634,6.5211,6.5152,6.4661,6.5862,6.569,6.4613,6.4613,6.4613,6.4613,6.4613,6.3475,6.1892,6.2309,6.2552,6.2637,6.2505,6.2436,6.2496,6.278,6.2697,6.2518,6.2804,6.2778,6.2692,6.2839,6.3353,6.386,6.386,6.4323,6.4926,6.5369,6.5507,6.5674,6.642,6.6022,6.5527,6.5681,6.5585,6.5548,6.5685,6.6201,6.6634,6.6784,6.6794,6.6794,6.6794,6.6794,6.6794,6.6794,6.6268,6.6231,6.6974,6.6877,6.6862,6.7025,6.6887,6.6779,6.6779,6.617,6.5844,6.5844,6.5048,6.462,6.462,6.3823,6.3425,6.3432,6.2759,6.2317,5.1252,5.183,5.26,5.3255,5.4154,5.4823,0.0,0.0,5.6289,5.5885,5.6385,5.6877,5.6797,5.7364,5.7846,5.7807,5.7857,5.7891,5.7891,5.7891,5.7927,5.8018,5.7945,5.7927,5.8018,5.8546,5.8887,5.8887,5.9564,5.9979,5.9979,6.0723,6.1163,6.1163,6.2439,6.3139,6.325,6.3893,6.4309,6.4478,6.4478,6.4512,6.4613,6.4681,6.4671,6.4624,6.4772,6.4752,6.4613,6.4613,6.4613,6.4613,6.4613,6.4427,6.4145,6.358,6.377,6.4254,6.3572,6.3355,6.3577,6.4883,6.4415,6.3611,6.4891,6.4854,6.4458,6.5116,6.535,6.5428,6.5428,6.5497,6.542,6.4872,6.4727,6.4926,6.5646,6.5241,6.4909,6.5566,6.5162,6.4925,6.5579,6.5753,6.6033,6.67,6.6794,6.6794,6.6794,6.6794,6.6794,6.6794,6.6732,6.7015,6.7801,6.7212,6.7095,6.7828,6.7221,6.6779,6.6779,6.6714,6.6677,6.6677,6.5881,6.5489,6.5446,6.4656,6.4258,6.4258,6.4185,6.3382,5.1927,5.2213,5.2644,5.3388,5.4177,5.4814,5.4907,5.5969,5.6833,5.6423,5.6934,5.7451,5.7451,5.7688,5.7891,0.0,5.7891,5.7891,5.7891,5.7891,5.7891,5.7891,5.8287,5.8549,5.8549,5.8819,5.9182,5.9597,6.0341,6.0791,6.0791,6.1931,6.2574,6.2574,6.3589,6.413,6.413,6.4444,6.4816,6.5233,6.5233,6.5459,6.5889,6.5889,6.5889,6.5889,6.5889,6.5889,6.5889,6.5889,6.5889,6.5889,6.5889,6.5889,6.5719,6.4569,6.4327,6.4556,6.4249,6.4137,6.423,6.4852,6.4639,6.4268,6.4866,6.4818,6.4651,6.4968,6.5068,6.5068,6.5068,6.5068,6.5081,6.5213,6.5233,6.5426,6.617,6.6113,6.5958,6.6283,6.6092,6.599,6.6305,6.6339,6.6432,6.6744,6.6809,6.6809,6.6809,6.6809,6.6647,6.621,6.6946,6.7266,6.6703,6.7167,6.7634,6.7968,6.723,6.7014,6.7488,6.704,6.6779,6.6779,6.646,6.6315,6.6315,6.5482,6.5091,6.5084,6.462,6.4041,5.2681,5.2858,5.3238,5.3892,5.4605,5.5217,5.5666,5.6661,5.7375,5.7132,5.7518,5.7891,5.7891,5.7891,5.7891,5.7891,5.7891,5.7891,5.7891,5.7891,5.7992,5.8186,5.8684,5.9158,5.9588,5.9622,5.9868,6.0385,6.1366,6.1897,6.1897,6.3115,6.3781,6.3781,6.4512,6.4884,6.4884,6.5121,6.5459,6.6011,6.6011,6.6271,6.6802,6.6802,6.6802,6.6802,6.6802,6.6802,6.6802,6.6802,6.6802,6.6802,6.6802,6.6802,6.6667,6.5584,6.5087,6.4884,6.4681,6.4613,6.4647,6.485,6.4884,6.4952,6.5155,6.5222,6.5222,6.5222,6.5222,6.5222,6.5222,6.5222,6.5358,6.5876,6.6011,6.6136,6.6667,6.6802,6.6802,6.6802,6.6802,6.6802,6.6802,6.6971,6.7106,6.7106,6.7106,6.7039,6.6836,6.6802,6.6599,6.6068,6.6991,6.7301,6.6393,6.7159,6.777,6.7976,6.7458,6.7374,6.7994,6.7666,6.7366,6.7141,6.7141,6.7032,6.6779,6.6207,6.5917,6.5917,6.5337,6.5048,5.3349,5.4025,5.4783,5.4992,5.5615,5.6261,5.6667,5.7204,5.7646,5.7829,5.7891,5.7891,5.7891,5.7891,5.7891,5.7891,5.7891,5.7891,5.7891,5.7891,5.8161,5.8887,5.8989,5.9597,0.0,6.1231,6.1221,6.1255,6.2608,6.3443,6.3443,6.4164,6.458,6.458,6.5266,6.5672,6.5672,6.6373,6.6724,6.6768,6.6768,6.6768,6.6802,6.6802,6.6802,6.6802,6.6802,6.6802,6.6802,6.6802,6.6802,6.6802,6.6802,6.6802,6.6791,6.6768,6.6271,6.5571,6.485,6.4613,6.4715,6.5436,6.5672,6.5808,6.6531,6.6734,6.6734,6.6734,6.6734,6.6734,6.6734,6.6734,6.6734,6.6768,6.6768,6.6768,6.6802,6.6802,6.6802,6.6802,6.6802,6.6802,6.6802,6.7377,6.7861,6.7861,6.7861,6.7624,6.6903,6.6802,6.6802,6.6768,6.681,6.7117,6.7857,6.7246,6.7153,6.7943,6.797,6.7983,6.8,6.8728,6.8749,6.7974,6.7974,6.7575,6.6779,6.6786,6.675,6.675,6.675,6.675,5.4011,5.4356,5.4728,5.5291,5.5633,5.6045,5.6932,5.7281,5.7504,5.7827,5.7891,5.7891,5.7891,5.7891,5.7891,5.7891,5.7891,5.7891,5.7891,5.8321,5.8718,5.8979,5.9902,0.0,0.0,0.0,0.0,6.2675,6.3217,6.3714,6.4197,6.4918,6.5334,6.5334,6.6034,6.644,6.644,6.6667,6.7039,6.7557,6.8064,6.8335,6.8335,6.8335,6.8335,6.8335,6.8335,6.8335,6.8335,6.8335,6.8335,6.8335,6.8335,6.8335,6.8335,6.8335,6.8166,6.776,6.6497,6.6058,6.6092,6.6328,6.644,6.6474,6.6734,6.6802,6.6802,6.6802,6.6802,6.6802,6.6802,6.7174,6.7523,6.7523,6.7952,6.8335,6.8335,6.8335,6.8335,6.8335,6.8335,6.8335,6.8335,6.8098,6.7726,6.7242,6.759,6.7624,6.6903,6.6802,6.6802,6.6802,6.7298,6.7488,6.7236,6.745,6.7723,6.796,6.7487,6.7682,6.8743,6.8543,6.8538,6.8778,6.8786,6.8641,6.8387,6.8387,6.8387,6.8387,6.8387,6.8387,5.4764,5.5071,5.5431,5.5961,5.6113,5.6326,5.7217,5.7411,5.7504,5.7827,5.7891,5.7891,5.7891,5.7891,5.7891,5.7891,5.8127,5.8287,5.8287,5.893,5.9496,5.98,6.0714,6.1501,0.0,0.0,0.0,6.3443,6.3994,6.4478,6.4952,6.5696,6.6102,6.6102,6.6531,6.6937,6.7174,6.7174,6.758,6.8335,6.8842,6.9113,6.9113,6.9113,6.9113,6.9113,6.9113,6.9113,6.9113,6.9113,6.9113,6.9113,6.9113,6.9113,6.9113,6.9113,6.9113,6.8977,6.7952,6.7614,6.7614,6.7614,6.7614,6.7614,6.7614,6.7614,6.7614,6.7614,6.7614,6.7614,6.7614,6.7952,6.8335,6.8335,6.8707,6.9113,6.9113,6.8876,6.8673,6.8673,6.847,6.829,6.829,6.8064,6.7726,6.7242,6.759,6.7624,6.6903,6.6802,6.6802,6.6802,6.7277,6.7346,6.6844,6.7254,6.7569,6.7569,6.7359,6.7689,6.8734,6.8826,6.8964,6.9189,6.9467,6.9489,6.9199,6.9199,6.9199,6.9199,6.9199,6.9199,5.5658,5.6173,5.6747,5.6939,5.6977,5.7091,5.7495,5.7578,5.7643,5.7854,5.7891,5.7891,0.0,0.0,5.7891,5.7891,5.8524,5.9013,5.9013,5.9665,6.0452,0.0,0.0,0.0,0.0,0.0,0.0,6.3612,0.0,6.5706,6.574,6.643,6.6836,6.6869,6.6869,6.7208,6.7963,6.7996,6.8402,6.9147,6.9169,6.9214,6.9214,6.9214,6.9214,6.9214,6.9214,6.9214,6.9214,6.9214,6.9214,6.9214,6.9214,6.9214,6.9214,6.9214,6.9214,6.9214,6.9214,6.918,6.9113,6.9113,6.9113,6.9113,6.9113,6.9113,6.9113,6.9113,6.9113,6.9113,6.9113,6.9113,6.9113,6.9113,6.9113,6.9113,6.9113,6.8504,6.7963,6.7963,6.7411,6.6903,6.6869,6.7444,6.7895,6.7861,6.7827,6.759,6.6903,6.6802,6.6802,6.6802,6.6802,6.6802,6.6802,6.6802,6.6802,6.6802,6.7519,6.7945,6.7995,6.9465,6.9946,6.9265,7.0001,7.003,6.9308,6.9308,6.9308,6.9308,6.9308,6.9308,5.6282,5.6557,5.6709,5.6757,5.6776,5.6882,5.728,5.7383,5.7476,5.7827,5.7891,5.7891,5.7891,5.7891,0.0,5.7891,5.8524,0.0,5.9013,6.0139,0.0,6.1298,0.0,6.3071,6.3443,6.4478,0.0,0.0,6.5503,6.5943,6.6508,6.67,6.7039,6.759,6.7624,6.7996,6.8808,6.936,6.9733,6.9936,7.05,7.0725,7.0725,7.0725,7.0725,7.0725,7.0725,7.0725,7.0725,7.0725,7.0725,7.0725,7.0725,7.0725,7.0725,7.0725,7.0725,7.0725,7.0725,7.0015,6.9113,6.9113,6.9113,6.9113,6.9113,6.9113,6.9113,6.9113,6.9113,6.9113,6.9113,6.9113,6.9113,6.9113,6.9113,6.9113,6.9113,6.8944,6.8808,6.8808,6.8639,6.8324,6.7726,6.7793,6.7726,6.7174,6.7072,6.7005,6.6836,6.6802,6.6802,6.6802,6.6802,6.6802,6.6802,6.6802,6.6802,6.6802,6.6977,6.7366,6.7975,6.838,6.9067,7.0077,7.0316,7.0556,7.0915,7.0915,7.0915,7.0915,7.0915,7.0915,5.659,5.669,5.669,5.669,5.6767,5.6891,5.712,5.7242,5.7392,5.7698,5.7763,5.7799,5.7872,5.7827,5.7799,0.0,0.0,0.0,5.9487,6.0825,6.1772,0.0,6.2811,0.0,6.3961,6.5019,6.5842,0.0,6.617,6.6373,6.6768,6.7106,6.7478,6.7895,6.8233,6.8808,6.9586,7.0297,7.0669,7.0703,7.1097,7.13,7.13,7.13,7.13,7.13,0.0,7.13,7.13,7.13,7.13,7.13,7.13,7.1097,7.0804,7.0804,7.059,7.0319,7.0319,6.9778,6.9214,6.9846,7.0049,7.0026,6.9688,6.9586,6.9519,6.918,6.9113,6.9113,6.9113,6.9113,6.9113,6.9113,6.9113,6.9113,6.9113,6.8808,6.847,6.8155,6.8087,6.7952,6.7489,6.7411,6.7275,6.6869,6.6802,6.6802,6.6802,6.6802,6.6802,6.6802,6.6802,6.6802,6.6802,6.6802,6.6802,6.6802,6.6802,6.6988,6.7448,6.8162,6.879,6.9337,7.0052,7.0583,7.1017,7.1017,7.1163,7.1487,7.1487,7.1487,5.669,5.669,5.669,5.669,5.6844,5.6996,5.6996,5.7158,5.7364,5.756,5.7578,5.7634,5.7854,5.7735,5.7695,5.7989,5.9061,5.9958,6.0221,6.1511,6.2424,6.2526,6.3193,6.3927,6.4681,6.5402,6.6102,6.6768,6.6903,6.6937,6.6937,6.7658,6.8098,6.8199,6.8977,6.9654,7.0206,7.0838,7.1097,7.0996,7.0996,7.0996,7.0996,7.0996,7.0996,7.0996,0.0,0.0,7.0996,7.0996,7.0996,7.0996,7.0996,7.0635,7.0037,7.0037,6.9654,6.9113,6.9113,6.9113,6.9316,7.059,7.0996,7.0894,7.024,7.0037,6.9936,6.9282,6.9113,6.9113,6.9113,6.9011,6.8944,6.8944,6.8876,6.8797,6.8797,6.8267,6.7546,6.6937,6.6802,6.6802,6.6802,6.6802,6.6802,6.6802,6.6802,6.6802,6.6802,6.6802,6.6802,6.6802,6.6802,6.6802,6.6802,6.6802,6.6802,6.6802,6.6802,6.6802,6.6802,6.8137,6.861,6.8005,6.9474,7.0294,7.0388,7.0518,7.0878,7.1487,7.1487,7.1487,5.669,5.669,5.669,5.669,5.6844,5.6996,5.6996,5.7158,5.7364,5.756,5.7467,5.7467,5.7827,5.7735,5.7864,5.869,5.9511,6.0279,6.0984,6.1839,6.2627,6.325,6.3961,6.4681,6.5436,6.617,0.0,0.0,0.0,0.0,6.7726,6.847,6.918,6.9766,7.0534,7.0703,7.0206,7.0342,7.006,6.9474,6.9474,6.9474,6.9474,6.9474,6.9474,6.9474,0.0,0.0,6.9474,6.9474,6.9474,6.9474,6.9474,6.9417,6.9282,6.9282,6.9214,6.9113,6.9113,6.9113,6.9147,6.9417,6.9474,6.9451,6.9316,6.9282,6.9248,6.9147,6.9113,6.9113,6.9113,6.8605,6.8098,6.8098,6.7647,6.7208,6.7208,6.7106,6.6937,6.6836,6.6802,6.6802,6.6802,6.6802,6.6802,6.6802,6.6802,6.6802,6.6802,6.6802,6.6802,6.6802,6.6802,6.6802,6.6802,6.6802,6.6802,6.6802,6.6802,6.6802,6.6802,6.7071,6.7468,6.7985,6.894,6.9734,7.0388,7.1009,7.1376,7.1487,7.1487,7.1487,5.669,5.669,5.669,5.669,5.6844,5.6968,5.6863,5.7082,5.7336,5.743,5.7374,5.742,5.7827,5.7946,5.8238,5.8899,5.9884,6.0743,6.1211,6.1941,6.2661,6.3419,6.4164,6.4884,6.5639,6.6373,0.0,0.0,0.0,0.0,6.7929,6.8673,6.9451,7.0172,7.0161,6.9992,6.962,6.962,6.9451,6.9113,6.9113,6.9113,6.9113,6.9113,6.9113,6.9113,0.0,0.0,0.0,6.9113,6.9113,6.9113,6.9113,6.8842,6.847,6.847,6.8233,6.7884,6.7884,6.8155,6.847,6.847,6.8774,6.9011,6.8605,6.847,6.847,6.847,6.847,6.8571,6.8977,6.8808,6.8504,6.8504,6.8256,6.7986,6.7986,6.7986,6.7986,6.7986,6.7986,6.7986,6.7986,6.7658,6.7377,6.7377,6.7039,6.6802,6.6802,6.6802,6.6802,6.6802,6.6802,6.6802,6.6802,6.6802,6.6802,6.6802,6.6802,6.6802,6.6802,6.7205,6.7397,6.7366,6.8181,6.8978,6.9778,7.0129,7.0717,7.1487,7.1487,7.1487,5.669,5.669,5.669,5.669,5.6844,5.6949,5.6747,5.7015,5.7289,5.7242,5.7242,5.7364,5.7763,5.8137,5.8586,5.9126,6.0242,6.1138,6.1414,6.1989,6.2709,6.3562,6.4211,6.4952,6.5842,6.6474,0.0,0.0,0.0,0.0,0.0,6.8977,6.953,6.9936,6.9383,6.9011,6.8842,6.8842,6.8774,6.8605,6.8605,6.8605,6.8605,6.8605,6.8605,6.8605,0.0,0.0,0.0,6.8605,6.8605,6.8605,6.8605,6.8222,6.7692,6.7827,6.7523,6.7072,6.7242,6.7681,6.8166,6.8166,6.8571,6.8977,6.8335,6.8166,6.8166,6.8166,6.8166,6.8301,6.8944,6.9113,6.9113,6.9113,6.9113,6.9113,6.9113,6.9113,6.9113,6.9113,6.9113,6.9113,6.9113,6.8571,6.8166,6.8166,6.7512,6.7039,6.7039,6.6903,6.6802,6.6802,6.6802,6.6802,6.6802,6.6802,6.6802,6.6802,6.6802,6.6802,6.6802,6.7397,6.7438,6.6812,6.76,6.8293,6.8924,6.9301,7.0077,7.128,7.1423,7.1487,5.669,5.669,5.669,5.669,5.6844,5.6949,5.6747,5.7015,5.7252,5.7072,5.7034,5.7148,5.7551,5.8043,5.8763,5.9811,6.0704,6.1448,6.1854,6.2205,6.2862,6.4065,6.4434,6.5144,6.6565,6.6768,0.0,0.0,0.0,0.0,0.0,7.0071,6.9834,6.9214,6.9147,6.8741,6.803,6.7996,6.7658,6.7005,6.7005,6.7005,6.7005,6.7005,6.7005,6.7005,0.0,0.0,0.0,6.7005,6.7005,6.7005,6.7005,6.6971,6.6971,6.7658,6.7861,6.7895,6.8639,6.8944,6.8977,6.8977,6.9045,6.9079,6.9011,6.8977,6.8977,6.8977,6.8977,6.9011,6.9079,6.9113,6.9113,6.9113,6.9113,6.9113,6.9113,6.9113,6.9113,6.9113,6.9113,6.9113,6.9113,6.9045,6.8977,6.8977,6.8301,6.7793,6.7793,6.7208,6.6802,6.6802,6.6802,6.6802,6.6802,6.6802,6.6802,6.6802,6.6802,6.6802,6.6802,6.6875,6.6886,6.6802,6.76,6.8034,6.8123,6.9573,7.0354,7.0507,7.1207,7.1487,5.669,5.669,5.669,5.669,5.6757,5.6796,5.6709,5.7015,5.7242,5.7044,5.7195,5.7374,5.7411,5.8422,5.9372,5.9847,6.1052,6.2023,6.2205,6.2594,6.3215,6.4356,6.4855,6.5517,0.0,0.0,0.0,0.0,0.0,0.0,0.0,6.8819,6.8673,6.8402,6.7963,6.7546,6.7242,6.7242,6.7106,6.6802,6.6802,6.6802,6.6802,6.6802,6.6802,0.0,0.0,0.0,0.0,6.6802,6.6802,6.6836,6.7275,6.7455,6.7557,6.8335,6.8605,6.8673,6.8977,6.9383,6.9766,6.9766,7.006,7.0252,6.9383,6.9113,6.918,6.9631,6.9766,6.9857,7.0319,7.0421,7.0421,7.0421,7.0421,7.0421,7.0421,7.0421,7.0421,7.0421,7.0421,7.0421,7.0421,7.006,6.9766,6.9766,6.9113,6.8605,6.8605,6.7929,6.7455,6.7455,6.7072,6.6802,6.6802,6.6802,6.6802,6.6802,6.6802,6.6802,6.6802,6.6802,6.6802,6.6802,6.7112,6.7519,6.7995,6.8638,6.9456,7.0397,7.0711,7.1066,5.669,5.669,5.669,5.669,5.669,5.669,5.669,5.6968,5.7158,5.6949,5.7186,5.7383,5.7242,5.859,5.9698,5.9722,6.1235,6.2341,6.2223,6.277,6.3532,6.441,6.5091,6.5834,0.0,0.0,0.0,0.0,0.0,0.0,0.0,0.0,6.7557,6.7557,6.7072,6.6802,6.6802,6.6802,6.6802,6.6802,6.6802,6.6802,6.6802,6.6802,6.6802,0.0,0.0,0.0,0.0,6.7039,6.714,6.7208,6.7963,6.8267,6.8335,6.9147,6.9417,6.9451,6.9688,7.0094,7.0567,7.0781,7.121,7.147,7.0635,7.0094,6.988,7.0646,7.0962,7.1154,7.1592,7.1715,7.1715,7.1715,7.1715,7.1715,7.1715,7.1715,7.1715,7.1704,7.1772,7.1762,7.1559,7.1154,7.0781,7.0578,6.9891,6.9417,6.9417,6.8741,6.8166,6.7929,6.7444,6.7039,6.6836,6.6802,6.6802,6.6802,6.6802,6.6802,6.6802,6.6802,6.6802,6.6802,6.6802,6.7071,6.766,6.7876,6.8572,6.9689,6.992,7.0448,5.669,5.669,5.669,5.669,5.669,5.669,5.669,5.6853,5.6949,5.6738,5.6863,5.7006,5.7006,5.838,5.9509,5.949,6.1127,6.2243,6.176,6.2744,6.3711,6.4246,6.5143,6.6,6.6734,0.0,0.0,0.0,0.0,0.0,0.0,0.0,6.6791,6.6791,6.6802,6.6802,6.6802,6.6802,6.6802,6.6802,6.6802,6.6802,6.6802,6.6802,0.0,0.0,0.0,0.0,0.0,6.759,6.7895,6.7963,6.8774,6.9079,6.918,6.9936,7.0172,7.0308,7.103,7.13,7.1402,7.2157,7.2394,7.2529,7.3251,7.2428,7.1436,7.2157,7.2717,7.2999,7.2749,7.2701,7.2692,7.2689,7.2701,7.2692,7.2692,7.2692,7.2692,7.2689,7.2903,7.2856,7.2126,7.2211,7.2124,7.1402,7.0669,7.0172,7.0172,6.9553,6.8774,6.7996,6.7895,6.759,6.6869,6.6802,6.6802,6.6802,6.6802,6.6802,6.6802,6.6802,6.6802,6.6802,6.6802,6.6802,6.6812,6.762,6.8005,6.8044,6.8856,6.9645,5.669,5.669,5.669,5.669,5.669,5.669,5.669,5.6853,5.6939,5.6738,5.7082,5.728,5.6863,5.8504,5.979,5.9376,6.1039,6.2243,6.176,6.2907,6.3841,6.4,6.5331,6.6599,0.0,0.0,0.0,0.0,0.0,0.0,0.0,0.0,6.6802,6.6802,6.6802,6.6802,6.6802,6.6802,6.6802,6.6802,6.6802,6.6802,6.6802,0.0,0.0,0.0,0.0,0.0,0.0,6.8639,6.8707,6.8808,6.9563,6.9868,6.9936,7.0669,7.0962,7.1064,7.1819,7.2056,7.2191,7.2913,7.315,7.3149,7.32,7.2906,7.2534,7.2594,7.269,7.282,7.2725,7.2713,7.2713,7.2701,7.2713,7.268,7.268,7.268,7.2713,7.2711,7.2761,7.2824,7.2742,7.2398,7.2109,7.2056,7.1402,7.0962,7.0962,7.0297,6.9766,6.9496,6.8538,6.759,6.6869,6.6802,6.6802,6.6802,6.6802,6.6802,6.6802,6.6802,6.6802,6.6802,6.6802,6.6802,6.6802,6.705,6.7458,6.8014,6.8837,6.9636,5.669,5.669,5.669,5.669,5.669,5.669,5.669,5.6796,5.6844,5.6719,5.6996,5.7234,5.7228,5.8628,5.9736,5.9621,6.1029,6.2024,6.1628,6.2909,6.4099,6.4656,6.6032,0.0,0.0,0.0,0.0,0.0,0.0,0.0,0.0,0.0,6.6709,6.6709,6.6749,6.6802,6.6802,6.6802,6.6937,6.7208,6.7208,6.7377,6.7681,0.0,0.0,0.0,0.0,0.0,0.0,6.9383,6.9519,6.9586,7.0331,7.0601,7.0703,7.1436,7.1706,7.1808,7.2563,7.28,7.2935,7.368,7.4016,7.4111,7.3754,7.3505,7.3294,7.3043,7.3171,7.3393,7.3296,7.3271,7.3271,7.3271,7.3271,7.3271,7.3271,7.3271,7.3271,7.328,7.3366,7.3353,7.3242,7.2783,7.2386,7.229,7.1717,7.1267,7.1165,7.085,7.0466,7.0084,6.9272,6.847,6.7715,6.714,6.6802,6.6802,6.6802,6.6802,6.6802,6.6802,6.6802,6.6802,6.6802,6.6802,6.6802,6.6802,6.705,6.7569,6.837,6.9024,0.0,5.669,5.669,5.669,5.669,5.669,5.669,5.669,0.0,5.669,5.6709,5.6999,5.7904,5.8719,5.9461,6.0151,6.11,6.1651,6.147,6.2883,6.4479,0.0,6.694,0.0,0.0,0.0,0.0,0.0,0.0,0.0,0.0,0.0,0.0,6.6563,6.68,6.6916,6.6869,6.6937,6.7309,6.7996,6.7996,6.8368,6.9113,0.0,0.0,0.0,0.0,0.0,0.0,7.0003,7.0274,7.0342,7.103,7.1334,7.147,7.2157,7.2428,7.2563,7.3319,7.359,7.3691,7.4434,7.4954,7.5192,7.4734,7.4233,7.3788,7.3544,7.4015,7.4498,7.4259,7.4196,7.4196,7.4196,7.4196,7.4196,7.4196,7.4196,7.4196,7.4196,7.4385,7.4348,7.3594,7.3294,7.2865,7.2171,7.1626,7.1199,7.0905,7.1109,7.0906,6.9962,7.004,6.9914,6.9248,6.7749,6.6869,6.6869,6.6836,6.6802,6.6802,6.6802,6.6802,6.6802,6.6802,6.6802,6.6802,6.6802,6.6802,6.6823,6.7569,6.7935,5.669,0.0,5.669,5.669,5.669,5.669,0.0,5.669,5.669,5.669,5.6815,5.7124,5.7739,5.8738,5.957,5.9992,6.0988,6.1768,6.1972,6.3323,0.0,6.5746,6.6579,0.0,0.0,0.0,0.0,0.0,0.0,0.0,0.0,0.0,0.0,6.7348,6.793,6.8039,6.7658,6.8256,6.8639,6.8808,6.8808,6.891,0.0,0.0,0.0,0.0,0.0,0.0,0.0,7.0962,7.103,7.1064,7.1233,7.1639,7.2157,7.2326,7.2778,7.3353,7.4086,7.4345,7.4423,7.4952,7.5106,7.5018,7.4718,7.4522,7.4343,7.4094,7.4152,7.4272,7.4209,7.4196,7.4196,7.4196,7.4196,7.4196,7.4196,7.4196,7.4196,7.4196,7.4247,7.4314,7.4315,7.3772,7.3138,7.2605,7.1972,7.1313,7.0663,7.0631,7.0689,7.0658,7.0187,6.9905,6.9958,6.8538,6.7658,6.7658,6.7106,6.6802,6.6802,6.6802,6.6802,6.6802,6.6802,6.6802,6.6802,6.6802,6.6802,6.6802,6.6977,6.7397,5.669,5.669,5.669,5.669,5.669,5.669,5.669,5.669,5.669,5.669,5.7042,5.7584,5.8319,5.9149,5.9921,6.0531,6.1078,6.1721,6.2563,6.3691,6.4696,6.5537,6.6379,0.0,0.0,0.0,0.0,0.0,0.0,0.0,0.0,0.0,0.0,0.0,6.8707,6.8973,6.847,6.8876,6.9282,6.9586,6.9586,6.9789,0.0,0.0,0.0,0.0,0.0,0.0,7.13,7.13,7.13,7.1334,7.1672,7.2056,7.2496,7.3172,7.3646,7.4119,7.4864,7.5006,7.4942,7.5094,7.5018,7.4759,7.4485,7.441,7.4372,7.4234,7.4196,7.4196,7.4196,7.4196,7.4196,7.4196,7.4196,7.4196,7.4196,7.4196,7.4196,7.4196,7.4196,7.4247,7.4385,7.3865,7.321,7.2655,7.2016,7.1316,7.0487,7.0434,7.055,7.0722,7.0466,7.04,7.068,6.962,6.8808,6.847,6.7726,6.7309,6.7309,6.6971,6.6802,6.6802,6.6802,6.6802,6.6802,6.6802,6.6802,6.6802,6.6802,6.7019,5.669,5.669,5.669,5.669,5.669,5.669,5.669,5.669,5.669,5.669,5.7286,5.8064,5.8996,5.9617,6.0286,6.1212,6.141,6.1881,6.3128,6.4012,6.4774,6.5315,0.0,0.0,0.0,0.0,0.0,0.0,0.0,0.0,0.0,0.0,0.0,0.0,6.9289,6.9727,6.9385,6.9429,6.9755,7.0375,7.0375,7.0703,7.13,0.0,0.0,0.0,0.0,0.0,7.13,7.13,7.13,7.1368,7.2124,7.2462,7.2732,7.4108,7.4659,7.4781,7.5399,7.5446,7.5216,7.5018,7.4805,7.4568,7.4272,7.4196,7.4196,7.4196,7.4196,7.4196,7.4196,7.4196,7.4196,7.4196,7.4196,7.4196,7.4196,7.4196,7.4196,7.4196,7.4196,7.4196,7.4196,7.3808,7.3233,7.2468,7.1949,7.1308,7.0286,7.0305,7.0399,7.0446,7.0699,7.0939,7.1222,7.0714,7.0094,6.9485,6.8571,6.8098,6.8098,6.7478,6.714,6.714,6.714,6.714,6.714,6.714,6.714,6.714,6.714,6.714,5.669,5.669,5.669,5.669,5.669,5.669,5.669,5.669,5.669,5.669,5.7286,5.8015,5.8807,5.9516,6.0268,6.1028,0.0,6.3029,0.0,0.0,6.5282,0.0,0.0,0.0,0.0,0.0,0.0,0.0,0.0,0.0,0.0,0.0,0.0,0.0,0.0,7.0475,7.0613,7.0861,7.103,7.1131,7.1131,7.1199,7.13,7.13,0.0,0.0,0.0,0.0,7.13,7.13,7.13,7.1368,7.2124,7.2766,7.3421,7.4289,7.4845,7.5169,7.5109,7.5079,7.5005,7.4734,7.461,7.4568,7.4272,7.4196,7.4196,7.4196,7.4196,7.4196,7.4196,7.4196,7.4196,7.4196,7.4196,7.4196,7.4196,7.4196,7.4196,7.4196,7.4196,7.4196,7.4196,7.4135,7.3617,7.2266,7.2004,7.1452,7.0035,6.9893,7.0,7.0211,7.0444,7.0687,7.0939,7.1075,7.1097,7.0962,6.9677,6.891,6.891,6.8808,6.8741,6.8741,6.8741,6.8741,6.8741,6.8741,6.8741,6.8741,6.8741,6.8741,5.669,5.669,5.669,5.669,5.669,5.669,5.669,5.7021,5.7286,5.7286,5.8214,5.9098,5.9429,6.0092,6.0854,6.156,0.0,6.3426,0.0,0.0,0.0,0.0,0.0,0.0,0.0,0.0,0.0,0.0,0.0,0.0,0.0,0.0,0.0,0.0,0.0,0.0,7.0665,7.0939,7.1165,7.13,7.13,7.13,7.13,7.13,7.13,0.0,0.0,7.13,7.13,7.13,7.13,7.1402,7.2563,7.3218,7.3612,7.4597,7.5068,7.5106,7.503,7.4895,7.4746,7.4656,7.4485,7.4347,7.4234,7.4196,7.4196,7.4196,7.4196,7.4196,7.4196,7.4196,7.4196,7.4196,7.4196,7.4196,7.4196,7.4196,7.4196,7.4196,7.4196,7.4196,7.4196,7.4196,7.3699,7.2216,7.2018,7.1455,7.0009,6.981,6.9905,7.0153,7.0281,7.0444,7.0642,7.0927,7.0996,7.0725,7.006,6.9519,6.9113,6.9113,6.9113,6.9113,6.9113,6.9113,6.9113,6.9113,6.9113,6.9113,6.9113,6.9113,5.669,5.669,5.669,5.669,5.669,5.6756,5.6922,5.7385,5.7849,5.8015,5.9098,5.9993,5.9993,6.0612,0.0,6.2078,6.2807,0.0,0.0,0.0,0.0,0.0,0.0,0.0,0.0,0.0,0.0,0.0,0.0,0.0,0.0,0.0,0.0,0.0,0.0,0.0,7.0492,7.0779,7.1018,7.13,7.13,7.13,7.13,7.13,7.13,7.13,7.13,7.13,7.13,7.13,7.1402,7.1672,7.2981,7.3656,7.4036,7.4921,7.5103,7.4895,7.4833,7.4672,7.4531,7.4531,7.436,7.4196,7.4196,7.4196,7.4196,7.4196,7.4196,7.4196,7.4196,7.4196,7.4196,7.4196,7.4196,7.4196,7.4196,7.4196,7.4196,7.4196,7.4196,7.4196,7.4196,7.4196,7.3699,7.2216,7.2018,7.1455,7.0009,6.981,6.9881,7.007,7.02,7.0386,7.0642,7.0882,7.0839,7.0489,7.0477,7.0195,6.9643,6.962,6.962,6.962,6.962,6.962,6.962,6.962,6.962,6.962,6.962,6.962,5.669,5.669,5.669,5.669,5.669,5.6898,5.7551,5.775,5.7982,5.8668,5.9463,5.9993,5.9993,6.0612,6.1351,6.2078,6.2807,0.0,0.0,0.0,0.0,0.0,0.0,0.0,0.0,0.0,0.0,0.0,0.0,0.0,0.0,0.0,0.0,0.0,0.0,0.0,7.0492,7.0779,7.1018,7.13,7.13,7.13,7.13,7.13,7.13,7.13,7.13,7.13,7.13,7.13,7.1706,7.2394,7.3184,7.4182,7.5178,7.5082,7.4845,7.4573,7.4335,7.4247,7.4221,7.4221,7.4209,7.4196,7.4196,7.4196,7.4196,7.4196,7.4196,7.4196,7.4196,7.4196,7.4196,7.4196,7.4196,7.4196,7.4196,7.4196,7.4196,7.4196,7.4196,7.4196,7.4196,7.4196,7.3699,7.2216,7.2018,7.1455,7.0009,6.981,6.981,6.9834,7.0201,7.0699,7.121,7.1255,7.1244,7.1233,7.1233,7.1199,7.1131,7.1131,7.1131,7.1131,7.1131,7.1131,7.1131,7.1131,7.1131,7.1131,7.1131,7.1131,5.669,5.669,5.6822,5.7253,5.7385,5.7452,5.775,5.8138,5.8701,5.9429,6.0181,0.0,0.0,0.0,6.2034,6.2764,0.0,0.0,0.0,0.0,0.0,0.0,0.0,0.0,0.0,0.0,0.0,0.0,0.0,0.0,0.0,0.0,0.0,0.0,0.0,0.0,0.0,7.0596,7.0802,7.1041,7.1222,7.13,7.1289,7.1143,7.1154,7.1289,7.1109,7.1154,7.13,7.13,7.174,7.2518,7.355,7.4416,7.5091,7.4833,7.4573,7.4335,7.4234,7.4196,7.4196,7.4196,7.4196,7.4196,7.4196,7.4196,7.4196,7.4196,7.4196,7.4196,7.4196,7.4196,7.4196,7.4196,7.4196,7.4196,7.4196,7.4196,7.4196,7.4196,7.4196,7.4196,7.4196,7.4196,7.3699,7.2216,7.2018,7.1455,7.0009,6.981,6.9869,7.0023,7.0306,7.0631,7.1007,7.1041,7.1131,7.1289,7.13,7.13,7.13,7.13,7.13,7.13,7.13,7.13,7.13,7.13,7.13,7.13,7.13,7.13,5.669,5.6855,5.7153,5.7684,5.7982,5.8214,5.8436,5.8866,5.9463,6.0191,6.0744,6.1109,6.1109,0.0,0.0,0.0,0.0,0.0,0.0,0.0,0.0,0.0,0.0,0.0,0.0,0.0,0.0,0.0,0.0,0.0,0.0,0.0,0.0,0.0,0.0,0.0,0.0,7.0573,7.0767,7.1018,7.1222,7.1255,7.1176,7.1052,7.1064,7.1176,7.1086,7.1143,7.13,7.13,7.183,7.2752,7.3967,7.4622,7.4845,7.4681,7.4423,7.4196,7.4196,7.4196,7.4196,7.4196,7.4196,7.4196,7.4196,7.4196,7.4196,7.4196,7.4196,7.4196,7.4196,7.4196,7.4196,7.4196,7.4196,7.4196,7.4196,7.4196,7.4196,7.4196,7.4196,7.4196,7.4196,7.3997,7.3421,7.2183,7.1786,7.1189,6.9976,6.981,6.9929,7.0258,7.0469,7.0744,7.0996,7.1018,7.1086,7.1289,7.13,7.13,7.13,7.13,7.13,7.13,7.13,7.13,7.13,7.13,7.13,7.13,7.13,7.13,5.6723,5.7253,5.7816,5.7816,5.8379,5.9098,5.9827,6.0026,6.0225,6.0943,6.1109,6.1109,6.1109,0.0,0.0,0.0,0.0,0.0,0.0,0.0,0.0,0.0,0.0,0.0,0.0,0.0,0.0,0.0,0.0,0.0,0.0,0.0,0.0,0.0,0.0,0.0,0.0,7.0767,7.1018,7.1289,7.13,7.1165,7.0916,7.1188,7.1165,7.0916,7.1188,7.13,7.13,7.1289,7.2032,7.3225,7.4509,7.4821,7.4618,7.4618,7.4423,7.4196,7.4196,7.4196,7.4196,7.4196,7.4196,7.4196,7.4196,7.4196,7.4196,7.4196,7.4196,7.4196,7.4196,7.4196,7.4196,7.4196,7.4196,7.4196,7.4196,7.4196,7.4196,7.4196,7.4196,7.4196,7.4196,7.3587,7.2833,7.2117,7.1355,7.0626,6.9898,6.981,6.9966,7.0446,7.0756,7.1007,7.1267,7.13,7.13,7.13,7.13,7.13,7.13,7.13,7.13,7.13,7.13,7.13,7.13,7.13,7.13,7.13,7.13,7.13,5.7319,5.7617,5.8048,5.9098,5.9496,5.986,6.0612,6.038,6.0225,6.0943,6.1109,6.1251,6.1759,0.0,0.0,0.0,0.0,0.0,0.0,0.0,0.0,0.0,0.0,0.0,0.0,0.0,0.0,0.0,0.0,0.0,0.0,0.0,0.0,0.0,0.0,0.0,0.0,0.0,7.0642,7.0756,7.1131,7.1255,7.1188,7.1086,7.1064,7.1188,7.1086,7.1143,7.1391,7.2222,7.278,7.3213,7.4302,7.4681,7.4593,7.4372,7.4259,7.4196,7.4196,7.4196,7.4196,7.4196,7.4196,7.4196,7.4196,7.4196,7.4196,7.4196,7.4196,7.4196,7.4196,7.4196,7.4196,7.4196,7.4196,7.4196,7.4196,7.4196,7.4196,7.4196,7.4196,7.4196,7.4196,7.3587,7.2833,7.2117,7.1355,7.0626,6.9898,7.0106,7.0283,7.0293,7.0813,7.1154,7.1018,7.1199,7.13,7.13,7.13,7.13,7.13,7.13,7.13,7.13,7.13,7.13,7.13,7.13,7.13,7.13,7.13,7.13,5.7584,5.8005,5.8502,5.9694,6.0225,6.0545,6.1009,6.0744,6.0545,0.0,6.1318,6.1659,6.2101,0.0,0.0,0.0,0.0,0.0,0.0,0.0,0.0,0.0,0.0,0.0,0.0,0.0,0.0,0.0,0.0,0.0,0.0,0.0,0.0,0.0,0.0,0.0,0.0,0.0,0.0,7.0654,7.1075,7.13,7.1289,7.1143,7.1109,7.1143,7.0961,7.0984,7.1199,7.2032,7.2562,7.2916,7.3673,7.419,7.441,7.4259,7.4196,7.4196,7.4196,7.4196,7.4196,7.4196,7.4196,7.4196,7.4196,7.4196,7.4196,7.4196,7.4196,7.4196,7.4196,7.4196,7.4196,7.4196,7.4196,7.4196,7.4196,7.4196,7.4196,7.4196,7.4196,7.4196,7.4196,7.3355,7.2502,7.2084,7.1123,7.0295,6.9876,7.0153,7.034,7.02,7.0664,7.095,7.0905,7.103,7.1199,7.1289,7.13,7.13,7.13,7.13,7.13,7.13,7.13,7.13,7.13,7.13,7.13,7.13,7.13,7.13,5.7783,5.8502,5.9164,5.9926,6.0612,6.1109,6.1109,6.1109,6.1109,6.1109,0.0,6.2211,6.2277,0.0,0.0,0.0,0.0,0.0,0.0,0.0,0.0,0.0,0.0,0.0,0.0,0.0,0.0,0.0,0.0,0.0,0.0,0.0,0.0,0.0,0.0,0.0,0.0,0.0,0.0,0.0,7.112,7.1244,7.1267,7.1289,7.1165,7.0905,7.0905,7.0893,7.0903,7.1165,7.173,7.2471,7.2899,7.3541,7.4196,7.4196,7.4196,7.4196,7.4196,7.4196,7.4196,7.4196,7.4196,7.4196,7.4196,7.4196,7.4196,7.4196,7.4196,7.4196,7.4196,7.4196,7.4196,7.4196,7.4196,7.4196,7.4196,7.4196,7.4196,7.4196,7.4196,7.4196,7.4196,7.2991,7.1951,7.1819,7.0659,6.981,6.981,7.0023,7.0176,7.0153,7.0386,7.0596,7.0848,7.0893,7.1007,7.1278,7.13,7.13,7.13,7.13,7.13,7.13,7.13,7.13,7.13,7.13,7.13,7.13,7.13,7.13,5.9164,5.9628,5.9926,6.0678,6.0976,6.1109,6.1109,6.1109,6.1109,6.1109,6.1693,6.2376,0.0,0.0,0.0,0.0,0.0,0.0,0.0,0.0,0.0,0.0,0.0,0.0,0.0,0.0,0.0,0.0,0.0,0.0,0.0,0.0,0.0,0.0,0.0,0.0,6.9893,7.0188,7.034,0.0,7.0583,7.079,7.0984,7.121,7.1165,7.0905,7.0905,7.079,7.0617,7.1094,7.173,7.2471,7.2899,7.3541,7.4196,7.4196,7.4196,7.4196,7.4196,7.4196,7.4196,7.4196,7.4196,7.4196,7.4196,7.4196,7.4196,7.4196,7.4196,7.4196,7.4196,7.4196,7.4196,7.4196,7.4196,7.4196,7.4196,7.4196,7.4196,7.4196,7.4196,7.4196,7.4196,7.2991,7.162,7.0461,6.9997,6.981,6.981,7.0023,7.0106,6.9905,7.0236,7.0515,7.0573,7.079,7.1007,7.1278,7.13,7.13,7.13,7.13,7.13,7.13,7.13,7.13,7.13,7.13,7.13,7.13,7.13,7.13,5.9694,5.9993,6.0191,6.091,6.1109,6.1109,6.1109,6.1109,6.1218,6.155,6.22,6.2962,0.0,0.0,0.0,0.0,0.0,0.0,0.0,0.0,0.0,0.0,0.0,0.0,0.0,0.0,0.0,0.0,0.0,0.0,0.0,0.0,0.0,0.0,0.0,0.0,6.981,7.0059,7.0188,7.0188,7.0388,7.0561,7.0733,7.0984,7.095,7.0722,7.0606,7.0491,7.0385,7.0526,7.1217,7.2234,7.2498,7.3256,7.4196,7.4196,7.4196,7.4196,7.4196,7.4196,7.4196,7.4196,7.4196,7.4196,7.4196,7.4196,7.4196,7.4196,7.4196,7.4196,7.4196,7.4196,7.4196,7.4196,7.4196,7.4196,7.4196,7.4196,7.4196,7.4196,7.4196,7.4097,7.372,7.2448,7.109,6.9964,6.981,6.981,6.981,6.9917,6.9952,6.9822,7.0002,7.0235,7.0363,7.0479,7.071,7.1109,7.112,7.1176,7.1289,7.13,7.13,7.13,7.13,7.13,7.13,7.13,7.13,7.13,7.13,7.13,5.9993,6.0191,6.0357,6.0943,6.1109,6.1109,6.1109,6.1218,6.1483,6.2233,6.2874,0.0,0.0,0.0,0.0,0.0,0.0,0.0,0.0,0.0,0.0,0.0,0.0,0.0,0.0,0.0,0.0,0.0,0.0,0.0,0.0,0.0,6.981,0.0,0.0,6.981,6.981,7.0011,7.0117,7.0117,7.0363,7.0411,7.0388,7.0664,7.0664,7.0434,7.027,7.0153,7.0106,6.9893,7.0659,7.2018,7.2018,7.2891,7.4196,7.4196,7.4196,7.4196,7.4196,7.4196,7.4196,7.4196,7.4196,7.4196,7.4196,7.4196,7.4196,7.4196,7.4196,7.4196,7.4196,7.4196,7.4196,7.4196,7.4196,7.4196,7.4196,7.4196,7.4196,7.4196,7.4097,7.3799,7.3045,7.1786,7.0659,6.9909,6.981,6.981,6.981,6.981,6.981,6.981,6.981,6.9905,7.0164,7.0188,7.0375,7.0813,7.0836,7.0927,7.1165,7.121,7.1233,7.1233,7.1278,7.13,7.13,7.13,7.13,7.13,7.13,7.13,6.0744,6.0943,6.0976,6.1075,6.1109,6.1109,6.1109,6.1593,6.2266,0.0,6.3227,0.0,0.0,0.0,0.0,0.0,0.0,0.0,0.0,0.0,0.0,0.0,0.0,0.0,0.0,0.0,0.0,0.0,0.0,0.0,0.0,6.8991,6.981,6.981,6.981,0.0,6.981,6.9834,6.9858,6.9858,7.0117,7.0117,6.9905,7.0164,7.0258,7.0235,7.02,7.0059,6.9858,6.9822,7.0659,7.2018,7.2018,7.2891,7.4196,7.4196,7.4196,7.4196,7.4196,7.4196,7.4196,7.4196,7.4196,7.4196,7.4196,7.4196,7.4196,7.4196,7.4196,7.4196,7.4196,7.4196,7.4196,7.4196,7.4196,7.4196,7.4196,7.4196,7.4196,7.4196,7.3687,7.3011,7.2283,7.1455,7.0659,6.9909,6.981,6.981,6.981,6.981,6.981,6.981,6.981,6.9905,7.0164,7.0188,7.0293,7.0527,7.055,7.0561,7.0596,7.0836,7.095,7.095,7.1188,7.13,7.13,7.13,7.13,7.13,7.13,7.13,6.1009,6.1109,6.1109,6.1109,6.1109,6.1109,6.1109,6.1659,6.241,6.3139,0.0,0.0,0.0,0.0,0.0,0.0,0.0,0.0,0.0,0.0,0.0,0.0,0.0,0.0,0.0,0.0,0.0,0.0,0.0,0.0,6.8208,6.9202,6.981,6.981,6.981,0.0,6.981,6.981,6.981,6.981,6.9917,6.9917,6.981,6.9917,6.9976,6.9976,6.9976,6.9905,6.981,6.981,7.0659,7.2018,7.2018,7.2891,7.4196,7.4196,7.4196,7.4196,7.4196,7.4196,7.4196,7.4196,7.4196,7.4196,7.4196,7.4196,7.4196,7.4196,7.4196,7.4196,7.4196,7.4196,7.4196,7.4196,7.4196,7.4196,7.4196,7.4196,7.4196,7.4196,7.3256,7.2382,7.2051,7.1057,7.0163,6.9843,6.981,6.981,6.981,6.981,6.981,6.981,6.981,6.9846,6.9964,6.9976,7.0082,7.0328,7.034,7.0398,7.0492,7.0608,7.0756,7.0905,7.1176,7.13,7.13,7.13,7.13,7.13,7.13,7.13,6.1109,6.1109,6.1109,6.1109,6.1109,6.1109,6.1109,6.1825,6.2642,0.0,0.0,0.0,0.0,0.0,0.0,0.0,0.0,0.0,0.0,0.0,0.0,0.0,0.0,0.0,0.0,0.0,0.0,0.0,0.0,0.0,6.865,6.9412,6.981,6.981,6.981,6.981,6.981,6.9869,6.9905,6.9905,6.9964,6.9929,6.981,6.9869,6.9869,6.981,6.981,6.981,6.981,6.981,7.0659,7.2018,7.2018,7.2891,7.4196,7.4196,7.4196,7.4196,7.4196,7.4196,7.4196,7.4196,7.4196,7.4196,7.4196,7.4196,7.4196,7.4196,7.4196,7.4196,7.4196,7.4196,7.4196,7.4196,7.4196,7.4196,7.4196,7.4196,7.413,7.3964,7.2879,7.1951,7.1753,7.0659,6.981,6.981,6.981,6.981,6.981,6.981,6.981,6.981,6.981,6.981,6.981,6.981,6.9893,7.0082,7.0094,7.0164,7.0306,7.0376,7.0537,7.0722,7.1052,7.1233,7.13,7.13,7.13,7.13,7.13,7.13,6.1109,6.1109,6.1109,6.1109,6.1109,6.1109,6.1109,6.2223,6.3261,6.3294,0.0,0.0,0.0,0.0,0.0,0.0,0.0,0.0,0.0,0.0,0.0,0.0,0.0,0.0,0.0,0.0,0.0,0.0,0.0,0.0,6.865,6.9412,6.981,6.981,6.981,6.981,6.981,7.0047,7.0164,7.0164,7.0353,7.0225,6.981,7.0047,7.0035,6.981,6.981,6.981,6.981,6.981,7.0659,7.2018,7.2018,7.2891,7.4196,7.4196,7.4196,7.4196,7.4196,7.4196,7.4196,7.4196,7.4196,7.4196,7.4196,7.4196,7.4196,7.4196,7.4196,7.4196,7.4196,7.4196,7.4196,7.4196,7.4196,7.4196,7.4196,7.4196,7.3997,7.331,7.2535,7.1786,7.109,7.0295,6.981,6.981,6.981,6.981,6.981,6.981,6.981,6.981,6.981,6.981,6.981,6.981,6.981,6.9822,6.9822,6.9834,6.9846,7.007,7.0211,7.0256,7.0687,7.103,7.13,7.13,7.13,7.13,7.13,7.13,6.1109,6.1109,6.1109,6.1109,6.1109,6.1208,6.1693,6.2565,6.3426,6.3923,0.0,0.0,0.0,0.0,0.0,0.0,0.0,0.0,0.0,0.0,0.0,0.0,0.0,0.0,0.0,0.0,0.0,0.0,0.0,0.0,6.9346,6.9678,6.981,6.981,6.981,6.981,6.981,6.9893,6.9941,6.9941,7.0023,6.9976,6.981,6.9905,6.9893,6.981,6.981,6.981,6.981,6.981,7.0659,7.2018,7.2018,7.2891,7.4196,7.4196,7.4196,7.4196,7.4196,7.4196,7.4196,7.4196,7.4196,7.4196,7.4196,7.4196,7.4196,7.4196,7.4196,7.4196,7.4196,7.4196,7.4196,7.4196,7.4196,7.4196,7.4196,7.4196,7.3997,7.3231,7.2502,7.1786,7.1024,7.0295,6.981,6.981,6.981,6.981,6.981,6.981,6.981,6.981,6.981,6.981,6.981,6.981,6.981,6.981,6.981,6.981,6.981,6.9893,7.0023,7.0209,7.0351,7.056,7.0802,7.1143,7.1222,7.103,7.1222,7.13,6.1109,6.1109,6.1109,6.1109,6.1285,6.1593,6.2101,6.2973,6.3824,6.4288,0.0,0.0,0.0,0.0,0.0,0.0,0.0,0.0,0.0,0.0,0.0,0.0,0.0,0.0,0.0,0.0,0.0,0.0,0.0,0.0,6.9711,6.981,6.981,6.981,6.981,6.9846,6.9929,6.9929,6.9929,6.9929,7.0011,6.9964,6.981,6.9893,6.9893,6.981,6.981,6.981,6.981,6.981,7.0659,7.2018,7.2018,7.2891,7.4196,7.4196,7.4196,7.4196,7.4196,7.4196,7.4196,7.4196,7.4196,7.4196,7.4196,7.4196,7.4196,7.4196,7.4196,7.4196,7.4196,7.4196,7.4196,7.4196,7.4196,7.4196,7.4196,7.4196,7.3898,7.2912,7.2349,7.1686,7.0693,7.0129,6.981,6.981,6.981,6.981,6.981,6.981,6.981,6.981,6.981,6.981,6.981,6.981,6.981,6.981,6.981,6.981,6.981,6.981,6.9881,7.0047,7.0141,7.0223,7.026,7.0779,7.0939,7.0779,7.0939,7.1064,0.0,0.0,0.0,6.1109,6.1659,6.2211,6.2233,6.336,6.442,6.442,0.0,0.0,0.0,0.0,0.0,0.0,0.0,0.0,0.0,0.0,0.0,0.0,0.0,0.0,0.0,0.0,0.0,0.0,0.0,6.8218,6.9711,6.981,6.981,6.981,6.981,6.9929,7.0209,7.0209,7.0209,7.0176,7.041,7.0236,6.981,7.0059,7.0035,6.981,6.981,6.981,6.981,6.981,7.0659,7.2018,7.2018,7.2891,7.4196,7.4196,7.4196,7.4196,7.4196,7.4196,7.4196,7.4196,7.4196,7.4196,7.4196,7.4196,7.4196,7.4196,7.4196,7.4196,7.4196,7.4196,7.4196,7.4196,7.4196,7.4196,7.4196,7.4163,7.3732,7.2283,7.1985,7.1521,7.003,6.981,6.981,6.981,6.981,6.981,6.981,6.981,6.981,6.981,6.981,6.981,6.981,6.981,6.981,6.981,6.981,6.981,6.981,6.981,6.981,6.981,7.0047,7.0047,6.981,7.026,7.0492,7.0492,7.0492,7.0631,6.1109,0.0,0.0,0.0,0.0,0.0,6.3559,6.4122,6.4542,6.5028,6.5282,0.0,0.0,0.0,0.0,0.0,0.0,0.0,0.0,0.0,0.0,0.0,0.0,0.0,0.0,0.0,0.0,0.0,6.7589,6.8218,6.9711,6.981,6.981,6.981,6.981,6.9834,6.9905,6.9917,6.9917,6.9917,6.9976,6.9941,6.981,6.9881,6.9869,6.981,6.981,6.981,6.981,6.981,7.0659,7.2018,7.2018,7.2891,7.4196,7.4196,7.4196,7.4196,7.4196,7.4196,7.4196,7.4196,7.4196,7.4196,7.4196,7.4196,7.4196,7.4196,7.4196,7.4196,7.4196,7.4196,7.4196,7.4196,7.4196,7.4196,7.4196,7.3786,7.3111,7.2183,7.1587,7.0891,6.9976,6.981,6.981,6.981,6.981,6.981,6.981,6.981,6.981,6.981,6.981,6.981,6.981,6.981,6.981,6.981,6.981,6.981,6.981,6.981,6.981,6.981,6.9869,6.9869,6.981,7.026,7.0444,7.0281,7.0423,7.0631,0.0,0.0,0.0,0.0,0.0,0.0,6.4122,6.4608,6.4929,0.0,6.5414,0.0,0.0,0.0,0.0,0.0,0.0,0.0,0.0,0.0,0.0,0.0,0.0,0.0,0.0,0.0,0.0,0.0,6.7423,6.8218,6.9711,6.981,6.981,6.981,6.981,6.981,6.981,6.981,6.981,6.981,6.981,6.981,6.981,6.981,6.981,6.981,6.981,6.981,6.981,6.981,7.0659,7.2018,7.2018,7.2891,7.4196,7.4196,7.4196,7.4196,7.4196,7.4196,7.4196,7.4196,7.4196,7.4196,7.4196,7.4196,7.4196,7.4196,7.4196,7.4196,7.4196,7.4196,7.4196,7.4196,7.4196,7.413,7.3819,7.3144,7.2502,7.2084,7.1388,7.0659,6.9943,6.981,6.981,6.981,6.981,6.981,6.981,6.981,6.981,6.981,6.981,6.981,6.981,6.981,6.981,6.981,6.981,6.981,6.981,6.981,6.981,6.981,6.981,6.981,6.981,7.0061,7.0164,7.0035,7.027,7.0468,0.0,0.0,0.0,0.0,0.0,0.0,6.4343,6.4962,6.5414,0.0,6.5414,0.0,0.0,0.0,0.0,0.0,0.0,0.0,0.0,0.0,0.0,0.0,0.0,0.0,0.0,0.0,6.5712,6.643,6.7258,6.8329,6.9732,6.981,6.981,6.981,6.981,6.981,6.981,6.981,6.981,6.981,6.981,6.981,6.981,6.981,6.981,6.981,6.981,6.981,6.981,6.981,7.0659,7.2018,7.2018,7.2891,7.4196,7.4196,7.4196,7.4196,7.4196,7.4196,7.4196,7.4196,7.4196,7.4196,7.4196,7.4196,7.4196,7.4196,7.4196,7.4196,7.4196,7.4196,7.4196,7.4196,7.413,7.3885,7.3231,7.2481,7.1885,7.1885,7.1289,7.056,6.9909,6.981,6.981,6.981,6.981,6.981,6.981,6.981,6.981,6.981,6.981,6.981,6.981,6.981,6.981,6.981,6.981,6.981,6.981,6.981,6.981,6.981,6.981,6.981,6.981,6.981,6.981,6.981,7.0035,7.0153,0.0,0.0,0.0,0.0,0.0,0.0,6.5061,6.5315,6.5414,0.0,6.5414,6.5414,6.5414,0.0,0.0,0.0,0.0,0.0,0.0,0.0,0.0,0.0,0.0,0.0,0.0,0.0,6.5712,6.643,6.7744,6.8882,6.9744,6.981,6.981,6.981,6.981,6.981,6.981,6.981,6.981,6.981,6.981,6.981,6.981,6.981,6.981,6.981,6.981,6.981,6.981,6.981,7.0659,7.2018,7.2018,7.2891,7.4196,7.4196,7.4196,7.4196,7.4196,7.4196,7.4196,7.4196,7.4196,7.4196,7.4196,7.4196,7.4196,7.4196,7.4196,7.4196,7.4196,7.4196,7.4196,7.4196,7.3753,7.3276,7.3132,7.2051,7.1123,7.1123,7.0527,6.9964,6.9831,6.981,6.981,6.981,6.981,6.981,6.981,6.981,6.981,6.981,6.981,6.981,6.981,6.981,6.981,6.981,6.981,6.981,6.981,6.981,6.981,6.981,6.981,6.981,6.981,6.981,6.981,6.981,6.9858,6.9988,0.0,0.0,0.0,6.4078,0.0,0.0,0.0,6.5414,6.5414,6.5414,6.5414,6.5414,6.5414,0.0,0.0,0.0,0.0,0.0,0.0,0.0,0.0,0.0,0.0,0.0,0.0,0.0,6.5712,6.643,6.7534,6.8473,6.9214,6.9611,6.981,6.981,6.981,6.981,6.981,6.981,6.981,6.981,6.981,6.981,6.981,6.981,6.981,6.981,6.981,6.981,6.981,6.981,7.0659,7.2018,7.2018,7.2891,7.4196,7.4196,7.4196,7.4196,7.4196,7.4196,7.4196,7.4196,7.4196,7.4196,7.4196,7.4196,7.4196,7.4196,7.4196,7.4196,7.4196,7.4196,7.4097,7.3753,7.3376,7.29,7.215,7.1421,7.0792,7.0428,7.003,6.981,6.981,6.981,6.981,6.981,6.981,6.981,6.981,6.981,6.981,6.981,6.981,6.981,6.981,6.981,6.981,6.981,6.981,6.981,6.981,6.981,6.981,6.981,6.981,6.981,6.981,6.981,6.981,6.981,6.981,6.9869,0.0,0.0,0.0,0.0,0.0,6.4741,0.0,0.0,0.0,6.5414,6.5414,0.0,6.5414,0.0,0.0,0.0,0.0,0.0,0.0,0.0,0.0,0.0,0.0,0.0,0.0,6.5414,6.5712,6.643,6.7191,6.792,6.865,6.9412,6.981,6.981,6.981,6.981,6.981,6.981,6.981,6.981,6.981,6.981,6.981,6.981,6.981,6.981,6.981,6.981,6.981,6.981,7.0659,7.2018,7.2018,7.2891,7.4171,7.3935,7.3986,7.4171,7.3922,7.4019,7.4196,7.4196,7.4196,7.4196,7.4196,7.4196,7.4196,7.4196,7.4196,7.4196,7.4196,7.4097,7.3819,7.3231,7.2867,7.2349,7.1156,7.0792,7.0494,6.9909,6.981,6.981,6.981,6.981,6.981,6.981,6.981,6.981,6.981,6.981,6.981,6.981,6.981,6.981,6.981,6.981,6.981,6.981,6.981,6.981,6.981,6.981,6.981,6.981,6.981,6.981,6.981,6.981,6.981,6.981,6.981,6.981,0.0,0.0,0.0,0.0,6.5282,0.0,0.0,0.0,6.5414,6.5414,0.0,0.0,0.0,0.0,0.0,0.0,0.0,0.0,0.0,0.0,0.0,0.0,0.0,0.0,0.0,0.0,6.5712,6.643,6.7191,6.792,6.865,6.9412,6.981,6.981,6.981,6.981,6.981,6.981,6.981,6.981,6.981,6.981,6.981,6.981,6.981,6.981,6.981,6.981,6.981,6.981,7.0659,7.2018,7.2018,7.2891,7.4082,7.2992,7.3285,7.407,7.2979,7.3311,7.4196,7.4196,7.4196,7.4196,7.4196,7.4196,7.4196,7.4196,7.4196,7.4196,7.4196,7.372,7.3198,7.3132,7.2117,7.109,7.0924,7.0406,6.9909,6.981,6.981,6.981,6.981,6.981,6.981,6.981,6.981,6.981,6.981,6.981,6.981,6.981,6.981,6.981,6.981,6.981,6.981,6.981,6.981,6.981,6.981,6.981,6.981,6.981,6.981,6.981,6.981,6.981,6.981,6.981,6.981,6.981,0.0,0.0,0.0,0.0,0.0,0.0,0.0,0.0,6.5414,0.0,0.0,0.0,0.0,0.0,0.0,0.0,0.0,0.0,0.0,0.0,0.0,0.0,0.0,0.0,0.0,0.0,0.0,0.0,0.0,6.7291,6.8031,6.8771,6.9346,6.9777,6.981,6.981,6.981,6.981,6.981,6.981,6.981,6.981,6.981,6.981,6.981,6.981,6.981,6.981,6.9762,6.9095,6.9644,7.0895,7.0248,7.1259,7.3005,7.1783,7.1693,7.2044,7.1525,7.1674,7.2232,7.2926,7.3181,7.3298,7.3973,7.4196,7.4196,7.4196,7.4196,7.4097,7.3687,7.3343,7.2867,7.2051,7.1355,7.0792,7.0361,7.0042,6.981,6.981,6.981,6.981,6.981,6.981,6.981,6.981,6.981,6.981,6.981,6.981,6.981,6.981,6.981,6.981,6.981,6.981,6.981,6.981,6.981,6.981,6.981,6.981,6.981,6.981,6.981,6.981,6.981,6.981,6.981,6.981,6.981,6.981,6.5414,0.0,0.0,0.0,0.0,0.0,0.0,0.0,0.0,0.0,0.0,0.0,0.0,0.0,0.0,0.0,0.0,0.0,0.0,0.0,0.0,0.0,0.0,0.0,0.0,0.0,0.0,0.0,6.6065,0.0,6.7556,6.8307,6.9048,6.9777,6.981,6.981,6.981,6.981,6.981,6.981,6.981,6.981,6.981,6.981,6.981,6.981,6.981,6.981,6.9727,6.8767,6.9115,7.0079,6.8789,6.9552,7.1319,7.0431,7.0318,7.0557,7.022,7.0318,7.0739,7.1606,7.2138,7.2551,7.3441,7.3935,7.4196,7.4196,7.4064,7.3786,7.3231,7.28,7.2216,7.1156,7.0759,7.0461,6.9909,6.981,6.981,6.981,6.981,6.981,6.981,6.981,6.981,6.981,6.981,6.981,6.981,6.981,6.981,6.981,6.981,6.981,6.981,6.981,6.981,6.981,6.981,6.981,6.981,6.981,6.981,6.981,6.981,6.981,6.981,6.981,6.981,6.981,6.981,6.981,0.0,0.0,0.0,0.0,0.0,0.0,0.0,0.0,6.5414,0.0,0.0,0.0,0.0,0.0,0.0,0.0,0.0,0.0,0.0,0.0,0.0,0.0,0.0,0.0,0.0,0.0,0.0,6.5414,6.6065,0.0,6.7556,6.8307,6.9048,6.9777,6.981,6.981,6.981,6.981,6.981,6.981,6.981,6.981,6.981,6.981,6.981,6.981,6.981,6.981,6.976,6.9259,6.953,7.0059,6.8383,6.821,6.8912,6.8869,6.9607,7.0431,6.9261,6.9622,7.0599,7.0641,7.1443,7.2405,7.2432,7.3285,7.4196,7.4196,7.3687,7.3132,7.3098,7.2039,7.0958,7.0924,7.0361,6.9843,6.981,6.981,6.981,6.981,6.981,6.981,6.981,6.981,6.981,6.981,6.981,6.981,6.981,6.981,6.981,6.981,6.981,6.981,6.981,6.981,6.981,6.981,6.981,6.981,6.981,6.981,6.981,6.981,6.981,6.981,6.981,6.981,6.981,6.981,6.981,6.981,0.0,0.0,6.5414,6.5414,0.0,0.0,0.0,0.0,0.0,0.0,0.0,0.0,0.0,0.0,0.0,0.0,0.0,0.0,0.0,0.0,0.0,0.0,0.0,0.0,0.0,0.0,0.0,6.5414,6.5635,6.6297,0.0,6.7821,6.8528,6.9765,6.981,6.981,6.981,6.981,6.981,6.981,6.981,6.981,6.981,6.981,6.981,6.981,6.981,6.9361,6.8629,6.817,6.7949,6.7808,6.6911,6.7004,6.7608,6.7608,6.7879,6.8163,6.7759,6.7894,6.8356,6.9145,7.0234,7.1347,7.2165,7.3259,7.4196,7.4196,7.3687,7.2999,7.2502,7.1653,7.0792,7.0295,6.9964,6.981,6.981,6.981,6.981,6.981,6.981,6.981,6.981,6.981,6.981,6.981,6.981,6.981,6.981,6.981,6.981,6.981,6.981,6.981,6.981,6.981,6.981,6.981,6.981,6.981,6.981,6.981,6.981,6.981,6.981,6.981,6.981,6.981,6.981,6.981,6.981,6.981,6.5414,6.5414,0.0,0.0,6.5414,0.0,0.0,0.0,0.0,0.0,0.0,0.0,0.0,0.0,0.0,0.0,0.0,0.0,0.0,6.5414,0.0,0.0,0.0,0.0,0.0,0.0,6.5414,6.5414,6.5414,6.5933,0.0,0.0,6.8163,6.9379,6.9678,6.981,6.981,6.981,6.981,6.981,6.981,6.981,6.981,6.981,6.9574,6.9192,6.9192,6.856,6.7478,6.7251,6.6979,6.667,6.6432,6.661,6.7014,6.7014,6.7014,6.7014,6.7014,6.7014,6.7122,6.7909,6.9261,7.0739,7.1511,7.29,7.4196,7.4196,7.3488,7.2602,7.2105,7.1256,7.0406,6.9909,6.981,6.981,6.981,6.981,6.981,6.981,6.981,6.981,6.981,6.981,6.981,6.981,6.981,6.981,6.981,6.981,6.981,6.981,6.981,6.981,6.981,6.981,6.981,6.981,6.981,6.981,6.981,6.981,6.9931,7.0196,6.9931,6.9943,7.0196,6.9943,6.981,6.981,6.981,6.981]},{"header":{"parameterUnit":"m.s-1","parameterCategory":1,"la1":30.6,"la2":29.2853,"lo1":-89.7004,"lo2":-87.6739,"dy":0.0162,"dx":0.0183,"nx":112,"ny":82,"refTime":"2023-11-22T18:00:00:Z","depth":0,"parameterNumber":3,"parameterNumberName":"V-component_of_WINDS"},"data":[0.0,0.0,0.0,0.0,0.0,0.0,0.0,0.0,0.0,0.0,0.0,0.0,0.0,0.0,0.0,0.0,0.0,0.0,0.0,0.0,0.0,0.0,0.0,0.0,0.0,0.0,0.0,0.0,0.0,0.0,0.0,0.0,0.0,0.0,0.0,0.0,0.0,0.0,0.0,0.0,0.0,0.0,0.0,0.0,0.0,0.0,0.0,0.0,0.0,0.0,0.0,0.0,0.0,0.0,0.0,0.0,0.0,0.0,0.0,0.0,0.0,0.0,0.0,0.0,0.0,0.0,0.0,0.0,0.0,0.0,0.0,0.0,0.0,0.0,0.0,0.0,0.0,0.0,0.0,0.0,0.0,0.0,0.0,0.0,0.0,0.0,0.0,0.0,0.0,0.0,0.0,1.8797,1.8876,1.9462,2.0657,1.9878,1.9307,1.9307,0.0,0.0,0.0,0.0,0.0,0.0,0.0,0.0,0.0,0.0,0.0,0.0,0.0,0.0,0.0,0.0,0.0,0.0,0.0,0.0,0.0,0.0,0.0,0.0,0.0,0.0,0.0,0.0,0.0,0.0,0.0,0.0,0.0,0.0,0.0,0.0,0.0,0.0,0.0,0.0,0.0,0.0,0.0,0.0,0.0,0.0,0.0,0.0,0.0,0.0,0.0,0.0,0.0,0.0,0.0,0.0,0.0,0.0,0.0,0.0,0.0,0.0,0.0,0.0,0.0,0.0,0.0,0.0,0.0,0.0,0.0,0.0,0.0,0.0,0.0,0.0,0.0,0.0,0.0,0.0,0.0,0.0,0.0,0.0,0.0,0.0,0.0,0.0,0.0,0.0,0.0,0.0,0.0,0.0,0.0,0.0,0.0,0.0,0.0,0.0,0.0,0.0,0.0,0.0,1.939,2.0558,2.0687,2.0821,2.1026,2.0877,2.0779,2.0779,0.0,0.0,0.0,0.0,0.0,0.0,0.0,0.0,0.0,0.0,0.0,0.0,0.0,0.0,0.0,0.0,0.0,0.0,0.0,0.0,0.0,0.0,0.0,0.0,0.0,0.0,0.0,0.0,0.0,0.0,0.0,0.0,0.0,0.0,0.0,0.0,0.0,0.0,0.0,0.0,0.0,0.0,0.0,0.0,0.0,0.0,0.0,0.0,0.0,0.0,0.0,0.0,0.0,0.0,0.0,0.0,0.0,0.0,0.0,0.0,0.0,0.0,0.0,0.0,0.0,0.0,0.0,0.0,0.0,0.0,0.0,0.0,0.0,0.0,0.0,0.0,0.0,0.0,0.0,0.0,0.0,0.0,0.0,0.0,0.0,0.0,0.0,0.0,0.0,0.0,0.0,0.0,0.0,0.0,0.0,0.0,0.0,0.0,0.0,0.0,0.0,0.0,0.0,2.0318,2.0307,2.1017,2.1093,2.1093,2.1093,2.1093,2.1093,2.1093,2.0989,0.0,0.0,0.0,0.0,0.0,0.0,0.0,0.0,0.0,0.0,0.0,0.0,0.0,0.0,0.0,0.0,0.0,0.0,0.0,0.0,0.0,0.0,0.0,0.0,0.0,0.0,0.0,0.0,0.0,0.0,0.0,0.0,0.0,0.0,0.0,0.0,0.0,0.0,0.0,0.0,0.0,0.0,0.0,0.0,0.0,0.0,0.0,0.0,0.0,0.0,0.0,0.0,0.0,0.0,0.0,0.0,0.0,0.0,0.0,0.0,0.0,0.0,0.0,0.0,0.0,0.0,0.0,0.0,0.0,0.0,0.0,0.0,0.0,0.0,0.0,0.0,0.0,0.0,0.0,0.0,0.0,0.0,0.0,0.0,0.0,0.0,0.0,0.0,0.0,0.0,0.0,0.0,0.0,0.0,0.0,0.0,0.0,0.0,0.0,0.0,0.0,0.0,2.0975,2.1093,2.1093,2.1093,2.1093,2.1093,2.1093,2.1093,2.1093,2.1093,0.0,0.0,0.0,0.0,0.0,0.0,0.0,0.0,0.0,0.0,0.0,0.0,0.0,0.0,0.0,0.0,0.0,0.0,0.0,0.0,0.0,0.0,0.0,0.0,0.0,0.0,0.0,0.0,0.0,0.0,0.0,0.0,0.0,0.0,0.0,0.0,0.0,0.0,0.0,0.0,0.0,0.0,0.0,0.0,0.0,0.0,0.0,0.0,0.0,0.0,0.0,0.0,0.0,0.0,0.0,0.0,0.0,0.0,0.0,0.0,0.0,0.0,0.0,0.0,0.0,0.0,0.0,0.0,0.0,0.0,0.0,0.0,0.0,0.0,0.0,0.0,0.0,0.0,0.0,0.0,0.0,0.0,0.0,0.0,0.0,0.0,0.0,0.0,0.0,0.0,0.0,0.0,0.0,0.0,0.0,0.0,0.0,0.0,0.0,0.0,0.0,0.0,2.108,2.1093,2.1093,2.1093,2.1093,2.1093,2.1093,2.1093,2.1093,2.1093,0.0,0.0,0.0,0.0,0.0,0.0,0.0,0.0,0.0,0.0,0.0,0.0,0.0,0.0,0.0,0.0,0.0,0.0,0.0,0.0,0.0,0.0,0.0,0.0,0.0,0.0,0.0,0.0,0.0,0.0,0.0,0.0,0.0,0.0,0.0,0.0,0.0,0.0,0.0,0.0,0.0,0.0,0.0,0.0,0.0,0.0,0.0,0.0,0.0,0.0,0.0,0.0,0.0,0.0,0.0,0.0,0.0,0.0,0.0,0.0,0.0,0.0,0.0,0.0,0.0,0.0,0.0,0.0,0.0,0.0,0.0,0.0,0.0,0.0,0.0,0.0,0.0,0.0,0.0,0.0,0.0,0.0,0.0,0.0,0.0,0.0,0.0,0.0,0.0,0.0,0.0,0.0,0.0,0.0,0.0,0.0,0.0,0.0,0.0,0.0,0.0,0.0,2.1406,2.1489,0.0,2.1657,2.1657,2.1657,2.1657,2.1657,2.1657,0.0,0.0,0.0,0.0,0.0,0.0,0.0,0.0,0.0,0.0,0.0,0.0,0.0,0.0,0.0,0.0,0.0,0.0,0.0,0.0,0.0,0.0,0.0,0.0,0.0,0.0,0.0,0.0,0.0,0.0,0.0,0.0,0.0,0.0,0.0,0.0,0.0,0.0,0.0,0.0,0.0,0.0,0.0,0.0,0.0,0.0,0.0,0.0,0.0,0.0,0.0,0.0,0.0,0.0,0.0,0.0,0.0,0.0,0.0,0.0,0.0,0.0,0.0,0.0,0.0,0.0,0.0,0.0,0.0,0.0,0.0,0.0,0.0,0.0,0.0,0.0,0.0,0.0,0.0,0.0,0.0,0.0,0.0,0.0,0.0,0.0,0.0,0.0,0.0,0.0,0.0,0.0,0.0,0.0,0.0,0.0,0.0,0.0,0.0,0.0,0.0,0.0,2.1689,2.1729,2.1796,0.0,2.2007,2.2007,2.2007,2.2007,2.2007,2.2007,0.0,0.0,0.0,0.0,0.0,0.0,0.0,0.0,0.0,0.0,0.0,0.0,0.0,0.0,0.0,0.0,0.0,0.0,0.0,0.0,0.0,0.0,0.0,0.0,0.0,0.0,0.0,0.0,0.0,0.0,0.0,0.0,0.0,0.0,0.0,0.0,0.0,0.0,0.0,0.0,0.0,0.0,0.0,0.0,0.0,0.0,0.0,0.0,0.0,0.0,0.0,0.0,0.0,0.0,0.0,0.0,0.0,0.0,0.0,0.0,0.0,0.0,0.0,0.0,0.0,0.0,0.0,0.0,0.0,0.0,0.0,0.0,0.0,0.0,0.0,0.0,0.0,0.0,0.0,0.0,0.0,0.0,0.0,0.0,0.0,0.0,0.0,0.0,0.0,0.0,0.0,0.0,0.0,0.0,0.0,0.0,0.0,0.0,0.0,0.0,0.0,0.0,2.1967,2.2007,2.2007,2.2007,2.2007,2.2007,2.2007,2.2007,2.2007,0.0,0.0,0.0,0.0,0.0,0.0,0.0,0.0,0.0,0.0,0.0,0.0,0.0,0.0,0.0,0.0,0.0,0.0,0.0,0.0,0.0,0.0,0.0,0.0,0.0,0.0,0.0,0.0,0.0,0.0,0.0,0.0,0.0,0.0,0.0,0.0,0.0,0.0,0.0,0.0,0.0,0.0,0.0,0.0,0.0,0.0,0.0,0.0,0.0,0.0,0.0,0.0,0.0,0.0,0.0,0.0,0.0,0.0,0.0,0.0,0.0,0.0,0.0,0.0,0.0,0.0,0.0,0.0,0.0,0.0,0.0,0.0,0.0,0.0,0.0,0.0,0.0,0.0,0.0,0.0,0.0,0.0,0.0,0.0,0.0,0.0,0.0,0.0,0.0,0.0,0.0,0.0,0.0,0.0,0.0,0.0,0.0,0.0,0.0,0.0,0.0,0.0,0.0,2.2258,2.2281,2.2365,2.2612,2.2639,2.2639,2.2639,2.2639,2.2639,2.2639,0.0,0.0,0.0,0.0,0.0,0.0,0.0,0.0,0.0,0.0,0.0,0.0,0.0,0.0,0.0,0.0,0.0,0.0,0.0,0.0,0.0,0.0,0.0,0.0,0.0,0.0,0.0,0.0,0.0,0.0,0.0,0.0,0.0,0.0,0.0,0.0,0.0,0.0,0.0,0.0,0.0,0.0,0.0,0.0,0.0,0.0,0.0,0.0,0.0,0.0,0.0,0.0,0.0,0.0,0.0,0.0,0.0,0.0,0.0,0.0,0.0,0.0,0.0,0.0,0.0,0.0,0.0,0.0,0.0,0.0,0.0,0.0,0.0,0.0,0.0,0.0,0.0,0.0,0.0,0.0,0.0,0.0,0.0,0.0,0.0,0.0,0.0,0.0,0.0,0.0,0.0,0.0,0.0,0.0,0.0,0.0,0.0,0.0,0.0,0.0,0.0,0.0,2.2565,2.2592,2.2676,2.288,2.2893,2.2893,2.2893,2.2893,2.2962,2.3082,0.0,0.0,0.0,0.0,0.0,0.0,0.0,0.0,0.0,0.0,0.0,0.0,0.0,0.0,0.0,0.0,0.0,0.0,0.0,0.0,0.0,0.0,0.0,0.0,0.0,0.0,0.0,0.0,0.0,0.0,0.0,0.0,0.0,0.0,0.0,0.0,0.0,0.0,0.0,0.0,0.0,0.0,0.0,0.0,0.0,0.0,0.0,0.0,0.0,0.0,0.0,0.0,0.0,0.0,0.0,0.0,0.0,0.0,0.0,0.0,0.0,0.0,0.0,0.0,0.0,0.0,0.0,0.0,0.0,0.0,0.0,0.0,0.0,0.0,0.0,0.0,0.0,0.0,0.0,0.0,0.0,0.0,0.0,0.0,0.0,0.0,0.0,0.0,0.0,0.0,0.0,0.0,0.0,0.0,0.0,0.0,0.0,0.0,0.0,0.0,0.0,0.0,2.2867,2.2893,2.2893,2.2893,2.2893,2.2893,2.2893,2.2928,2.3082,2.3389,0.0,0.0,0.0,0.0,0.0,0.0,0.0,0.0,0.0,0.0,0.0,0.0,0.0,0.0,0.0,0.0,0.0,0.0,0.0,0.0,0.0,0.0,0.0,0.0,0.0,0.0,0.0,0.0,0.0,0.0,0.0,0.0,0.0,0.0,0.0,0.0,0.0,0.0,0.0,0.0,0.0,0.0,0.0,0.0,0.0,0.0,0.0,0.0,0.0,0.0,0.0,0.0,0.0,0.0,0.0,0.0,0.0,0.0,0.0,0.0,2.1496,0.0,0.0,0.0,0.0,0.0,0.0,0.0,0.0,0.0,0.0,0.0,0.0,0.0,0.0,0.0,0.0,0.0,0.0,0.0,0.0,0.0,0.0,0.0,0.0,0.0,0.0,0.0,0.0,0.0,0.0,0.0,0.0,0.0,0.0,0.0,0.0,0.0,0.0,0.0,0.0,0.0,2.2893,2.2893,2.2893,2.2893,2.2893,2.2893,2.2893,2.3133,2.3321,2.3406,0.0,0.0,0.0,0.0,0.0,0.0,0.0,0.0,0.0,0.0,0.0,0.0,0.0,0.0,0.0,0.0,0.0,0.0,0.0,0.0,0.0,0.0,0.0,0.0,0.0,0.0,0.0,0.0,0.0,0.0,0.0,0.0,0.0,0.0,0.0,0.0,0.0,0.0,0.0,0.0,0.0,0.0,0.0,0.0,0.0,0.0,0.0,0.0,0.0,0.0,0.0,0.0,0.0,0.0,0.0,0.0,0.0,0.0,0.0,0.0,0.0,2.2038,0.0,0.0,0.0,0.0,0.0,0.0,0.0,0.0,0.0,0.0,0.0,0.0,0.0,0.0,0.0,0.0,0.0,0.0,0.0,0.0,0.0,0.0,0.0,0.0,0.0,0.0,0.0,0.0,0.0,0.0,0.0,0.0,0.0,0.0,0.0,0.0,0.0,0.0,0.0,0.0,2.3133,2.3133,2.3133,2.3133,2.2996,2.2962,2.3133,2.3304,2.3543,2.3901,2.3969,0.0,0.0,0.0,0.0,0.0,0.0,0.0,0.0,0.0,0.0,0.0,0.0,0.0,0.0,0.0,0.0,0.0,0.0,0.0,0.0,0.0,0.0,0.0,0.0,0.0,0.0,0.0,0.0,0.0,0.0,0.0,0.0,0.0,0.0,0.0,0.0,0.0,0.0,0.0,0.0,0.0,0.0,0.0,0.0,0.0,0.0,0.0,0.0,0.0,0.0,0.0,0.0,0.0,0.0,0.0,2.236,2.2418,2.2564,2.2768,2.2593,2.2462,2.236,0.0,0.0,0.0,0.0,0.0,0.0,0.0,0.0,0.0,0.0,0.0,0.0,0.0,0.0,0.0,0.0,0.0,0.0,0.0,0.0,0.0,0.0,0.0,0.0,0.0,2.3542,2.3614,0.0,0.0,0.0,0.0,0.0,0.0,0.0,0.0,0.0,0.0,0.0,0.0,2.3492,2.3492,2.3492,2.3492,2.3253,2.3201,2.3475,2.356,2.385,2.4461,2.4323,2.4275,0.0,0.0,0.0,0.0,0.0,0.0,0.0,0.0,0.0,0.0,0.0,0.0,0.0,0.0,0.0,0.0,0.0,0.0,0.0,0.0,0.0,0.0,0.0,0.0,0.0,0.0,0.0,0.0,0.0,0.0,0.0,0.0,2.0093,2.0137,0.0,0.0,0.0,0.0,0.0,0.0,0.0,0.0,0.0,0.0,0.0,0.0,0.0,0.0,2.2199,2.2417,2.2549,2.2549,2.2841,2.2973,2.3003,2.3281,2.3427,2.3486,2.3736,0.0,2.2973,2.2973,0.0,0.0,0.0,0.0,0.0,0.0,0.0,0.0,0.0,0.0,0.0,0.0,0.0,0.0,0.0,0.0,0.0,0.0,0.0,0.0,0.0,0.0,2.3963,2.3974,2.4209,2.4446,0.0,2.3689,2.3145,2.3328,0.0,0.0,0.0,0.0,0.0,0.0,0.0,0.0,2.3867,2.3932,2.3932,2.3932,2.3867,2.3881,2.3932,2.419,2.4394,2.4478,2.4798,2.4815,2.4495,2.4445,0.0,0.0,0.0,0.0,0.0,0.0,0.0,0.0,0.0,0.0,0.0,0.0,0.0,0.0,0.0,0.0,0.0,0.0,0.0,0.0,0.0,0.0,0.0,0.0,0.0,0.0,0.0,0.0,0.0,2.0136,2.027,2.0459,2.0663,2.0896,0.0,0.0,0.0,0.0,0.0,0.0,0.0,0.0,0.0,2.2417,2.2608,2.2798,2.2974,2.3106,2.3267,2.3442,2.3588,2.3662,2.3678,2.3808,2.3883,2.3897,2.4044,2.3941,2.3662,2.3662,2.3662,2.3662,0.0,0.0,0.0,0.0,0.0,0.0,0.0,0.0,0.0,0.0,0.0,0.0,0.0,0.0,0.0,0.0,0.0,0.0,0.0,0.0,0.0,2.4617,2.4778,2.488,2.488,2.4529,2.4188,0.0,2.4059,2.3984,2.3771,0.0,0.0,0.0,0.0,0.0,2.4272,2.4275,2.4275,2.4275,2.4119,2.4085,2.4258,2.4411,2.4611,2.4815,2.5001,2.5018,2.4832,2.4628,2.4343,0.0,0.0,0.0,0.0,0.0,0.0,0.0,0.0,0.0,0.0,0.0,0.0,0.0,0.0,0.0,0.0,0.0,0.0,0.0,0.0,0.0,0.0,0.0,0.0,0.0,0.0,0.0,0.0,2.0473,2.0692,2.0926,2.1247,2.1554,0.0,0.0,0.0,0.0,0.0,0.0,2.255,2.2754,2.29,2.2973,2.3237,2.3471,2.3736,2.3736,2.3837,2.4102,2.4102,2.4102,2.4102,2.419,2.4219,2.4234,2.4324,2.4368,2.4337,2.4161,2.4102,2.4102,2.4102,0.0,0.0,0.0,2.4102,2.4102,2.4102,2.4102,0.0,2.4102,0.0,2.4219,2.4219,0.0,0.0,0.0,0.0,2.441,2.4661,0.0,2.4793,2.5027,2.5102,2.5102,2.5102,2.5102,2.5001,0.0,2.4662,2.4544,2.4204,0.0,0.0,0.0,0.0,2.4544,2.4645,2.4662,2.4662,2.4662,2.4442,2.4391,2.4628,2.4662,2.4781,2.5069,2.5102,2.5102,2.5102,2.4815,2.4597,2.4495,0.0,0.0,0.0,0.0,0.0,0.0,0.0,0.0,0.0,0.0,0.0,0.0,0.0,0.0,0.0,0.0,0.0,0.0,0.0,0.0,0.0,0.0,0.0,0.0,0.0,0.0,0.0,0.0,0.0,2.1642,2.195,0.0,0.0,0.0,0.0,2.2564,2.2578,2.2856,2.3502,2.3545,2.3707,2.4014,2.4044,2.4058,2.4073,2.4073,2.4088,2.4102,2.4102,2.4102,2.4117,2.4441,2.4573,2.4587,2.491,2.5042,2.4998,2.4351,2.4102,2.4102,2.4102,2.4102,2.4102,2.4102,2.4102,2.4102,2.4102,2.4102,2.4102,2.4102,2.4324,2.4573,2.4573,2.4793,0.0,0.0,2.5042,2.5042,2.5056,2.5071,2.5088,2.5102,2.5102,2.5102,2.5102,2.5102,2.5086,0.0,2.5069,0.0,2.4544,0.0,0.0,2.4461,2.4478,2.4645,2.5018,2.5069,2.5069,2.5069,2.5052,2.5052,2.5069,2.5069,2.5069,2.5102,2.5102,2.5102,2.5102,2.5069,2.4883,2.4495,2.4478,0.0,0.0,0.0,0.0,0.0,0.0,0.0,0.0,0.0,0.0,0.0,0.0,0.0,0.0,0.0,0.0,0.0,0.0,0.0,0.0,0.0,0.0,0.0,0.0,0.0,0.0,0.0,0.0,2.2023,2.2271,0.0,0.0,2.2652,2.2915,2.3223,2.3252,2.3442,2.3897,2.3927,2.439,2.543,2.4574,2.4646,2.5755,2.487,2.4529,2.4734,2.4734,2.4734,2.4749,2.4866,2.491,2.4924,2.5042,2.5102,2.5071,2.4836,2.4734,2.4734,2.4734,2.4734,2.4734,2.4734,2.4734,2.4734,2.4734,2.4734,2.4734,2.4734,2.4822,2.491,2.491,2.5015,2.5102,2.5102,2.5102,2.5102,2.5102,2.5102,2.5102,2.5102,2.5102,2.5102,2.5102,2.5102,2.5102,2.5102,2.5102,2.5052,2.4916,2.4883,2.4883,2.4883,2.4883,2.4933,2.5069,2.5102,2.5102,2.5102,2.5102,2.5102,2.5102,2.5102,2.5102,2.5102,2.5102,2.5102,2.5102,2.5102,2.5035,2.4883,2.4883,2.4832,0.0,0.0,0.0,0.0,0.0,0.0,0.0,0.0,0.0,0.0,0.0,0.0,0.0,0.0,0.0,0.0,0.0,0.0,0.0,0.0,0.0,0.0,0.0,0.0,0.0,0.0,2.233,2.233,2.3109,2.347,2.2976,2.4098,2.4544,2.3815,2.466,2.5117,2.4984,2.5422,2.6149,2.7181,2.5852,2.5895,2.7524,2.6144,2.5553,2.5779,2.5779,2.5526,2.5102,2.5102,2.5102,2.5102,2.5102,2.5102,2.5102,2.5102,2.5102,2.5102,2.5102,2.5102,2.5102,2.5102,2.5102,2.5102,2.5102,2.5102,2.5102,2.5102,2.5102,2.5102,2.5102,2.5102,2.5102,2.5102,2.5102,2.5102,2.5102,2.5102,2.5102,2.5102,2.5102,2.5102,2.5102,2.5102,2.5102,2.5102,2.5102,2.5102,2.5102,2.5102,2.513,2.5215,2.523,2.5274,2.5376,2.5391,2.5391,2.5391,2.5391,2.5391,2.5391,2.5391,2.5364,2.5244,2.523,2.5186,2.51,2.5102,2.5102,2.5102,2.5102,2.5102,2.5102,0.0,0.0,0.0,0.0,0.0,0.0,0.0,0.0,0.0,0.0,0.0,0.0,0.0,0.0,0.0,0.0,0.0,0.0,0.0,0.0,0.0,0.0,0.0,2.2437,2.2447,2.2637,2.2637,2.4456,2.5156,2.3746,2.6452,2.7155,2.4378,2.6758,2.7879,2.6824,2.8073,2.8952,2.9264,2.7899,2.7833,2.9248,2.7866,2.7136,2.7103,2.7136,2.6468,2.5153,2.5153,2.5153,2.5153,2.5119,2.5102,2.5102,2.5102,2.5102,2.5102,2.5102,2.5102,2.5102,2.5102,2.5102,2.5102,2.5102,2.5102,2.5102,2.5102,2.5102,2.5102,2.5102,2.5102,2.5102,2.5102,2.5102,2.5102,2.5102,2.5102,2.5102,2.5102,2.5102,2.51,2.51,2.51,2.5117,2.5132,2.5132,2.5115,2.51,2.5115,2.5232,2.5488,2.5515,0.0,2.5956,2.6,2.6,2.6,2.6,2.6,2.6,2.6,2.5868,2.5529,2.5515,2.5386,2.5115,2.51,2.51,2.5102,2.5102,2.5102,2.5102,0.0,0.0,0.0,0.0,0.0,0.0,0.0,0.0,0.0,0.0,0.0,0.0,0.0,0.0,0.0,0.0,0.0,0.0,0.0,0.0,0.0,0.0,2.461,2.2746,2.2958,2.3325,2.3325,2.4965,2.5499,2.41,2.6582,2.7668,2.6112,2.7648,2.8619,2.8522,2.8882,2.96,3.0692,2.9362,2.9297,3.0726,2.9329,2.8098,2.712,2.8131,2.7883,2.6536,2.6536,2.6536,2.6501,2.551,2.5102,2.5102,2.5102,2.5102,2.5102,2.5102,2.5102,2.5102,2.5102,2.5102,2.5102,2.5102,2.5102,2.5102,2.5102,2.5102,2.5102,2.5102,2.5102,2.5102,2.5102,2.5102,2.5102,2.5102,2.5102,2.5102,2.5102,2.5102,2.5159,2.5344,2.5386,2.5461,2.571,2.5754,2.5681,2.543,2.5593,2.5783,2.5854,0.0,0.0,2.5985,2.6,2.6,2.6,2.6,2.6,2.6,2.6,2.5956,0.0,2.5868,2.5722,2.54,2.5386,2.5286,2.51,2.5102,2.5102,0.0,0.0,0.0,0.0,0.0,0.0,0.0,0.0,0.0,0.0,0.0,0.0,0.0,0.0,0.0,0.0,0.0,0.0,0.0,0.0,0.0,0.0,2.6259,2.6894,2.5215,2.4811,2.4691,2.4691,2.6758,2.7386,2.5371,2.8367,2.969,2.7866,2.9599,3.0541,3.0094,3.0646,3.1322,3.2158,3.0807,3.0847,3.2469,3.1076,3.0051,2.9394,3.0241,2.9893,2.8491,2.7886,2.7936,0.0,2.6356,2.6186,2.731,2.6697,2.6799,0.0,0.0,0.0,0.0,0.0,2.5102,2.5102,2.5102,2.5102,2.5102,2.5102,2.5102,2.5102,2.5102,2.5102,2.5102,2.5102,2.5188,2.5274,2.5274,2.5376,2.5479,2.5479,2.5479,2.5523,2.5678,2.6228,2.674,2.6937,0.0,0.0,2.6922,2.6394,2.6044,2.6175,2.6205,2.6266,0.0,2.6427,2.6427,2.6427,2.6427,2.6427,2.6427,2.6427,0.0,0.0,0.0,2.6058,2.5719,0.0,0.0,0.0,0.0,2.5102,0.0,0.0,0.0,0.0,2.4778,2.4764,0.0,0.0,0.0,0.0,0.0,0.0,0.0,0.0,0.0,0.0,0.0,0.0,0.0,0.0,0.0,0.0,2.9143,2.9875,2.8736,2.754,2.6696,2.652,2.9131,2.9903,2.7247,3.0865,3.2304,2.9639,3.1902,3.2845,3.1595,0.0,0.0,0.0,0.0,3.2475,3.4157,3.2938,3.2401,3.2601,3.2751,3.2098,3.07,2.9372,2.9491,3.0564,2.7734,2.8029,3.0395,2.908,2.9406,3.0529,2.8342,2.6761,2.5713,2.5713,2.5595,0.0,0.0,0.0,0.0,2.5271,2.5426,2.568,2.551,2.5578,2.568,2.551,2.5633,2.582,2.582,2.6042,2.6301,2.6476,2.6511,2.6473,2.6328,2.7519,2.8559,2.8434,2.8777,2.9122,2.9155,2.746,2.6205,2.6515,2.6559,0.0,2.6954,2.7002,2.7002,2.7002,0.0,0.0,2.7002,2.7002,2.6866,2.6574,2.653,2.6369,2.6058,2.5719,2.5559,2.5559,2.5288,2.5144,2.5144,2.51,2.5102,2.5102,2.5102,2.5102,0.0,0.0,0.0,0.0,0.0,0.0,0.0,0.0,0.0,0.0,0.0,0.0,0.0,0.0,0.0,2.8327,2.9554,3.056,3.0419,3.0358,2.9807,2.8471,3.0031,3.0552,2.8884,3.1558,3.2702,3.1033,3.2444,3.3276,3.3003,3.3606,0.0,3.3961,3.4015,3.4212,3.457,3.4309,3.3657,3.2601,0.0,0.0,3.2183,3.1915,3.1932,3.21,3.0378,2.9952,3.0479,3.0191,3.092,3.2048,3.046,2.9682,2.9462,2.9462,2.8713,2.7684,2.7684,2.7684,2.7478,2.6245,2.7462,2.9224,2.8029,2.8508,0.0,2.8012,2.7731,2.7761,0.0,2.7808,2.8167,2.9355,2.9628,2.9386,2.8462,2.9436,3.0197,2.921,3.0086,3.1085,3.1425,2.8869,2.6822,2.6881,2.6896,2.6943,2.6983,2.7002,2.7002,2.7002,2.7002,2.7002,2.7002,2.7002,2.6969,2.6896,2.6647,2.6471,2.6413,2.6073,2.5912,2.5912,2.5591,2.5415,2.5415,2.5217,2.5102,2.5102,2.5102,2.5102,0.0,0.0,0.0,0.0,0.0,0.0,0.0,0.0,0.0,0.0,0.0,2.8139,0.0,0.0,3.0549,3.0551,3.1405,3.2062,3.2141,3.2283,3.1795,3.0232,3.142,3.1806,3.0403,3.2158,3.3118,3.2397,3.3231,3.375,3.375,3.416,3.4411,3.4411,3.4606,3.4805,3.5039,3.5039,3.492,3.4649,3.5363,3.5426,3.4935,3.4159,3.4228,3.4832,3.2613,3.2508,3.3899,3.3899,3.4314,3.4883,3.4176,3.2941,3.1477,3.0768,3.0021,2.9406,2.9406,2.9406,2.9269,2.8496,2.9269,3.0344,2.9628,2.9918,3.0361,2.9611,2.9521,2.9653,2.9653,2.9786,3.0142,3.1078,3.1304,3.1214,3.0861,3.1959,3.2826,3.2218,3.2717,3.3322,3.3518,3.1525,2.9902,2.9902,2.9902,2.9902,2.9902,2.9902,2.9902,2.9902,2.9688,2.9251,2.8519,2.7564,2.7002,2.7002,2.6837,2.6749,2.6749,2.6442,2.6249,2.6249,2.5927,2.5751,2.5751,2.5447,2.5286,2.5303,2.5159,2.5102,0.0,0.0,0.0,0.0,0.0,0.0,0.0,0.0,2.702,2.8243,2.8853,2.9478,3.0519,3.1071,3.1715,3.2755,3.3187,3.3402,3.3402,3.3402,3.2972,3.1835,3.2718,3.294,3.1819,3.2826,3.3555,3.3555,3.3961,3.4231,3.4231,3.4609,3.4824,3.4824,3.5,3.527,3.5661,3.5723,3.613,3.6832,3.6832,3.699,3.7269,3.6008,3.6114,3.7144,3.472,3.5043,3.7305,3.7305,3.7305,3.7305,3.7305,3.5753,3.3365,3.2156,3.1507,3.1251,3.1164,3.1129,3.1096,3.0874,3.1217,3.1661,3.1441,3.1579,3.175,3.1459,3.1565,3.1774,3.1774,3.1983,3.2349,3.2949,3.3108,3.3125,3.3206,3.4415,3.5347,3.5061,3.524,3.5474,3.5548,3.4577,3.3563,3.2911,3.2803,3.2803,3.2803,3.2803,3.2803,3.2803,3.2455,3.1635,3.0126,2.8495,2.7418,2.7122,2.7045,2.7002,2.7002,2.6735,2.6603,2.6603,2.6281,2.6088,2.6088,2.5766,2.5605,2.5588,2.5376,2.5217,3.1793,3.1898,3.1761,3.0728,3.0173,3.0174,0.0,0.0,3.0423,3.1478,3.2023,3.2343,3.2483,3.2828,3.3166,3.3312,3.3383,3.3402,3.3402,3.3402,3.3339,3.3181,3.3307,3.3339,3.3181,3.3674,3.402,3.402,3.4411,3.4629,3.4629,3.5059,3.5312,3.5312,3.6072,3.6499,3.6541,3.6912,3.7129,3.7226,3.7226,3.7246,3.7305,3.7109,3.7126,3.7287,3.695,3.6985,3.7305,3.7305,3.7305,3.7305,3.7305,3.708,3.6708,3.6201,3.5144,3.3917,3.3535,3.3443,3.3273,3.2261,3.3778,3.5829,3.4799,3.5442,3.6237,3.4874,3.4519,3.4537,3.4537,3.4574,3.4968,3.6377,3.6714,3.636,3.5043,3.5954,3.663,3.5276,3.6097,3.7155,3.7505,3.7438,3.6297,3.3256,3.2803,3.2803,3.2803,3.2803,3.2803,3.2803,3.2751,3.2077,3.0476,2.9881,2.8978,2.7533,2.7159,2.7002,2.7002,2.6954,2.6939,2.6939,2.6617,2.6439,2.6442,2.6102,2.5941,2.5941,2.5912,2.5608,3.2408,3.2468,3.2438,3.2118,3.1397,3.1071,3.2161,3.1726,3.1382,3.235,3.2871,3.3148,3.3148,3.3285,3.3402,0.0,3.3402,3.3402,3.3402,3.3402,3.3402,3.3402,3.3652,3.3824,3.3824,3.3981,3.4212,3.443,3.486,3.5098,3.5098,3.5779,3.615,3.615,3.6736,3.7049,3.7049,3.7207,3.7422,3.7638,3.7638,3.7793,3.8065,3.8065,3.8065,3.8065,3.8065,3.8065,3.8065,3.8065,3.8065,3.8065,3.8065,3.8065,3.7967,3.7303,3.6626,3.6061,3.5889,3.585,3.5764,3.5281,3.5992,3.6965,3.6466,3.6789,3.7162,3.6524,3.6347,3.6347,3.6347,3.6347,3.6564,3.7438,3.7638,3.7536,3.7176,3.7595,3.7865,3.7215,3.7631,3.8123,3.8281,3.8301,3.7825,3.6381,3.618,3.618,3.618,3.618,3.6069,3.5809,3.4157,3.3081,3.3075,3.1298,2.9892,2.9223,2.8863,2.8273,2.7331,2.7086,2.7002,2.7002,2.6852,2.6793,2.6793,2.6457,2.6278,2.6296,2.6088,2.5854,3.2899,3.2909,3.2964,3.2944,3.2366,3.194,3.2565,3.2405,3.2255,3.284,3.3187,3.3402,3.3402,3.3402,3.3402,3.3402,3.3402,3.3402,3.3402,3.3402,3.3461,3.3594,3.3903,3.4176,3.4446,3.4466,3.4587,3.4863,3.543,3.5759,3.5759,3.6462,3.6871,3.6871,3.7246,3.7461,3.7461,3.7598,3.7793,3.8087,3.8087,3.8262,3.8592,3.8592,3.8592,3.8592,3.8592,3.8592,3.8592,3.8592,3.8592,3.8592,3.8592,3.8592,3.8514,3.7889,3.7578,3.7461,3.7344,3.7305,3.7324,3.7441,3.7461,3.75,3.7617,3.7656,3.7656,3.7656,3.7656,3.7656,3.7656,3.7656,3.7734,3.8009,3.8087,3.8184,3.8514,3.8592,3.8592,3.8592,3.8592,3.8592,3.8592,3.869,3.8768,3.8768,3.8768,3.8729,3.8612,3.8592,3.8475,3.8144,3.609,3.4918,3.5302,3.321,3.1669,3.1225,3.0476,2.9514,2.836,2.7618,2.7217,2.7148,2.7148,2.7104,2.7002,2.6749,2.6632,2.6632,2.6398,2.6281,3.3377,3.3473,3.3509,3.3165,3.3417,3.3555,3.2943,3.334,3.3745,3.343,3.3402,3.3402,3.3402,3.3402,3.3402,3.3402,3.3402,3.3402,3.3402,3.3402,3.3558,3.402,3.4079,3.443,0.0,3.5351,3.5368,3.5388,3.6169,3.6675,3.6675,3.7068,3.7285,3.7285,3.7658,3.7892,3.7892,3.832,3.8571,3.8573,3.8573,3.8573,3.8592,3.8592,3.8592,3.8592,3.8592,3.8592,3.8592,3.8592,3.8592,3.8592,3.8592,3.8592,3.8611,3.8573,3.8262,3.7834,3.7441,3.7305,3.7363,3.7756,3.7892,3.797,3.8436,3.8553,3.8553,3.8553,3.8553,3.8553,3.8553,3.8553,3.8553,3.8573,3.8573,3.8573,3.8592,3.8592,3.8592,3.8592,3.8592,3.8592,3.8592,3.8925,3.918,3.918,3.918,3.9043,3.8651,3.8592,3.8592,3.8573,3.85,3.7804,3.6294,3.5779,3.4864,3.3299,3.1425,3.0357,3.032,2.8732,2.7755,2.7485,2.7485,2.7324,2.7002,2.6983,2.6969,2.6969,2.6969,2.6969,3.3791,3.3903,3.397,3.4174,3.4364,3.4365,3.3955,3.4057,3.4063,3.3513,3.3402,3.3402,3.3402,3.3402,3.3402,3.3402,3.3402,3.3402,3.3402,3.3672,3.3922,3.4095,3.4606,0.0,0.0,0.0,0.0,3.6208,3.6521,3.6832,3.7088,3.748,3.7697,3.7697,3.8125,3.8359,3.8359,3.8514,3.8729,3.9004,3.9297,3.9453,3.9453,3.9453,3.9453,3.9453,3.9453,3.9453,3.9453,3.9453,3.9453,3.9453,3.9453,3.9453,3.9453,3.9453,3.9355,3.9121,3.8416,3.8162,3.8182,3.8319,3.8359,3.8379,3.8553,3.8592,3.8592,3.8592,3.8592,3.8592,3.8592,3.8807,3.8984,3.8984,3.9257,3.9453,3.9453,3.9453,3.9453,3.9453,3.9453,3.9453,3.9453,3.9316,3.9101,3.8846,3.9023,3.9043,3.8651,3.8592,3.8592,3.8592,3.764,3.7217,3.7751,3.6718,3.5796,3.526,3.4386,3.2942,3.0764,2.9959,2.8982,2.7788,2.7769,2.7711,2.7609,2.7609,2.7609,2.7609,2.7609,2.7609,3.4282,3.4454,3.4616,3.4799,3.4851,3.4728,3.4316,3.422,3.4063,3.3513,3.3402,3.3402,3.3402,3.3402,3.3402,3.3402,3.3539,3.3652,3.3652,3.4023,3.4372,3.4547,3.5075,3.5508,0.0,0.0,0.0,3.6675,3.697,3.7226,3.75,3.793,3.8164,3.8164,3.8436,3.8671,3.8807,3.8807,3.9042,3.9453,3.9746,3.9902,3.9902,3.9902,3.9902,3.9902,3.9902,3.9902,3.9902,3.9902,3.9902,3.9902,3.9902,3.9902,3.9902,3.9902,3.9902,3.9824,3.9257,3.9061,3.9061,3.9061,3.9061,3.9061,3.9061,3.9061,3.9061,3.9061,3.9061,3.9061,3.9061,3.9257,3.9453,3.9453,3.9668,3.9902,3.9902,3.9766,3.9648,3.9648,3.9531,3.9452,3.9452,3.9297,3.9101,3.8846,3.9023,3.9043,3.8651,3.8592,3.8592,3.8592,3.7677,3.7475,3.8519,3.764,3.707,3.707,3.6312,3.4932,3.283,3.1434,3.0166,2.8947,2.8375,2.8009,2.7892,2.7892,2.7892,2.7892,2.7892,2.7892,3.4842,3.5122,3.5309,3.4999,3.4937,3.475,3.4079,3.3937,3.3827,3.3465,3.3402,3.3402,0.0,0.0,3.3402,3.3402,3.3789,3.4114,3.4114,3.4469,3.4902,0.0,0.0,0.0,0.0,0.0,0.0,3.6773,0.0,3.7912,3.7931,3.8377,3.8612,3.8631,3.8631,3.8827,3.9238,3.9258,3.9492,3.9922,3.996,3.9961,3.9961,3.9961,3.9961,3.9961,3.9961,3.9961,3.9961,3.9961,3.9961,3.9961,3.9961,3.9961,3.9961,3.9961,3.9961,3.9961,3.9961,3.9941,3.9902,3.9902,3.9902,3.9902,3.9902,3.9902,3.9902,3.9902,3.9902,3.9902,3.9902,3.9902,3.9902,3.9902,3.9902,3.9902,3.9902,3.9551,3.9238,3.9238,3.8944,3.8651,3.8631,3.8964,3.9199,3.918,3.916,3.9023,3.8651,3.8592,3.8592,3.8592,3.8592,3.8592,3.8592,3.8592,3.8592,3.8592,3.7162,3.6294,3.6201,3.3203,3.1325,3.0839,2.9332,2.8338,2.7936,2.7936,2.7936,2.7936,2.7936,2.7936,3.5169,3.5319,3.5371,3.5294,3.5263,3.5092,3.4439,3.4267,3.411,3.3513,3.3402,3.3402,3.3402,3.3402,0.0,3.3402,3.3789,0.0,3.4114,3.4743,0.0,3.5391,0.0,3.646,3.6675,3.7226,0.0,0.0,3.7795,3.8048,3.8398,3.8534,3.8729,3.9023,3.9043,3.9258,3.9726,4.002,4.0235,4.0352,4.0703,4.0859,4.0859,4.0859,4.0859,4.0859,4.0859,4.0859,4.0859,4.0859,4.0859,4.0859,4.0859,4.0859,4.0859,4.0859,4.0859,4.0859,4.0859,4.0449,3.9902,3.9902,3.9902,3.9902,3.9902,3.9902,3.9902,3.9902,3.9902,3.9902,3.9902,3.9902,3.9902,3.9902,3.9902,3.9902,3.9902,3.9805,3.9726,3.9726,3.9629,3.9472,3.9101,3.9141,3.9101,3.8807,3.8749,3.871,3.8612,3.8592,3.8592,3.8592,3.8592,3.8592,3.8592,3.8592,3.8592,3.8592,3.8208,3.7438,3.6238,3.5383,3.3756,3.1223,3.078,2.9927,2.8651,2.8651,2.8651,2.8651,2.8651,2.8651,3.534,3.5402,3.5402,3.5402,3.5278,3.5077,3.4704,3.4501,3.4251,3.3733,3.3623,3.356,3.3434,3.3513,3.356,0.0,0.0,0.0,3.4388,3.5117,3.5664,0.0,3.6287,0.0,3.6951,3.7539,3.799,0.0,3.8203,3.832,3.8573,3.8768,3.8983,3.9199,3.9394,3.9726,4.0176,4.0586,4.0801,4.082,4.1074,4.1191,4.1191,4.1191,4.1191,4.1191,0.0,4.1191,4.1191,4.1191,4.1191,4.1191,4.1191,4.1074,4.0879,4.0879,4.0781,4.0625,4.0625,4.0312,3.9961,4.0351,4.0468,4.043,4.0234,4.0176,4.0137,3.9941,3.9902,3.9902,3.9902,3.9902,3.9902,3.9902,3.9902,3.9902,3.9902,3.9726,3.9531,3.9374,3.9335,3.9257,3.8965,3.8944,3.8866,3.8631,3.8592,3.8592,3.8592,3.8592,3.8592,3.8592,3.8592,3.8592,3.8592,3.8592,3.8592,3.8592,3.8592,3.819,3.7291,3.5885,3.4579,3.3468,3.204,3.0851,2.9939,2.9939,2.9591,2.8905,2.8905,2.8905,3.5402,3.5402,3.5402,3.5402,3.5154,3.4906,3.4906,3.4641,3.4298,3.3969,3.3937,3.3843,3.3465,3.367,3.3816,3.3543,3.4421,3.5054,3.4834,3.5491,3.6018,3.6077,3.6484,3.6931,3.7344,3.7736,3.8164,3.8573,3.8651,3.8671,3.8671,3.9062,3.9316,3.9375,3.9824,4.0215,4.0508,4.0898,4.1074,4.1015,4.1015,4.1015,4.1015,4.1015,4.1015,4.1015,0.0,0.0,4.1015,4.1015,4.1015,4.1015,4.1015,4.0781,4.041,4.041,4.0215,3.9902,3.9902,3.9902,4.0019,4.0781,4.1015,4.0957,4.0528,4.041,4.0352,4.0,3.9902,3.9902,3.9902,3.9844,3.9805,3.9805,3.9766,3.9745,3.9745,3.9414,3.9022,3.8671,3.8592,3.8592,3.8592,3.8592,3.8592,3.8592,3.8592,3.8592,3.8592,3.8592,3.8592,3.8592,3.8592,3.8592,3.8592,3.8592,3.8592,3.8592,3.8592,3.8592,3.8592,3.5849,3.4935,3.6182,3.3184,3.1504,3.1293,3.1097,3.0268,2.8905,2.8905,2.8905,3.5402,3.5402,3.5402,3.5402,3.5154,3.4906,3.4906,3.4641,3.4298,3.3969,3.4126,3.4126,3.3513,3.367,3.3915,3.397,3.4424,3.489,3.5231,3.5703,3.6135,3.6541,3.6951,3.7344,3.7756,3.8203,0.0,0.0,0.0,0.0,3.9101,3.9531,3.9941,4.0254,4.0723,4.082,4.0508,4.0586,4.0449,4.0136,4.0136,4.0136,4.0136,4.0136,4.0136,4.0136,0.0,0.0,4.0136,4.0136,4.0136,4.0136,4.0136,4.0078,4.0,4.0,3.9961,3.9902,3.9902,3.9902,3.9922,4.0078,4.0136,4.0098,4.0019,4.0,3.998,3.9922,3.9902,3.9902,3.9902,3.9609,3.9316,3.9316,3.9081,3.8827,3.8827,3.8768,3.8671,3.8612,3.8592,3.8592,3.8592,3.8592,3.8592,3.8592,3.8592,3.8592,3.8592,3.8592,3.8592,3.8592,3.8592,3.8592,3.8592,3.8592,3.8592,3.8592,3.8592,3.8592,3.8592,3.8044,3.7254,3.622,3.4278,3.2633,3.1293,2.9959,2.9178,2.8905,2.8905,2.8905,3.5402,3.5402,3.5402,3.5402,3.5154,3.4953,3.5123,3.4766,3.4345,3.4188,3.4282,3.4204,3.3513,3.4005,3.4433,3.4155,3.4792,3.5336,3.5385,3.5762,3.6155,3.6638,3.7068,3.7461,3.7873,3.832,0.0,0.0,0.0,0.0,3.9219,3.9648,4.0098,4.0489,4.0508,4.041,4.0195,4.0195,4.0098,3.9902,3.9902,3.9902,3.9902,3.9902,3.9902,3.9902,0.0,0.0,0.0,3.9902,3.9902,3.9902,3.9902,3.9746,3.9531,3.9531,3.9394,3.9218,3.9218,3.9374,3.9531,3.9531,3.9707,3.9844,3.9609,3.9531,3.9531,3.9531,3.9531,3.959,3.9824,3.9726,3.9551,3.9551,3.9433,3.9276,3.9276,3.9276,3.9276,3.9276,3.9276,3.9276,3.9276,3.9062,3.8925,3.8925,3.8729,3.8592,3.8592,3.8592,3.8592,3.8592,3.8592,3.8592,3.8592,3.8592,3.8592,3.8592,3.8592,3.8592,3.8592,3.7806,3.7383,3.7438,3.5848,3.4203,3.2538,3.1775,3.0543,2.8905,2.8905,2.8905,3.5402,3.5402,3.5402,3.5402,3.5154,3.4984,3.5309,3.4875,3.4423,3.4501,3.4501,3.4298,3.3623,3.4374,3.492,3.4309,3.511,3.5744,3.5659,3.5835,3.6228,3.686,3.7142,3.75,3.799,3.8379,0.0,0.0,0.0,0.0,0.0,3.9824,4.0118,4.0352,4.0059,3.9844,3.9746,3.9746,3.9707,3.9609,3.9609,3.9609,3.9609,3.9609,3.9609,3.9609,0.0,0.0,0.0,3.9609,3.9609,3.9609,3.9609,3.9413,3.9082,3.916,3.8984,3.8749,3.8846,3.91,3.9355,3.9355,3.959,3.9824,3.9453,3.9355,3.9355,3.9355,3.9355,3.9434,3.9805,3.9902,3.9902,3.9902,3.9902,3.9902,3.9902,3.9902,3.9902,3.9902,3.9902,3.9902,3.9902,3.959,3.9355,3.9355,3.9003,3.8729,3.8729,3.8651,3.8592,3.8592,3.8592,3.8592,3.8592,3.8592,3.8592,3.8592,3.8592,3.8592,3.8592,3.7383,3.7309,3.8574,3.7015,3.5551,3.4224,3.3543,3.189,2.9411,2.9061,2.8905,3.5402,3.5402,3.5402,3.5402,3.5154,3.4984,3.5309,3.4875,3.4485,3.4782,3.4844,3.4657,3.3985,3.4532,3.5004,3.4684,3.5092,3.5678,3.6299,3.6163,3.6431,3.7549,3.7459,3.7635,3.8456,3.8573,0.0,0.0,0.0,0.0,0.0,4.043,4.0293,3.9961,3.9922,3.9687,3.9277,3.9258,3.9062,3.871,3.871,3.871,3.871,3.871,3.871,3.871,0.0,0.0,0.0,3.871,3.871,3.871,3.871,3.869,3.869,3.9062,3.918,3.9199,3.9629,3.9805,3.9824,3.9824,3.9863,3.9883,3.9844,3.9824,3.9824,3.9824,3.9824,3.9844,3.9883,3.9902,3.9902,3.9902,3.9902,3.9902,3.9902,3.9902,3.9902,3.9902,3.9902,3.9902,3.9902,3.9863,3.9824,3.9824,3.9434,3.9141,3.9141,3.8827,3.8592,3.8592,3.8592,3.8592,3.8592,3.8592,3.8592,3.8592,3.8592,3.8592,3.8592,3.8465,3.8447,3.8592,3.7015,3.6127,3.596,3.2975,3.137,3.1024,2.9586,2.8905,3.5402,3.5402,3.5402,3.5402,3.5294,3.5232,3.5371,3.4875,3.4501,3.4828,3.4579,3.4282,3.422,3.4736,3.5126,3.5011,3.5426,3.5854,3.6163,3.6504,3.6912,3.7437,3.7822,3.816,0.0,0.0,0.0,0.0,0.0,0.0,0.0,3.9708,3.9648,3.9492,3.9238,3.9022,3.8846,3.8846,3.8768,3.8592,3.8592,3.8592,3.8592,3.8592,3.8592,0.0,0.0,0.0,0.0,3.8592,3.8592,3.8612,3.8866,3.8945,3.9004,3.9453,3.9609,3.9648,3.9824,4.0059,4.0254,4.0254,4.0449,4.0585,4.0059,3.9902,3.9941,4.0176,4.0254,4.0332,4.0625,4.0683,4.0683,4.0683,4.0683,4.0683,4.0683,4.0683,4.0683,4.0683,4.0683,4.0683,4.0683,4.0449,4.0254,4.0254,3.9902,3.9609,3.9609,3.9219,3.8945,3.8945,3.8749,3.8592,3.8592,3.8592,3.8592,3.8592,3.8592,3.8592,3.8592,3.8592,3.8592,3.8592,3.797,3.7162,3.6201,3.4879,3.3222,3.1274,3.0655,2.9823,3.5402,3.5402,3.5402,3.5402,3.5402,3.5402,3.5402,3.4953,3.4641,3.4984,3.4595,3.4267,3.4501,3.4988,3.5341,3.5377,3.5733,3.6084,3.6287,3.6744,3.7144,3.7422,3.796,3.8393,0.0,0.0,0.0,0.0,0.0,0.0,0.0,0.0,3.9004,3.9004,3.8749,3.8592,3.8592,3.8592,3.8592,3.8592,3.8592,3.8592,3.8592,3.8592,3.8592,0.0,0.0,0.0,0.0,3.8729,3.8788,3.8827,3.9238,3.9414,3.9453,3.9922,4.0078,4.0098,4.0234,4.0469,4.0742,4.084,4.1113,4.1289,4.0781,4.0469,4.0371,4.0762,4.1073,4.1366,4.1856,4.1954,4.1954,4.1954,4.1954,4.1954,4.1954,4.1954,4.1954,4.1974,4.1856,4.1719,4.1601,4.121,4.084,4.0723,4.0351,4.0078,4.0078,3.9687,3.9355,3.9219,3.8964,3.8729,3.8612,3.8592,3.8592,3.8592,3.8592,3.8592,3.8592,3.8592,3.8592,3.8592,3.8592,3.8044,3.6904,3.6423,3.501,3.2728,3.2233,3.1159,3.5402,3.5402,3.5402,3.5402,3.5402,3.5402,3.5402,3.5139,3.4984,3.5325,3.5123,3.4891,3.4891,3.5338,3.5735,3.5767,3.5917,3.6253,3.6994,3.6867,3.6992,3.7702,3.7871,3.8105,3.8553,0.0,0.0,0.0,0.0,0.0,0.0,0.0,3.8611,3.8611,3.8592,3.8592,3.8592,3.8592,3.8592,3.8592,3.8592,3.8592,3.8592,3.8592,0.0,0.0,0.0,0.0,0.0,3.9023,3.9199,3.9238,3.9707,3.9883,3.9941,4.0352,4.0489,4.0567,4.1035,4.1191,4.125,4.166,4.1797,4.1875,4.2265,4.1816,4.1269,4.166,4.2407,4.3161,4.3658,4.3737,4.3678,4.3757,4.3737,4.3678,4.3678,4.3678,4.3678,4.3757,4.34,4.2942,4.2565,4.2112,4.1641,4.125,4.0801,4.0489,4.0489,4.0156,3.9707,3.9258,3.9199,3.9023,3.8631,3.8592,3.8592,3.8592,3.8592,3.8592,3.8592,3.8592,3.8592,3.8592,3.8592,3.8592,3.8574,3.6978,3.6182,3.6108,3.4448,3.2823,3.5402,3.5402,3.5402,3.5402,3.5402,3.5402,3.5402,3.5139,3.4999,3.5325,3.4766,3.4439,3.5123,3.5131,3.5263,3.603,3.6067,3.6253,3.6994,3.7588,3.8005,3.8195,3.8555,3.8864,0.0,0.0,0.0,0.0,0.0,0.0,0.0,0.0,3.8592,3.8592,3.8592,3.8592,3.8592,3.8592,3.8592,3.8592,3.8592,3.8592,3.8592,0.0,0.0,0.0,0.0,0.0,0.0,3.9629,3.9668,3.9726,4.0137,4.0313,4.0352,4.0801,4.0996,4.1054,4.1465,4.1601,4.168,4.207,4.2207,4.2286,4.2743,4.2704,4.2566,4.3002,4.33,4.3539,4.3698,4.3717,4.3717,4.3737,4.3717,4.3697,4.3697,4.3697,4.3717,4.3797,4.3638,4.338,4.2982,4.2566,4.2132,4.168,4.125,4.0996,4.0996,4.0586,4.0254,4.0098,3.957,3.9023,3.8631,3.8592,3.8592,3.8592,3.8592,3.8592,3.8592,3.8592,3.8592,3.8592,3.8592,3.8592,3.8592,3.808,3.7272,3.6164,3.4485,3.2842,3.5402,3.5402,3.5402,3.5402,3.5402,3.5402,3.5402,3.5232,3.5154,3.5356,3.4906,3.4666,3.5349,3.538,3.5583,3.6379,3.6466,3.6626,3.7213,3.7963,3.8562,3.8849,3.9212,0.0,0.0,0.0,0.0,0.0,0.0,0.0,0.0,0.0,3.883,3.883,3.8683,3.8592,3.8592,3.8592,3.8671,3.8827,3.8827,3.8925,3.91,0.0,0.0,0.0,0.0,0.0,0.0,4.0059,4.0137,4.0176,4.0605,4.0762,4.082,4.1269,4.1426,4.1484,4.1894,4.2031,4.2109,4.2539,4.2895,4.3274,4.3879,4.384,4.366,4.4079,4.4319,4.4481,4.4641,4.4681,4.4681,4.4681,4.4681,4.4681,4.4681,4.4681,4.4681,4.4741,4.4601,4.432,4.3899,4.3221,4.2586,4.2132,4.1563,4.125,4.1424,4.1034,4.0761,4.0719,4.0095,3.9531,3.912,3.8788,3.8592,3.8592,3.8592,3.8592,3.8592,3.8592,3.8592,3.8592,3.8592,3.8592,3.8592,3.8592,3.808,3.707,3.5402,3.4109,0.0,3.5402,3.5402,3.5402,3.5402,3.5402,3.5402,3.5402,0.0,3.5402,3.5371,3.5423,3.5592,3.5983,3.6416,3.6861,3.7031,3.725,3.7623,3.8158,3.8839,0.0,3.9825,0.0,0.0,0.0,0.0,0.0,0.0,0.0,0.0,0.0,0.0,3.9233,3.8908,3.8707,3.8631,3.8671,3.8885,3.9258,3.9258,3.9473,3.9902,0.0,0.0,0.0,0.0,0.0,0.0,4.0391,4.0547,4.0586,4.1035,4.1211,4.1289,4.166,4.1816,4.1894,4.2304,4.246,4.2519,4.3029,4.3767,4.4596,4.5433,4.5129,4.4583,4.4985,4.5412,4.582,4.6205,4.6307,4.6307,4.6307,4.6307,4.6307,4.6307,4.6307,4.6307,4.6307,4.6003,4.5616,4.5126,4.404,4.3082,4.2644,4.1876,4.1444,4.1792,4.1521,4.1248,4.116,4.0795,4.039,3.998,3.9139,3.8631,3.8631,3.8612,3.8592,3.8592,3.8592,3.8592,3.8592,3.8592,3.8592,3.8592,3.8592,3.8592,3.8556,3.707,3.6312,3.5402,0.0,3.5402,3.5402,3.5402,3.5402,0.0,3.5402,3.5402,3.5402,3.5201,3.522,3.5861,3.5951,3.6237,3.7192,3.7214,3.7435,3.8373,3.9233,0.0,4.0141,4.05,0.0,0.0,0.0,0.0,0.0,0.0,0.0,0.0,0.0,0.0,3.9671,3.9914,3.9729,3.9062,3.9433,3.9629,3.9726,3.9726,3.9785,0.0,0.0,0.0,0.0,0.0,0.0,0.0,4.0996,4.1035,4.1054,4.1152,4.1387,4.166,4.1758,4.1992,4.2324,4.2773,4.295,4.3049,4.3848,4.4434,4.4964,4.5535,4.5556,4.5474,4.5879,4.6082,4.6185,4.6286,4.6307,4.6307,4.6307,4.6307,4.6307,4.6307,4.6307,4.6307,4.6307,4.6226,4.6043,4.5596,4.4986,4.4299,4.3518,4.2978,4.2558,4.2275,4.2177,4.2003,4.1672,4.124,4.0793,4.0391,3.957,3.9062,3.9062,3.8768,3.8592,3.8592,3.8592,3.8592,3.8592,3.8592,3.8592,3.8592,3.8592,3.8592,3.8592,3.8208,3.7383,3.5402,3.5402,3.5402,3.5402,3.5402,3.5402,3.5402,3.5402,3.5402,3.5402,3.5428,3.5591,3.6111,3.6402,3.6787,3.7435,3.759,3.7962,3.8975,3.9751,4.028,4.0555,4.0827,0.0,0.0,0.0,0.0,0.0,0.0,0.0,0.0,0.0,0.0,0.0,4.075,4.0375,3.9531,3.9766,4.0,4.0176,4.0176,4.0293,0.0,0.0,0.0,0.0,0.0,0.0,4.1191,4.1191,4.1191,4.1211,4.1406,4.1601,4.1855,4.2246,4.2519,4.2793,4.3223,4.3523,4.3787,4.4454,4.4964,4.5393,4.584,4.5962,4.6023,4.6246,4.6307,4.6307,4.6307,4.6307,4.6307,4.6307,4.6307,4.6307,4.6307,4.6307,4.6307,4.6307,4.6307,4.6226,4.6003,4.5431,4.4781,4.4115,4.3512,4.301,4.272,4.2504,4.2312,4.2101,4.1689,4.1262,4.0859,4.0195,3.9726,3.9531,3.9101,3.8885,3.8885,3.869,3.8592,3.8592,3.8592,3.8592,3.8592,3.8592,3.8592,3.8592,3.8592,3.8135,3.5402,3.5402,3.5402,3.5402,3.5402,3.5402,3.5402,3.5402,3.5402,3.5402,3.5775,3.6151,3.6352,3.6982,3.7534,3.7671,3.8094,3.8667,3.9399,3.9975,4.0451,4.0838,0.0,0.0,0.0,0.0,0.0,0.0,0.0,0.0,0.0,0.0,0.0,0.0,4.1453,4.0944,4.0211,4.0135,4.0273,4.0606,4.0606,4.082,4.1191,0.0,0.0,0.0,0.0,0.0,4.1191,4.1191,4.1191,4.123,4.1641,4.1836,4.1992,4.2813,4.3186,4.3365,4.3779,4.4164,4.4555,4.4964,4.5393,4.578,4.6185,4.6307,4.6307,4.6307,4.6307,4.6307,4.6307,4.6307,4.6307,4.6307,4.6307,4.6307,4.6307,4.6307,4.6307,4.6307,4.6307,4.6307,4.6307,4.5674,4.5042,4.4572,4.3848,4.3324,4.3124,4.2793,4.2562,4.2485,4.214,4.1734,4.1327,4.0878,4.0469,4.0117,3.959,3.9316,3.9316,3.8983,3.8788,3.8788,3.8788,3.8788,3.8788,3.8788,3.8788,3.8788,3.8788,3.8788,3.5402,3.5402,3.5402,3.5402,3.5402,3.5402,3.5402,3.5402,3.5402,3.5402,3.5775,3.623,3.6658,3.7145,3.7637,3.8042,0.0,3.9337,0.0,0.0,4.0817,0.0,0.0,0.0,0.0,0.0,0.0,0.0,0.0,0.0,0.0,0.0,0.0,0.0,0.0,4.198,4.1517,4.117,4.1035,4.1094,4.1094,4.1133,4.1191,4.1191,0.0,0.0,0.0,0.0,4.1191,4.1191,4.1191,4.123,4.1641,4.2012,4.2363,4.2891,4.3566,4.425,4.4658,4.4861,4.4984,4.5433,4.5637,4.578,4.6185,4.6307,4.6307,4.6307,4.6307,4.6307,4.6307,4.6307,4.6307,4.6307,4.6307,4.6307,4.6307,4.6307,4.6307,4.6307,4.6307,4.6307,4.6307,4.6184,4.5833,4.5047,4.4802,4.4432,4.3604,4.3462,4.3291,4.2947,4.2563,4.2159,4.1734,4.1346,4.1074,4.0996,4.0253,3.9785,3.9785,3.9726,3.9687,3.9687,3.9687,3.9687,3.9687,3.9687,3.9687,3.9687,3.9687,3.9687,3.5402,3.5402,3.5402,3.5402,3.5402,3.5402,3.5402,3.5609,3.5775,3.5775,3.6354,3.6929,3.7136,3.755,3.8026,3.8444,0.0,3.9585,0.0,0.0,0.0,0.0,0.0,0.0,0.0,0.0,0.0,0.0,0.0,0.0,0.0,0.0,0.0,0.0,0.0,0.0,4.212,4.1734,4.1424,4.1191,4.1191,4.1191,4.1191,4.1191,4.1191,0.0,0.0,4.1191,4.1191,4.1191,4.1191,4.125,4.1894,4.2246,4.25,4.3449,4.4191,4.4739,4.4943,4.5168,4.5413,4.5637,4.584,4.6064,4.6246,4.6307,4.6307,4.6307,4.6307,4.6307,4.6307,4.6307,4.6307,4.6307,4.6307,4.6307,4.6307,4.6307,4.6307,4.6307,4.6307,4.6307,4.6307,4.6307,4.5996,4.5126,4.5002,4.465,4.372,4.3596,4.3443,4.3042,4.2832,4.2563,4.2158,4.1753,4.1326,4.0859,4.0449,4.0137,3.9902,3.9902,3.9902,3.9902,3.9902,3.9902,3.9902,3.9902,3.9902,3.9902,3.9902,3.9902,3.5402,3.5402,3.5402,3.5402,3.5402,3.5443,3.5547,3.5837,3.6126,3.623,3.6929,3.7488,3.7488,3.7897,0.0,3.872,3.9175,0.0,0.0,0.0,0.0,0.0,0.0,0.0,0.0,0.0,0.0,0.0,0.0,0.0,0.0,0.0,0.0,0.0,0.0,0.0,4.2408,4.2005,4.1599,4.1191,4.1191,4.1191,4.1191,4.1191,4.1191,4.1191,4.1191,4.1191,4.1191,4.1191,4.125,4.1406,4.2109,4.2579,4.3014,4.4132,4.4821,4.5168,4.527,4.5535,4.5841,4.5841,4.6043,4.6307,4.6307,4.6307,4.6307,4.6307,4.6307,4.6307,4.6307,4.6307,4.6307,4.6307,4.6307,4.6307,4.6307,4.6307,4.6307,4.6307,4.6307,4.6307,4.6307,4.6307,4.5996,4.5126,4.5002,4.465,4.372,4.3596,4.3481,4.3176,4.2966,4.2659,4.2158,4.1831,4.1364,4.0722,4.0664,4.0527,4.0234,4.0195,4.0195,4.0195,4.0195,4.0195,4.0195,4.0195,4.0195,4.0195,4.0195,4.0195,3.5402,3.5402,3.5402,3.5402,3.5402,3.5511,3.594,3.6064,3.6209,3.666,3.7156,3.7488,3.7488,3.7897,3.8336,3.872,3.9175,0.0,0.0,0.0,0.0,0.0,0.0,0.0,0.0,0.0,0.0,0.0,0.0,0.0,0.0,0.0,0.0,0.0,0.0,0.0,4.2408,4.2005,4.1599,4.1191,4.1191,4.1191,4.1191,4.1191,4.1191,4.1191,4.1191,4.1191,4.1191,4.1191,4.1426,4.1797,4.2226,4.3153,4.4311,4.478,4.525,4.5698,4.6084,4.6226,4.6266,4.6266,4.6286,4.6307,4.6307,4.6307,4.6307,4.6307,4.6307,4.6307,4.6307,4.6307,4.6307,4.6307,4.6307,4.6307,4.6307,4.6307,4.6307,4.6307,4.6307,4.6307,4.6307,4.6307,4.5996,4.5126,4.5002,4.465,4.372,4.3596,4.3596,4.3558,4.2888,4.214,4.1347,4.1269,4.1211,4.1152,4.1152,4.1133,4.1094,4.1094,4.1094,4.1094,4.1094,4.1094,4.1094,4.1094,4.1094,4.1094,4.1094,4.1094,3.5402,3.5402,3.5485,3.5754,3.5837,3.5878,3.6064,3.6328,3.668,3.7136,3.7628,0.0,0.0,0.0,3.8716,3.9171,0.0,0.0,0.0,0.0,0.0,0.0,0.0,0.0,0.0,0.0,0.0,0.0,0.0,0.0,0.0,0.0,0.0,0.0,0.0,0.0,0.0,4.2235,4.1966,4.156,4.1327,4.1191,4.1211,4.1463,4.1444,4.1211,4.1443,4.1444,4.1191,4.1191,4.1445,4.1895,4.284,4.3835,4.4841,4.527,4.5698,4.6084,4.6246,4.6307,4.6307,4.6307,4.6307,4.6307,4.6307,4.6307,4.6307,4.6307,4.6307,4.6307,4.6307,4.6307,4.6307,4.6307,4.6307,4.6307,4.6307,4.6307,4.6307,4.6307,4.6307,4.6307,4.6307,4.6307,4.5996,4.5126,4.5002,4.465,4.372,4.3596,4.35,4.3253,4.2715,4.2177,4.1618,4.156,4.1483,4.1211,4.1191,4.1191,4.1191,4.1191,4.1191,4.1191,4.1191,4.1191,4.1191,4.1191,4.1191,4.1191,4.1191,4.1191,3.5402,3.5506,3.5692,3.6023,3.6209,3.6354,3.6515,3.6784,3.7156,3.7612,3.798,3.8208,3.8208,0.0,0.0,0.0,0.0,0.0,0.0,0.0,0.0,0.0,0.0,0.0,0.0,0.0,0.0,0.0,0.0,0.0,0.0,0.0,0.0,0.0,0.0,0.0,0.0,4.2274,4.2024,4.1599,4.1327,4.1269,4.1405,4.154,4.1521,4.1405,4.156,4.1463,4.1191,4.1191,4.1602,4.2348,4.3597,4.4561,4.525,4.5596,4.5942,4.6307,4.6307,4.6307,4.6307,4.6307,4.6307,4.6307,4.6307,4.6307,4.6307,4.6307,4.6307,4.6307,4.6307,4.6307,4.6307,4.6307,4.6307,4.6307,4.6307,4.6307,4.6307,4.6307,4.6307,4.6307,4.6307,4.6183,4.5851,4.5105,4.4857,4.4484,4.3699,4.3596,4.3405,4.287,4.2447,4.2062,4.1637,4.1599,4.1482,4.1211,4.1191,4.1191,4.1191,4.1191,4.1191,4.1191,4.1191,4.1191,4.1191,4.1191,4.1191,4.1191,4.1191,4.1191,3.5423,3.5754,3.6106,3.6106,3.6457,3.6929,3.7384,3.7508,3.7632,3.8104,3.8208,3.8208,3.8208,0.0,0.0,0.0,0.0,0.0,0.0,0.0,0.0,0.0,0.0,0.0,0.0,0.0,0.0,0.0,0.0,0.0,0.0,0.0,0.0,0.0,0.0,0.0,0.0,4.2024,4.1599,4.1211,4.1191,4.1424,4.1773,4.1386,4.1424,4.1773,4.1386,4.1191,4.1191,4.1211,4.1955,4.324,4.4521,4.5291,4.5698,4.5698,4.5942,4.6307,4.6307,4.6307,4.6307,4.6307,4.6307,4.6307,4.6307,4.6307,4.6307,4.6307,4.6307,4.6307,4.6307,4.6307,4.6307,4.6307,4.6307,4.6307,4.6307,4.6307,4.6307,4.6307,4.6307,4.6307,4.6307,4.5954,4.5539,4.5064,4.4588,4.4132,4.3677,4.3596,4.327,4.2485,4.2043,4.1618,4.125,4.1191,4.1191,4.1191,4.1191,4.1191,4.1191,4.1191,4.1191,4.1191,4.1191,4.1191,4.1191,4.1191,4.1191,4.1191,4.1191,4.1191,3.5795,3.5981,3.625,3.6929,3.7177,3.7405,3.7897,3.7752,3.7632,3.8104,3.8208,3.8274,3.8568,0.0,0.0,0.0,0.0,0.0,0.0,0.0,0.0,0.0,0.0,0.0,0.0,0.0,0.0,0.0,0.0,0.0,0.0,0.0,0.0,0.0,0.0,0.0,0.0,0.0,4.2158,4.2043,4.1483,4.1269,4.1386,4.156,4.1521,4.1386,4.156,4.1463,4.1269,4.2171,4.2764,4.326,4.4866,4.5596,4.5739,4.6023,4.6205,4.6307,4.6307,4.6307,4.6307,4.6307,4.6307,4.6307,4.6307,4.6307,4.6307,4.6307,4.6307,4.6307,4.6307,4.6307,4.6307,4.6307,4.6307,4.6307,4.6307,4.6307,4.6307,4.6307,4.6307,4.6307,4.6307,4.5954,4.5539,4.5064,4.4588,4.4132,4.3677,4.3119,4.2754,4.2812,4.1947,4.1444,4.1599,4.1366,4.1191,4.1191,4.1191,4.1191,4.1191,4.1191,4.1191,4.1191,4.1191,4.1191,4.1191,4.1191,4.1191,4.1191,4.1191,4.1191,3.5961,3.6246,3.6556,3.7301,3.7632,3.7856,3.8146,3.798,3.7856,0.0,3.8316,3.8506,3.8758,0.0,0.0,0.0,0.0,0.0,0.0,0.0,0.0,0.0,0.0,0.0,0.0,0.0,0.0,0.0,0.0,0.0,0.0,0.0,0.0,0.0,0.0,0.0,0.0,0.0,0.0,4.2139,4.1502,4.1191,4.1211,4.1463,4.1521,4.1463,4.1695,4.1657,4.1522,4.2801,4.3438,4.3758,4.5147,4.5798,4.5962,4.6205,4.6307,4.6307,4.6307,4.6307,4.6307,4.6307,4.6307,4.6307,4.6307,4.6307,4.6307,4.6307,4.6307,4.6307,4.6307,4.6307,4.6307,4.6307,4.6307,4.6307,4.6307,4.6307,4.6307,4.6307,4.6307,4.6307,4.6307,4.581,4.5332,4.5043,4.4443,4.3925,4.3637,4.3042,4.2736,4.2966,4.2197,4.1715,4.1792,4.1579,4.1366,4.1211,4.1191,4.1191,4.1191,4.1191,4.1191,4.1191,4.1191,4.1191,4.1191,4.1191,4.1191,4.1191,4.1191,4.1191,3.6085,3.6556,3.697,3.7446,3.7897,3.8208,3.8208,3.8208,3.8208,3.8208,0.0,3.8803,3.8844,0.0,0.0,0.0,0.0,0.0,0.0,0.0,0.0,0.0,0.0,0.0,0.0,0.0,0.0,0.0,0.0,0.0,0.0,0.0,0.0,0.0,0.0,0.0,0.0,0.0,0.0,0.0,4.1502,4.1288,4.125,4.1211,4.1424,4.1792,4.1792,4.1811,4.1948,4.3184,4.3983,4.4492,4.5359,4.5954,4.6307,4.6307,4.6307,4.6307,4.6307,4.6307,4.6307,4.6307,4.6307,4.6307,4.6307,4.6307,4.6307,4.6307,4.6307,4.6307,4.6307,4.6307,4.6307,4.6307,4.6307,4.6307,4.6307,4.6307,4.6307,4.6307,4.6307,4.6307,4.6307,4.5582,4.496,4.4877,4.4153,4.3596,4.3596,4.3253,4.3004,4.3042,4.2659,4.2235,4.1889,4.1811,4.1618,4.123,4.1191,4.1191,4.1191,4.1191,4.1191,4.1191,4.1191,4.1191,4.1191,4.1191,4.1191,4.1191,4.1191,4.1191,3.697,3.726,3.7446,3.7939,3.8125,3.8208,3.8208,3.8208,3.8208,3.8208,3.8526,3.8906,0.0,0.0,0.0,0.0,0.0,0.0,0.0,0.0,0.0,0.0,0.0,0.0,0.0,0.0,0.0,0.0,0.0,0.0,0.0,0.0,0.0,0.0,0.0,0.0,4.3462,4.2985,4.2736,0.0,4.2332,4.1985,4.1657,4.1347,4.1424,4.1792,4.1792,4.1985,4.2352,4.33,4.3983,4.4492,4.5359,4.5954,4.6307,4.6307,4.6307,4.6307,4.6307,4.6307,4.6307,4.6307,4.6307,4.6307,4.6307,4.6307,4.6307,4.6307,4.6307,4.6307,4.6307,4.6307,4.6307,4.6307,4.6307,4.6307,4.6307,4.6307,4.6307,4.6307,4.6307,4.6307,4.6307,4.5582,4.4753,4.4029,4.3739,4.3596,4.3596,4.3253,4.3119,4.3443,4.283,4.237,4.2274,4.1985,4.1618,4.123,4.1191,4.1191,4.1191,4.1191,4.1191,4.1191,4.1191,4.1191,4.1191,4.1191,4.1191,4.1191,4.1191,4.1191,3.7301,3.7488,3.7612,3.8084,3.8208,3.8208,3.8208,3.8208,3.8253,3.846,3.882,3.9296,0.0,0.0,0.0,0.0,0.0,0.0,0.0,0.0,0.0,0.0,0.0,0.0,0.0,0.0,0.0,0.0,0.0,0.0,0.0,0.0,0.0,0.0,0.0,0.0,4.3596,4.3195,4.2985,4.2985,4.2581,4.2293,4.2082,4.1657,4.1715,4.2101,4.2294,4.2486,4.2737,4.3404,4.407,4.4727,4.5192,4.5748,4.6307,4.6307,4.6307,4.6307,4.6307,4.6307,4.6307,4.6307,4.6307,4.6307,4.6307,4.6307,4.6307,4.6307,4.6307,4.6307,4.6307,4.6307,4.6307,4.6307,4.6307,4.6307,4.6307,4.6307,4.6307,4.6307,4.6307,4.6245,4.6037,4.5271,4.4422,4.3718,4.3596,4.3596,4.3596,4.3424,4.3367,4.3577,4.3213,4.2908,4.2697,4.2505,4.212,4.1521,4.1502,4.1405,4.1211,4.1191,4.1191,4.1191,4.1191,4.1191,4.1191,4.1191,4.1191,4.1191,4.1191,4.1191,3.7488,3.7612,3.7715,3.8104,3.8208,3.8208,3.8208,3.8253,3.8419,3.8841,3.9216,0.0,0.0,0.0,0.0,0.0,0.0,0.0,0.0,0.0,0.0,0.0,0.0,0.0,0.0,0.0,0.0,0.0,0.0,0.0,0.0,0.0,4.3596,0.0,0.0,4.3596,4.3596,4.3272,4.31,4.31,4.2697,4.2543,4.2581,4.2197,4.2197,4.2504,4.2851,4.3042,4.3119,4.3462,4.4153,4.5002,4.5002,4.552,4.6307,4.6307,4.6307,4.6307,4.6307,4.6307,4.6307,4.6307,4.6307,4.6307,4.6307,4.6307,4.6307,4.6307,4.6307,4.6307,4.6307,4.6307,4.6307,4.6307,4.6307,4.6307,4.6307,4.6307,4.6307,4.6307,4.6245,4.6058,4.5643,4.4857,4.4153,4.3658,4.3596,4.3596,4.3596,4.3596,4.3596,4.3596,4.3596,4.3443,4.3023,4.2985,4.2678,4.1947,4.1908,4.1753,4.1424,4.1347,4.1308,4.1308,4.123,4.1191,4.1191,4.1191,4.1191,4.1191,4.1191,4.1191,3.798,3.8104,3.8125,3.8187,3.8208,3.8208,3.8208,3.8464,3.8861,0.0,3.9461,0.0,0.0,0.0,0.0,0.0,0.0,0.0,0.0,0.0,0.0,0.0,0.0,0.0,0.0,0.0,0.0,0.0,0.0,0.0,0.0,4.3137,4.3596,4.3596,4.3596,0.0,4.3596,4.3558,4.352,4.352,4.31,4.31,4.3443,4.3023,4.287,4.2908,4.2966,4.3195,4.352,4.3577,4.4153,4.5002,4.5002,4.552,4.6307,4.6307,4.6307,4.6307,4.6307,4.6307,4.6307,4.6307,4.6307,4.6307,4.6307,4.6307,4.6307,4.6307,4.6307,4.6307,4.6307,4.6307,4.6307,4.6307,4.6307,4.6307,4.6307,4.6307,4.6307,4.6307,4.6017,4.5623,4.5167,4.465,4.4153,4.3658,4.3596,4.3596,4.3596,4.3596,4.3596,4.3596,4.3596,4.3443,4.3023,4.2985,4.2812,4.2351,4.2312,4.2293,4.2235,4.1908,4.1715,4.1715,4.1386,4.1191,4.1191,4.1191,4.1191,4.1191,4.1191,4.1191,3.8146,3.8208,3.8208,3.8208,3.8208,3.8208,3.8208,3.8506,3.8927,3.9382,0.0,0.0,0.0,0.0,0.0,0.0,0.0,0.0,0.0,0.0,0.0,0.0,0.0,0.0,0.0,0.0,0.0,0.0,0.0,0.0,4.2621,4.3242,4.3596,4.3596,4.3596,0.0,4.3596,4.3596,4.3596,4.3596,4.3424,4.3424,4.3596,4.3424,4.3329,4.3329,4.3329,4.3443,4.3596,4.3596,4.4153,4.5002,4.5002,4.552,4.6307,4.6307,4.6307,4.6307,4.6307,4.6307,4.6307,4.6307,4.6307,4.6307,4.6307,4.6307,4.6307,4.6307,4.6307,4.6307,4.6307,4.6307,4.6307,4.6307,4.6307,4.6307,4.6307,4.6307,4.6307,4.6307,4.5748,4.5229,4.5022,4.4401,4.3842,4.3616,4.3596,4.3596,4.3596,4.3596,4.3596,4.3596,4.3596,4.3539,4.3348,4.3329,4.3157,4.2755,4.2736,4.264,4.2408,4.2216,4.2043,4.1792,4.1405,4.1191,4.1191,4.1191,4.1191,4.1191,4.1191,4.1191,3.8208,3.8208,3.8208,3.8208,3.8208,3.8208,3.8208,3.8609,3.9072,0.0,0.0,0.0,0.0,0.0,0.0,0.0,0.0,0.0,0.0,0.0,0.0,0.0,0.0,0.0,0.0,0.0,0.0,0.0,0.0,0.0,4.2872,4.3347,4.3596,4.3596,4.3596,4.3596,4.3596,4.35,4.3443,4.3443,4.3348,4.3405,4.3596,4.35,4.35,4.3596,4.3596,4.3596,4.3596,4.3596,4.4153,4.5002,4.5002,4.552,4.6307,4.6307,4.6307,4.6307,4.6307,4.6307,4.6307,4.6307,4.6307,4.6307,4.6307,4.6307,4.6307,4.6307,4.6307,4.6307,4.6307,4.6307,4.6307,4.6307,4.6307,4.6307,4.6307,4.6307,4.6265,4.6162,4.554,4.496,4.4836,4.4153,4.3596,4.3596,4.3596,4.3596,4.3596,4.3596,4.3596,4.3596,4.3596,4.3596,4.3596,4.3596,4.3462,4.3157,4.3138,4.3023,4.2715,4.26,4.2409,4.2101,4.1618,4.1308,4.1191,4.1191,4.1191,4.1191,4.1191,4.1191,3.8208,3.8208,3.8208,3.8208,3.8208,3.8208,3.8208,3.8857,3.9482,3.9502,0.0,0.0,0.0,0.0,0.0,0.0,0.0,0.0,0.0,0.0,0.0,0.0,0.0,0.0,0.0,0.0,0.0,0.0,0.0,0.0,4.2872,4.3347,4.3596,4.3596,4.3596,4.3596,4.3596,4.3214,4.3023,4.3023,4.2639,4.285,4.3596,4.3214,4.3233,4.3596,4.3596,4.3596,4.3596,4.3596,4.4153,4.5002,4.5002,4.552,4.6307,4.6307,4.6307,4.6307,4.6307,4.6307,4.6307,4.6307,4.6307,4.6307,4.6307,4.6307,4.6307,4.6307,4.6307,4.6307,4.6307,4.6307,4.6307,4.6307,4.6307,4.6307,4.6307,4.6307,4.6183,4.5809,4.5353,4.4857,4.4422,4.3925,4.3596,4.3596,4.3596,4.3596,4.3596,4.3596,4.3596,4.3596,4.3596,4.3596,4.3596,4.3596,4.3596,4.3577,4.3577,4.3558,4.3539,4.3176,4.2947,4.2948,4.2159,4.1579,4.1191,4.1191,4.1191,4.1191,4.1191,4.1191,3.8208,3.8208,3.8208,3.8208,3.8208,3.827,3.8526,3.9047,3.9585,3.9895,0.0,0.0,0.0,0.0,0.0,0.0,0.0,0.0,0.0,0.0,0.0,0.0,0.0,0.0,0.0,0.0,0.0,0.0,0.0,0.0,4.3306,4.3513,4.3596,4.3596,4.3596,4.3596,4.3596,4.3462,4.3386,4.3386,4.3253,4.3329,4.3596,4.3443,4.3462,4.3596,4.3596,4.3596,4.3596,4.3596,4.4153,4.5002,4.5002,4.552,4.6307,4.6307,4.6307,4.6307,4.6307,4.6307,4.6307,4.6307,4.6307,4.6307,4.6307,4.6307,4.6307,4.6307,4.6307,4.6307,4.6307,4.6307,4.6307,4.6307,4.6307,4.6307,4.6307,4.6307,4.6183,4.5788,4.5332,4.4857,4.4381,4.3925,4.3596,4.3596,4.3596,4.3596,4.3596,4.3596,4.3596,4.3596,4.3596,4.3596,4.3596,4.3596,4.3596,4.3596,4.3596,4.3596,4.3596,4.3462,4.3253,4.3024,4.2717,4.2371,4.1966,4.1463,4.1327,4.1579,4.1327,4.1191,3.8208,3.8208,3.8208,3.8208,3.8295,3.8464,3.8758,3.9278,3.9833,4.0123,0.0,0.0,0.0,0.0,0.0,0.0,0.0,0.0,0.0,0.0,0.0,0.0,0.0,0.0,0.0,0.0,0.0,0.0,0.0,0.0,4.3534,4.3596,4.3596,4.3596,4.3596,4.3539,4.3405,4.3405,4.3405,4.3405,4.3272,4.3348,4.3596,4.3462,4.3462,4.3596,4.3596,4.3596,4.3596,4.3596,4.4153,4.5002,4.5002,4.552,4.6307,4.6307,4.6307,4.6307,4.6307,4.6307,4.6307,4.6307,4.6307,4.6307,4.6307,4.6307,4.6307,4.6307,4.6307,4.6307,4.6307,4.6307,4.6307,4.6307,4.6307,4.6307,4.6307,4.6307,4.6121,4.5561,4.5209,4.4795,4.4174,4.3822,4.3596,4.3596,4.3596,4.3596,4.3596,4.3596,4.3596,4.3596,4.3596,4.3596,4.3596,4.3596,4.3596,4.3596,4.3596,4.3596,4.3596,4.3596,4.3481,4.3214,4.3061,4.2927,4.2792,4.2005,4.1734,4.2005,4.1734,4.1521,0.0,0.0,0.0,3.8208,3.8506,3.8803,3.8841,3.9544,4.0206,4.0206,0.0,0.0,0.0,0.0,0.0,0.0,0.0,0.0,0.0,0.0,0.0,0.0,0.0,0.0,0.0,0.0,0.0,0.0,0.0,4.2679,4.3534,4.3596,4.3596,4.3596,4.3596,4.3405,4.3024,4.3024,4.3024,4.3004,4.2621,4.283,4.3596,4.3195,4.3233,4.3596,4.3596,4.3596,4.3596,4.3596,4.4153,4.5002,4.5002,4.552,4.6307,4.6307,4.6307,4.6307,4.6307,4.6307,4.6307,4.6307,4.6307,4.6307,4.6307,4.6307,4.6307,4.6307,4.6307,4.6307,4.6307,4.6307,4.6307,4.6307,4.6307,4.6307,4.6307,4.6286,4.6017,4.5167,4.4981,4.4691,4.376,4.3596,4.3596,4.3596,4.3596,4.3596,4.3596,4.3596,4.3596,4.3596,4.3596,4.3596,4.3596,4.3596,4.3596,4.3596,4.3596,4.3596,4.3596,4.3596,4.3596,4.3596,4.3214,4.3214,4.3596,4.2792,4.2408,4.2408,4.2408,4.2177,3.8208,0.0,0.0,0.0,0.0,0.0,3.9668,4.0019,4.0306,4.0634,4.0817,0.0,0.0,0.0,0.0,0.0,0.0,0.0,0.0,0.0,0.0,0.0,0.0,0.0,0.0,0.0,0.0,0.0,4.2285,4.2679,4.3534,4.3596,4.3596,4.3596,4.3596,4.3558,4.3443,4.3424,4.3424,4.3424,4.3329,4.3386,4.3596,4.3481,4.35,4.3596,4.3596,4.3596,4.3596,4.3596,4.4153,4.5002,4.5002,4.552,4.6307,4.6307,4.6307,4.6307,4.6307,4.6307,4.6307,4.6307,4.6307,4.6307,4.6307,4.6307,4.6307,4.6307,4.6307,4.6307,4.6307,4.6307,4.6307,4.6307,4.6307,4.6307,4.6307,4.6079,4.5685,4.5105,4.4733,4.4298,4.3699,4.3596,4.3596,4.3596,4.3596,4.3596,4.3596,4.3596,4.3596,4.3596,4.3596,4.3596,4.3596,4.3596,4.3596,4.3596,4.3596,4.3596,4.3596,4.3596,4.3596,4.3596,4.35,4.35,4.3596,4.2792,4.2563,4.2832,4.2524,4.2177,0.0,0.0,0.0,0.0,0.0,0.0,4.0019,4.0347,4.0572,0.0,4.09,0.0,0.0,0.0,0.0,0.0,0.0,0.0,0.0,0.0,0.0,0.0,0.0,0.0,0.0,0.0,0.0,0.0,4.2182,4.2679,4.3534,4.3596,4.3596,4.3596,4.3596,4.3596,4.3596,4.3596,4.3596,4.3596,4.3596,4.3596,4.3596,4.3596,4.3596,4.3596,4.3596,4.3596,4.3596,4.3596,4.4153,4.5002,4.5002,4.552,4.6307,4.6307,4.6307,4.6307,4.6307,4.6307,4.6307,4.6307,4.6307,4.6307,4.6307,4.6307,4.6307,4.6307,4.6307,4.6307,4.6307,4.6307,4.6307,4.6307,4.6307,4.6265,4.6099,4.5705,4.5332,4.5043,4.4608,4.4153,4.3678,4.3596,4.3596,4.3596,4.3596,4.3596,4.3596,4.3596,4.3596,4.3596,4.3596,4.3596,4.3596,4.3596,4.3596,4.3596,4.3596,4.3596,4.3596,4.3596,4.3596,4.3596,4.3596,4.3596,4.3596,4.3117,4.3023,4.3233,4.2851,4.2525,0.0,0.0,0.0,0.0,0.0,0.0,4.0182,4.0593,4.09,0.0,4.09,0.0,0.0,0.0,0.0,0.0,0.0,0.0,0.0,0.0,0.0,0.0,0.0,0.0,0.0,0.0,4.1087,4.156,4.2078,4.2723,4.3573,4.3596,4.3596,4.3596,4.3596,4.3596,4.3596,4.3596,4.3596,4.3596,4.3596,4.3596,4.3596,4.3596,4.3596,4.3596,4.3596,4.3596,4.3596,4.3596,4.4153,4.5002,4.5002,4.552,4.6307,4.6307,4.6307,4.6307,4.6307,4.6307,4.6307,4.6307,4.6307,4.6307,4.6307,4.6307,4.6307,4.6307,4.6307,4.6307,4.6307,4.6307,4.6307,4.6307,4.6265,4.6141,4.5788,4.5291,4.4919,4.4919,4.4546,4.4091,4.3658,4.3596,4.3596,4.3596,4.3596,4.3596,4.3596,4.3596,4.3596,4.3596,4.3596,4.3596,4.3596,4.3596,4.3596,4.3596,4.3596,4.3596,4.3596,4.3596,4.3596,4.3596,4.3596,4.3596,4.3596,4.3596,4.3596,4.3596,4.3233,4.3042,0.0,0.0,0.0,0.0,0.0,0.0,4.0655,4.0838,4.09,0.0,4.09,4.09,4.09,0.0,0.0,0.0,0.0,0.0,0.0,0.0,0.0,0.0,0.0,0.0,0.0,0.0,4.1087,4.156,4.2331,4.3016,4.3554,4.3596,4.3596,4.3596,4.3596,4.3596,4.3596,4.3596,4.3596,4.3596,4.3596,4.3596,4.3596,4.3596,4.3596,4.3596,4.3596,4.3596,4.3596,4.3596,4.4153,4.5002,4.5002,4.552,4.6307,4.6307,4.6307,4.6307,4.6307,4.6307,4.6307,4.6307,4.6307,4.6307,4.6307,4.6307,4.6307,4.6307,4.6307,4.6307,4.6307,4.6307,4.6307,4.6307,4.6058,4.5788,4.5725,4.5022,4.4443,4.4443,4.407,4.3718,4.3635,4.3596,4.3596,4.3596,4.3596,4.3596,4.3596,4.3596,4.3596,4.3596,4.3596,4.3596,4.3596,4.3596,4.3596,4.3596,4.3596,4.3596,4.3596,4.3596,4.3596,4.3596,4.3596,4.3596,4.3596,4.3596,4.3596,4.3596,4.352,4.331,0.0,0.0,0.0,4.0016,0.0,0.0,0.0,4.09,4.09,4.09,4.09,4.09,4.09,0.0,0.0,0.0,0.0,0.0,0.0,0.0,0.0,0.0,0.0,0.0,0.0,0.0,4.1087,4.156,4.2226,4.2787,4.3223,4.3472,4.3596,4.3596,4.3596,4.3596,4.3596,4.3596,4.3596,4.3596,4.3596,4.3596,4.3596,4.3596,4.3596,4.3596,4.3596,4.3596,4.3596,4.3596,4.4153,4.5002,4.5002,4.552,4.6307,4.6307,4.6307,4.6307,4.6307,4.6307,4.6307,4.6307,4.6307,4.6307,4.6307,4.6307,4.6307,4.6307,4.6307,4.6307,4.6307,4.6307,4.6245,4.6058,4.585,4.558,4.5084,4.4629,4.4236,4.4008,4.376,4.3596,4.3596,4.3596,4.3596,4.3596,4.3596,4.3596,4.3596,4.3596,4.3596,4.3596,4.3596,4.3596,4.3596,4.3596,4.3596,4.3596,4.3596,4.3596,4.3596,4.3596,4.3596,4.3596,4.3596,4.3596,4.3596,4.3596,4.3596,4.3596,4.3596,4.35,0.0,0.0,0.0,0.0,0.0,4.043,0.0,0.0,0.0,4.09,4.09,0.0,4.09,0.0,0.0,0.0,0.0,0.0,0.0,0.0,0.0,0.0,0.0,0.0,0.0,4.09,4.1087,4.156,4.2037,4.2493,4.2872,4.3347,4.3596,4.3596,4.3596,4.3596,4.3596,4.3596,4.3596,4.3596,4.3596,4.3596,4.3596,4.3596,4.3596,4.3596,4.3596,4.3596,4.3596,4.3596,4.4153,4.5002,4.5002,4.552,4.6347,4.6649,4.6569,4.6347,4.667,4.659,4.6307,4.6307,4.6307,4.6307,4.6307,4.6307,4.6307,4.6307,4.6307,4.6307,4.6307,4.6245,4.6099,4.5788,4.556,4.5209,4.4463,4.4236,4.4049,4.3658,4.3596,4.3596,4.3596,4.3596,4.3596,4.3596,4.3596,4.3596,4.3596,4.3596,4.3596,4.3596,4.3596,4.3596,4.3596,4.3596,4.3596,4.3596,4.3596,4.3596,4.3596,4.3596,4.3596,4.3596,4.3596,4.3596,4.3596,4.3596,4.3596,4.3596,4.3596,4.3596,0.0,0.0,0.0,0.0,4.0817,0.0,0.0,0.0,4.09,4.09,0.0,0.0,0.0,0.0,0.0,0.0,0.0,0.0,0.0,0.0,0.0,0.0,0.0,0.0,0.0,0.0,4.1087,4.156,4.2037,4.2493,4.2872,4.3347,4.3596,4.3596,4.3596,4.3596,4.3596,4.3596,4.3596,4.3596,4.3596,4.3596,4.3596,4.3596,4.3596,4.3596,4.3596,4.3596,4.3596,4.3596,4.4153,4.5002,4.5002,4.552,4.6489,4.797,4.7592,4.6509,4.7989,4.7552,4.6307,4.6307,4.6307,4.6307,4.6307,4.6307,4.6307,4.6307,4.6307,4.6307,4.6307,4.6037,4.5767,4.5725,4.5064,4.4422,4.4319,4.3968,4.3658,4.3596,4.3596,4.3596,4.3596,4.3596,4.3596,4.3596,4.3596,4.3596,4.3596,4.3596,4.3596,4.3596,4.3596,4.3596,4.3596,4.3596,4.3596,4.3596,4.3596,4.3596,4.3596,4.3596,4.3596,4.3596,4.3596,4.3596,4.3596,4.3596,4.3596,4.3596,4.3596,4.3596,0.0,0.0,0.0,0.0,0.0,0.0,0.0,0.0,4.09,0.0,0.0,0.0,0.0,0.0,0.0,0.0,0.0,0.0,0.0,0.0,0.0,0.0,0.0,0.0,0.0,0.0,0.0,0.0,0.0,4.2099,4.2536,4.2973,4.3306,4.3575,4.3596,4.3596,4.3596,4.3596,4.3596,4.3596,4.3596,4.3596,4.3596,4.3596,4.3596,4.3596,4.3596,4.3596,4.3672,4.4577,4.5525,4.6536,4.7439,4.7755,4.795,4.9624,4.9822,4.9312,4.9995,4.978,4.9037,4.8069,4.7752,4.7572,4.6589,4.6307,4.6307,4.6307,4.6307,4.6245,4.6017,4.583,4.556,4.5022,4.4588,4.4236,4.3967,4.3741,4.3596,4.3596,4.3596,4.3596,4.3596,4.3596,4.3596,4.3596,4.3596,4.3596,4.3596,4.3596,4.3596,4.3596,4.3596,4.3596,4.3596,4.3596,4.3596,4.3596,4.3596,4.3596,4.3596,4.3596,4.3596,4.3596,4.3596,4.3596,4.3596,4.3596,4.3596,4.3596,4.3596,4.3596,4.09,0.0,0.0,0.0,0.0,0.0,0.0,0.0,0.0,0.0,0.0,0.0,0.0,0.0,0.0,0.0,0.0,0.0,0.0,0.0,0.0,0.0,0.0,0.0,0.0,0.0,0.0,0.0,4.1332,0.0,4.2265,4.2683,4.312,4.3575,4.3596,4.3596,4.3596,4.3596,4.3596,4.3596,4.3596,4.3596,4.3596,4.3596,4.3596,4.3596,4.3596,4.3596,4.3729,4.5435,4.6673,4.7687,4.9864,5.0475,5.0287,5.1524,5.1678,5.1351,5.1812,5.1678,5.1101,4.9878,4.9175,4.8563,4.7352,4.6649,4.6307,4.6307,4.6224,4.6079,4.5788,4.5518,4.5126,4.4463,4.4215,4.4029,4.3658,4.3596,4.3596,4.3596,4.3596,4.3596,4.3596,4.3596,4.3596,4.3596,4.3596,4.3596,4.3596,4.3596,4.3596,4.3596,4.3596,4.3596,4.3596,4.3596,4.3596,4.3596,4.3596,4.3596,4.3596,4.3596,4.3596,4.3596,4.3596,4.3596,4.3596,4.3596,4.3596,4.3596,4.3596,4.3596,0.0,0.0,0.0,0.0,0.0,0.0,0.0,0.0,4.09,0.0,0.0,0.0,0.0,0.0,0.0,0.0,0.0,0.0,0.0,0.0,0.0,0.0,0.0,0.0,0.0,0.0,0.0,4.09,4.1332,0.0,4.2265,4.2683,4.312,4.3575,4.3596,4.3596,4.3596,4.3596,4.3596,4.3596,4.3596,4.3596,4.3596,4.3596,4.3596,4.3596,4.3596,4.3596,4.375,4.5896,4.7036,4.7786,5.153,5.3232,5.3538,5.3595,5.2632,5.1524,5.3086,5.2613,5.1293,5.1236,5.0112,4.8781,4.8741,4.7592,4.6307,4.6307,4.6017,4.5725,4.5705,4.5042,4.4339,4.4319,4.3967,4.3616,4.3596,4.3596,4.3596,4.3596,4.3596,4.3596,4.3596,4.3596,4.3596,4.3596,4.3596,4.3596,4.3596,4.3596,4.3596,4.3596,4.3596,4.3596,4.3596,4.3596,4.3596,4.3596,4.3596,4.3596,4.3596,4.3596,4.3596,4.3596,4.3596,4.3596,4.3596,4.3596,4.3596,4.3596,4.3596,4.3596,0.0,0.0,4.09,4.09,0.0,0.0,0.0,0.0,0.0,0.0,0.0,0.0,0.0,0.0,0.0,0.0,0.0,0.0,0.0,0.0,0.0,0.0,0.0,0.0,0.0,0.0,0.0,4.09,4.1063,4.1477,0.0,4.243,4.2847,4.3594,4.3596,4.3596,4.3596,4.3596,4.3596,4.3596,4.3596,4.3596,4.3596,4.3596,4.3596,4.3596,4.3596,4.4161,4.529,4.7429,4.9226,5.0865,5.3552,5.4928,5.5361,5.5361,5.5029,5.4615,5.5177,5.501,5.4373,5.3237,5.1793,5.0248,4.9135,4.7632,4.6307,4.6307,4.6017,4.5643,4.5332,4.4774,4.4236,4.3925,4.3718,4.3596,4.3596,4.3596,4.3596,4.3596,4.3596,4.3596,4.3596,4.3596,4.3596,4.3596,4.3596,4.3596,4.3596,4.3596,4.3596,4.3596,4.3596,4.3596,4.3596,4.3596,4.3596,4.3596,4.3596,4.3596,4.3596,4.3596,4.3596,4.3596,4.3596,4.3596,4.3596,4.3596,4.3596,4.3596,4.3596,4.3596,4.09,4.09,0.0,0.0,4.09,0.0,0.0,0.0,0.0,0.0,0.0,0.0,0.0,0.0,0.0,0.0,0.0,0.0,0.0,4.09,0.0,0.0,0.0,0.0,0.0,0.0,4.09,4.09,4.09,4.125,0.0,0.0,4.2619,4.3327,4.3513,4.3596,4.3596,4.3596,4.3596,4.3596,4.3596,4.3596,4.3596,4.3596,4.3898,4.4426,4.4426,4.5325,4.692,4.9254,5.099,5.2411,5.4762,5.5892,5.62,5.62,5.62,5.62,5.62,5.62,5.6011,5.493,5.3086,5.1101,5.0014,4.8109,4.6307,4.6307,4.5892,4.5394,4.5083,4.4526,4.3968,4.3658,4.3596,4.3596,4.3596,4.3596,4.3596,4.3596,4.3596,4.3596,4.3596,4.3596,4.3596,4.3596,4.3596,4.3596,4.3596,4.3596,4.3596,4.3596,4.3596,4.3596,4.3596,4.3596,4.3596,4.3596,4.3596,4.3596,4.3596,4.3596,4.3698,4.3863,4.3698,4.3678,4.3863,4.3678,4.3596,4.3596,4.3596,4.3596]}]]